GFSSW_700_spd_000.txt.gz
Wind_Speed
23 26 27 25 26 28 32 38 43 40 38 39 37 35 35 33 41 44 48 41 43 45 43 38 35 31 28 25 23 19 20 22 18 15 13 9 13 10 10 15 17 15 14 14 12
23 25 24 24 25 25 27 32 36 40 43 39 42 37 35 36 38 48 43 40 39 42 44 42 37 32 30 27 25 22 24 22 16 12 16 14 16 15 16 17 16 17 17 15 16
23 23 22 21 20 19 22 25 29 35 41 43 48 45 43 40 42 46 41 38 36 40 43 43 40 33 31 29 28 28 29 21 16 13 17 18 16 21 21 20 15 19 19 18 16
21 21 23 22 19 18 19 20 22 26 30 35 39 37 38 40 36 35 41 38 35 38 42 43 41 38 35 33 30 29 26 22 16 12 18 19 20 22 28 24 18 19 21 20 20
21 22 24 22 19 18 18 19 21 22 25 28 30 33 34 38 46 23 16 38 38 41 42 38 41 37 38 35 30 31 27 21 17 17 18 21 21 22 33 26 22 23 25 24 21
19 22 25 23 19 17 18 17 17 20 24 23 27 29 32 38 37 34 18 22 39 42 41 37 35 35 34 33 30 30 25 22 23 21 21 22 24 27 25 26 24 29 30 29 29
17 21 25 21 17 17 19 17 18 17 21 20 24 25 34 35 23 31 31 21 38 40 39 37 34 35 32 27 29 26 26 25 26 24 21 24 32 25 18 18 26 30 33 28 26
21 24 22 22 13 16 19 19 18 19 18 17 19 26 37 36 23 22 37 24 36 40 38 34 32 32 29 25 19 20 25 28 27 19 17 21 30 19 9 19 18 18 19 18 19
23 25 22 20 14 14 18 17 18 19 19 18 22 26 36 32 26 26 36 30 32 42 39 34 34 33 31 22 22 19 21 18 17 9 14 15 26 5 11 13 11 10 7 15 18
22 22 21 19 15 13 18 16 18 22 23 23 25 22 28 20 23 27 28 34 28 42 41 41 37 35 37 32 18 23 21 18 20 9 14 18 23 9 11 12 12 11 10 12 15
20 19 19 17 14 15 19 22 23 25 29 30 26 32 9 27 16 26 28 35 28 44 49 43 41 44 42 38 33 19 21 17 13 10 18 15 21 17 16 16 16 13 15 17 17
16 17 18 15 14 13 17 22 24 22 23 25 29 23 26 18 18 25 32 33 33 48 44 36 45 41 36 35 29 24 17 21 20 15 17 19 21 19 17 20 18 16 15 16 17
18 20 17 14 13 15 16 19 20 21 21 24 27 29 19 19 20 28 36 31 33 44 49 37 29 39 40 38 35 32 28 19 19 17 22 25 28 19 12 20 23 16 18 15 13
17 21 23 13 16 15 15 14 18 22 16 18 30 28 25 23 22 28 37 32 28 45 47 27 32 36 43 38 33 34 26 21 17 18 15 12 11 29 24 19 15 16 15 12 11
19 18 22 14 4 9 12 17 12 13 1 8 24 18 27 30 17 30 36 28 26 44 46 26 30 30 40 38 31 30 24 22 20 18 21 22 14 9 14 14 15 16 14 11 10
16 19 18 16 12 10 10 13 21 8 5 16 20 28 26 27 17 30 40 35 17 32 47 22 14 26 29 31 25 28 18 6 11 14 7 20 18 15 8 6 13 18 15 11 10
17 17 21 22 17 11 10 18 14 6 14 15 26 31 25 31 23 33 47 44 25 33 39 24 20 28 27 31 21 30 18 2 3 4 6 7 9 21 7 11 12 10 16 13 12
16 18 18 23 12 16 13 21 8 5 22 19 27 26 24 32 21 30 38 38 25 30 38 22 16 30 24 36 31 25 28 8 6 4 4 7 9 4 5 9 13 12 14 15 11
16 15 14 14 14 19 14 22 8 10 13 21 28 28 27 37 15 28 44 27 32 24 29 22 15 29 23 28 36 22 34 22 2 3 2 6 10 13 14 10 7 14 16 16 11
14 13 12 16 16 12 17 17 8 10 19 25 19 21 19 32 17 21 35 34 26 35 30 18 12 25 29 22 28 24 29 17 14 3 4 4 8 10 7 4 6 14 17 17 13
12 9 11 13 10 21 20 14 5 8 19 22 17 22 17 29 15 21 27 22 35 40 30 23 14 26 28 25 31 30 32 22 11 9 4 1 3 4 5 5 5 9 13 13 11
10 8 9 6 8 11 14 5 11 21 18 17 18 16 25 32 21 9 15 15 38 44 37 23 16 32 27 17 27 30 27 29 17 6 9 5 13 16 9 5 12 12 13 10 10
6 7 11 11 6 7 2 9 24 25 23 19 16 20 22 29 14 19 13 28 39 45 42 27 12 20 17 22 23 32 32 27 23 20 18 7 6 8 6 6 10 12 11 14 17
5 6 9 13 12 10 1 14 21 23 10 15 19 14 27 22 14 18 18 33 41 33 29 29 16 20 21 20 28 29 34 32 31 22 19 24 19 14 7 12 13 17 19 20 19
11 10 9 8 9 12 7 3 13 15 13 16 20 18 36 22 20 23 28 29 40 34 23 26 16 19 20 21 26 34 32 34 37 37 26 30 28 25 17 17 19 21 22 22 24
18 14 14 13 11 12 8 6 16 20 20 19 27 30 28 25 19 29 33 37 38 37 28 19 11 14 13 19 18 25 27 29 34 37 35 34 21 16 16 16 20 24 26 23 18
15 12 12 6 11 11 10 3 10 22 14 22 29 27 14 12 20 24 24 34 36 41 32 21 11 12 8 12 10 11 22 22 27 32 33 33 31 27 24 23 19 17 17 17 19

GFSSW_700_spd_003.txt.gz
Wind_Speed
21 23 23 23 23 24 25 28 31 39 39 33 31 36 32 31 35 37 43 39 37 39 41 41 37 33 29 27 24 21 23 25 23 17 11 10 12 14 13 13 14 15 16 14 13
21 23 23 21 20 21 23 24 29 33 37 36 36 37 37 34 35 38 35 36 36 35 39 41 39 35 32 30 27 23 27 26 22 16 13 12 12 16 18 17 14 15 16 17 15
21 22 21 19 20 18 18 20 23 27 30 32 35 31 35 34 41 45 33 32 33 33 38 38 40 37 35 32 28 27 32 22 21 18 16 15 11 16 20 21 14 19 19 21 18
22 21 22 20 19 18 16 17 19 21 23 26 29 36 39 37 39 38 40 38 34 33 39 37 40 40 39 35 32 31 30 24 21 17 17 16 16 14 23 22 19 20 22 23 22
21 22 20 20 16 15 16 16 17 17 18 20 25 27 33 38 45 43 22 19 30 37 43 39 36 40 40 38 32 33 29 23 18 18 18 19 17 18 24 25 27 24 25 27 26
18 19 22 20 17 15 16 17 16 15 12 14 20 26 33 40 40 34 40 33 21 39 40 39 36 34 36 39 35 32 25 23 22 21 21 23 20 21 12 20 24 29 30 32 30
25 25 26 20 17 15 15 16 16 15 12 15 20 24 32 38 32 21 33 32 28 36 39 37 34 32 37 34 34 30 26 24 24 22 22 22 26 18 20 22 20 25 29 33 31
25 25 28 25 22 15 14 16 17 17 15 19 20 23 30 32 30 28 23 32 26 35 36 35 36 32 28 31 19 30 27 28 27 24 18 17 29 14 13 9 13 10 15 18 19
21 22 24 23 18 15 12 12 17 17 18 22 22 21 27 28 27 21 25 31 25 34 38 39 39 33 32 28 27 22 23 28 23 18 15 13 22 6 6 6 8 6 8 9 10
22 22 23 20 16 15 11 13 17 20 22 23 24 21 24 13 14 22 25 25 27 29 41 44 39 35 40 36 29 25 27 19 19 8 9 14 23 16 9 11 12 12 8 8 8
22 22 25 25 19 15 14 18 22 25 32 29 24 25 20 8 10 18 25 25 34 24 47 47 39 44 43 37 29 21 24 24 19 14 16 15 20 14 12 14 16 17 15 14 12
21 22 25 28 20 14 16 27 26 31 30 24 29 29 22 23 11 14 23 28 37 28 46 43 36 38 35 37 31 20 17 20 17 14 16 20 25 17 16 16 21 20 17 15 14
18 21 23 25 19 16 20 23 23 26 29 21 23 27 26 21 24 17 26 28 32 26 46 46 22 41 35 37 35 28 25 17 13 12 17 23 26 16 9 14 19 24 18 16 14
16 18 20 27 22 17 17 23 20 28 14 15 26 27 27 19 25 17 28 31 26 28 43 33 15 38 34 34 36 32 27 22 15 13 7 12 9 23 19 15 19 15 16 16 14
16 21 19 26 26 11 10 22 23 17 4 5 18 13 25 31 13 23 28 33 20 30 39 19 36 43 38 35 33 27 25 21 17 17 18 18 9 8 19 19 15 13 17 16 14
16 17 16 23 26 13 14 12 23 8 6 8 12 22 26 29 20 19 33 33 15 23 41 17 31 25 38 30 31 27 18 18 14 13 7 18 14 12 2 5 7 16 18 15 13
16 16 16 20 23 17 10 15 12 7 5 10 19 23 26 29 24 26 40 40 15 24 38 16 22 34 26 33 28 25 20 1 1 5 5 4 8 18 15 10 4 8 17 16 13
15 15 15 17 23 15 12 21 10 7 16 5 18 22 23 25 21 28 36 42 23 24 33 16 12 27 26 29 28 26 27 8 5 4 2 7 8 2 3 3 4 13 15 16 14
14 15 16 16 17 19 21 19 9 13 13 19 21 28 18 27 16 28 36 40 28 26 22 26 8 23 19 28 29 25 23 24 2 1 0 5 6 9 9 9 9 12 21 19 16
12 14 13 13 15 20 23 18 16 10 15 26 22 26 24 31 17 27 31 33 35 29 19 23 8 24 23 19 26 24 25 16 10 4 3 4 7 6 6 8 5 10 20 22 20
11 11 9 9 13 23 23 16 14 12 18 28 15 21 25 29 11 24 29 20 30 36 22 19 17 18 20 20 29 30 22 16 13 7 3 1 1 4 9 8 7 8 19 21 17
9 10 6 9 17 20 26 18 2 14 15 16 13 21 24 34 24 27 27 12 25 36 35 24 23 22 30 19 23 27 32 29 11 5 12 2 5 10 20 9 7 10 16 17 17
6 7 8 10 14 13 18 6 14 21 22 17 15 16 26 27 17 32 20 28 21 38 34 28 15 18 15 19 19 28 28 25 34 18 15 7 5 2 7 4 7 8 11 16 18
9 6 8 13 18 17 12 11 22 25 24 19 18 16 19 25 15 21 22 22 26 35 29 26 17 23 18 17 24 33 32 32 29 27 20 28 21 19 12 10 12 12 15 20 23
14 11 10 10 17 15 12 5 25 26 22 16 23 20 27 23 21 23 19 26 33 34 41 23 10 22 22 28 25 33 33 37 39 39 28 34 33 28 27 26 20 21 21 22 23
18 17 13 15 17 16 12 9 15 17 12 20 17 19 25 24 26 34 25 32 37 39 45 29 19 17 18 19 21 28 36 37 36 37 39 40 38 32 29 26 22 22 23 24 25
15 15 15 11 12 9 12 13 5 18 13 19 14 21 23 21 11 22 22 24 39 40 42 29 26 17 9 14 16 15 30 29 33 37 36 40 35 33 28 21 17 20 24 26 25

GFSSW_700_spd_006.txt.gz
Wind_Speed
16 17 17 19 20 21 23 24 26 27 33 29 25 26 27 26 31 32 34 31 33 33 36 36 39 37 35 31 26 24 19 22 19 14 10 11 12 14 17 15 16 16 17 17 16
16 18 19 19 19 19 21 22 25 27 29 32 36 36 30 30 33 39 29 27 28 29 34 34 35 38 37 34 30 28 22 24 18 16 16 16 14 14 17 20 16 18 19 21 18
17 21 21 20 20 21 22 22 23 26 28 30 33 33 35 34 35 40 30 27 26 27 31 33 33 38 38 37 32 30 29 21 23 20 19 19 16 17 17 23 20 20 22 22 19
18 21 20 20 19 20 21 20 19 20 21 24 27 29 31 36 27 27 29 33 28 26 30 33 33 37 39 37 32 30 33 25 24 22 21 20 21 17 20 25 23 24 25 25 24
16 17 21 23 23 23 21 18 18 17 18 18 21 26 29 33 38 32 18 17 23 32 31 32 34 36 39 35 28 36 25 26 25 22 22 20 23 22 23 17 26 27 28 28 28
16 18 23 25 24 20 18 16 15 15 14 15 18 20 28 36 35 35 38 32 20 14 31 35 34 31 27 31 35 25 30 26 23 23 22 22 24 26 8 16 25 30 32 32 31
16 17 25 24 23 21 18 15 15 14 14 14 17 21 27 27 26 28 30 32 29 30 27 34 30 30 29 29 31 29 21 20 23 23 22 23 28 24 17 20 18 23 30 34 35
18 16 22 20 26 24 21 15 13 14 16 18 20 22 29 21 24 29 31 29 24 30 34 31 35 36 31 25 21 31 26 27 23 19 22 21 24 15 15 7 8 14 19 24 25
18 16 19 17 23 21 17 14 12 14 17 21 24 26 31 26 25 22 26 28 27 32 33 31 42 37 34 33 26 28 27 30 22 19 19 20 19 10 12 14 11 13 8 8 8
17 16 17 18 22 23 19 16 13 21 22 24 25 23 28 16 13 21 24 25 28 28 31 34 47 41 40 38 41 25 28 20 25 19 19 17 23 19 13 13 14 15 10 8 8
16 16 17 20 23 24 23 22 21 29 34 33 22 27 24 14 9 18 25 27 27 32 34 37 51 50 45 43 28 29 24 21 17 18 14 16 22 20 13 15 16 18 15 13 11
16 16 18 19 24 27 23 28 30 30 32 31 36 33 26 23 13 16 20 30 29 39 30 36 53 46 30 42 29 26 24 23 18 19 18 15 23 21 17 17 18 19 19 15 15
15 16 19 19 16 24 24 27 29 30 32 33 35 35 27 26 24 16 16 26 30 37 31 48 51 33 31 41 32 25 23 19 14 12 14 17 23 17 17 17 20 21 20 20 16
15 16 18 20 20 21 19 22 29 25 18 16 27 29 27 28 30 26 17 24 25 31 28 39 29 36 44 36 34 29 20 15 14 10 8 4 6 11 12 16 16 21 17 24 17
16 17 17 19 21 22 19 22 18 23 5 5 18 16 22 33 15 23 21 27 28 28 24 34 37 32 39 41 36 24 25 17 12 10 9 10 8 10 7 15 15 13 20 22 21
16 17 18 18 19 20 13 15 15 12 7 9 11 23 19 29 20 15 23 30 24 19 16 31 28 28 36 35 34 18 19 15 10 5 8 15 12 7 5 1 8 17 19 21 20
15 18 19 17 17 19 17 21 9 8 5 9 13 18 23 29 28 18 30 35 28 17 21 39 20 30 27 36 33 24 22 6 6 5 6 7 9 13 6 6 3 10 18 21 18
15 18 19 16 17 17 18 18 11 9 16 7 13 17 18 21 22 24 24 30 39 11 19 25 8 33 39 36 29 37 24 7 5 6 6 11 7 3 3 2 10 11 17 21 19
15 18 19 16 18 19 20 26 11 11 13 16 15 19 13 22 17 20 25 29 36 13 7 25 5 26 36 30 25 27 24 8 5 2 3 6 5 7 5 1 9 11 23 24 21
15 16 17 15 13 16 30 26 18 12 6 17 13 17 18 25 20 22 22 24 31 23 10 20 6 20 24 30 28 26 27 9 5 5 5 5 4 4 1 3 4 10 20 26 24
14 15 14 10 9 22 36 24 27 19 13 21 13 17 17 25 20 22 19 11 36 26 14 15 5 15 23 18 29 20 27 10 11 4 3 3 5 11 6 5 2 8 17 26 26
13 13 12 7 18 25 34 28 14 7 18 14 12 15 19 21 24 18 20 11 26 31 21 21 9 14 20 12 20 21 17 18 13 6 5 1 3 12 5 6 0 3 14 24 24
13 10 11 9 14 24 24 21 11 19 17 17 16 15 21 23 16 21 22 27 28 33 24 20 10 13 8 9 17 25 23 25 17 15 15 10 5 10 4 0 1 1 6 18 22
14 10 13 19 20 20 13 12 11 19 20 15 13 15 22 26 22 23 20 29 17 29 25 18 10 20 18 16 21 26 30 28 26 21 15 19 11 13 11 8 5 4 6 12 19
18 15 15 15 14 15 14 21 21 24 26 19 22 21 22 21 22 19 23 22 30 24 27 17 7 17 15 13 20 26 30 32 32 31 22 22 26 22 22 22 21 19 16 20 22
19 21 16 16 15 18 17 19 24 26 33 29 22 26 20 26 29 26 27 24 31 33 43 22 7 14 18 18 17 21 24 31 35 31 33 24 28 26 26 24 24 20 22 24 26
18 19 20 16 12 15 15 10 12 31 28 24 23 27 22 21 18 15 21 18 18 38 47 26 13 9 5 11 14 14 27 28 28 33 34 33 29 26 27 26 25 23 21 23 25

GFSSW_700_spd_009.txt.gz
Wind_Speed
12 14 15 15 17 19 22 24 26 27 28 33 34 32 25 25 27 32 32 29 30 35 35 31 31 33 35 35 29 27 22 25 23 19 17 13 10 10 15 18 18 16 17 17 17
12 14 18 16 16 16 19 22 24 26 29 32 31 35 30 31 31 32 23 26 25 31 34 31 29 28 31 32 25 28 26 28 19 18 18 14 14 13 16 13 13 14 15 18 21
14 14 17 16 15 15 17 21 24 27 27 29 30 32 33 34 36 41 32 27 25 28 30 32 31 30 28 28 30 27 33 23 21 21 19 18 17 13 17 21 16 12 15 15 23
15 14 15 15 15 16 20 23 25 26 26 29 30 32 34 35 20 22 25 27 26 28 29 29 30 33 29 33 29 32 28 29 23 22 19 21 20 20 18 21 20 22 21 24 25
16 15 15 17 18 16 18 22 23 26 25 26 27 28 29 32 34 31 20 14 20 28 26 27 28 31 31 27 31 32 31 26 26 24 21 21 24 27 24 20 20 23 25 29 27
17 18 17 18 18 15 16 19 21 25 26 25 25 25 27 33 27 32 32 21 12 13 24 28 26 27 24 25 30 27 29 29 24 23 23 23 25 23 24 16 19 21 25 31 34
18 20 18 18 16 15 17 20 20 22 24 25 25 23 28 28 28 27 29 31 30 28 19 20 28 21 24 23 30 31 26 23 30 25 23 20 27 29 24 18 23 22 23 33 35
20 20 21 18 17 13 16 18 17 19 22 24 24 20 28 22 26 23 27 25 24 26 30 29 19 28 30 29 22 36 34 32 26 26 25 22 28 16 10 19 11 17 19 23 29
20 20 23 20 19 14 15 19 19 17 21 23 23 24 29 25 25 22 23 24 25 25 24 29 26 31 34 28 32 30 35 39 26 24 24 23 23 18 18 22 17 13 14 14 15
20 21 23 22 22 17 18 19 21 20 22 25 25 23 27 16 12 22 25 25 26 21 24 30 30 35 37 38 34 32 40 28 33 27 27 28 28 24 16 15 15 13 18 14 11
20 21 22 24 24 21 21 23 21 26 31 36 21 26 26 16 14 17 20 24 26 23 27 30 35 39 45 45 35 31 27 32 24 27 30 28 26 23 20 21 17 15 16 18 14
19 20 21 24 26 22 19 20 25 30 35 35 35 38 29 27 26 22 22 24 27 29 25 29 39 42 41 41 40 32 30 30 25 20 21 20 23 23 22 22 20 18 19 22 19
19 19 20 24 26 21 20 19 21 25 36 39 34 36 39 37 35 23 21 22 25 28 30 37 39 41 37 44 39 37 34 28 28 21 19 16 24 27 27 24 26 22 22 24 22
20 20 21 22 24 23 22 15 16 20 22 27 36 41 39 43 41 30 24 21 24 29 29 31 43 31 42 52 35 41 36 28 21 18 15 17 9 17 20 26 23 23 28 28 26
20 20 21 21 24 20 19 15 15 17 7 8 16 21 22 42 17 25 31 26 25 24 28 37 35 40 43 55 39 30 28 25 22 18 7 11 10 20 14 19 22 20 26 27 30
20 20 21 20 20 17 16 13 13 8 8 8 11 16 20 27 28 12 30 30 22 23 28 28 26 34 49 42 38 32 30 26 18 10 9 17 17 14 18 17 18 20 24 30 29
18 19 20 20 19 16 14 14 9 9 6 9 13 18 22 25 30 20 26 30 26 24 30 26 29 22 48 32 38 29 35 8 6 7 7 12 16 18 5 11 9 13 22 25 27
18 18 22 20 23 16 16 18 14 9 22 11 14 16 24 22 26 23 19 25 32 26 15 19 12 33 37 29 33 42 34 12 7 9 14 9 9 9 17 17 15 10 15 24 26
21 20 24 18 22 17 16 28 13 14 18 16 10 15 13 20 14 26 25 26 29 39 5 14 12 22 31 29 33 33 34 8 6 6 15 11 11 6 10 7 11 15 21 25 26
21 21 23 23 22 18 22 35 21 20 14 8 14 13 15 22 17 22 17 18 27 34 20 5 9 23 24 38 30 24 22 11 5 7 6 10 11 7 11 7 10 17 21 27 27
24 22 22 16 15 21 30 34 29 33 25 13 12 14 15 23 20 22 9 9 22 20 26 10 16 13 23 15 32 27 18 9 7 0 4 7 7 11 9 6 8 10 18 24 29
24 22 17 13 20 22 31 32 29 20 15 15 11 15 16 21 24 19 17 16 17 21 16 10 10 2 15 12 20 22 22 18 11 6 6 4 7 15 8 5 5 5 8 19 28
23 22 16 14 24 25 28 28 28 22 18 19 12 16 18 21 16 19 15 19 12 26 9 16 2 6 10 13 21 24 15 23 15 6 16 9 7 14 13 5 4 4 3 10 22
24 13 21 23 24 25 23 23 23 11 18 19 12 15 17 21 19 15 12 12 14 24 12 8 6 5 6 11 18 22 25 23 22 18 16 17 7 11 15 10 6 3 3 1 13
25 20 21 17 19 16 23 20 12 7 16 21 12 20 21 21 22 9 17 14 18 26 19 6 4 7 5 5 13 16 22 26 26 25 19 18 20 12 9 13 14 14 14 12 12
30 26 23 24 15 17 17 26 31 21 22 28 22 21 22 16 22 18 18 20 17 24 27 16 3 2 7 9 10 16 21 26 29 30 27 22 21 11 16 17 18 17 18 17 16
30 26 26 15 14 17 19 23 10 20 23 31 25 20 22 17 14 6 16 17 10 18 29 20 6 3 4 7 8 14 26 26 26 29 28 33 28 19 22 20 18 17 20 20 21

GFSSW_700_spd_012.txt.gz
Wind_Speed
15 14 14 14 14 15 18 19 20 21 23 27 30 31 30 29 29 28 28 27 29 29 31 32 29 28 28 33 29 17 25 27 25 22 18 14 16 14 13 18 18 17 18 13 15
16 15 15 16 17 16 17 18 18 18 20 24 27 30 33 35 36 38 26 25 25 29 26 28 29 26 28 31 33 30 28 36 22 18 20 17 14 17 15 15 17 9 7 16 18
17 17 16 16 15 14 16 18 18 18 19 23 26 30 32 36 34 38 32 27 26 26 26 25 28 30 31 28 27 30 38 28 21 22 18 23 21 18 17 18 18 13 14 15 18
18 19 18 17 15 15 18 22 23 22 21 21 24 26 30 33 23 23 23 18 30 29 28 24 24 27 31 32 29 29 31 25 28 22 21 27 30 28 22 21 17 20 23 26 22
18 19 19 19 17 17 18 18 20 19 19 20 22 24 30 35 35 37 27 16 15 28 28 23 23 23 30 23 27 36 32 29 27 27 26 20 28 31 29 26 21 21 23 23 25
18 18 19 20 19 18 17 19 20 17 18 20 22 25 29 36 30 31 34 29 20 14 17 24 21 21 22 22 26 28 36 34 29 27 26 26 27 26 28 22 20 16 18 24 27
19 18 18 20 20 18 18 19 18 16 17 20 21 25 32 28 29 25 30 27 22 18 12 12 25 20 9 20 24 31 29 30 35 29 29 20 31 32 28 21 19 19 24 24 28
22 18 18 18 21 19 20 21 20 16 15 17 19 25 34 24 28 25 26 21 22 27 28 21 14 26 23 20 23 26 28 38 37 31 34 25 35 30 15 13 17 16 18 21 22
23 21 18 18 21 22 21 21 22 22 18 18 20 26 32 24 29 21 22 19 19 20 22 25 28 24 21 29 22 28 31 44 42 30 26 30 34 31 17 14 20 21 15 22 17
24 23 19 19 20 22 23 22 25 26 23 22 22 24 23 21 13 17 23 21 20 21 22 22 23 29 30 33 37 30 33 33 35 35 27 32 31 27 15 16 23 18 14 24 22
25 24 21 19 20 23 24 23 25 26 25 28 27 25 26 17 11 19 15 20 23 25 24 21 25 39 42 40 40 27 28 26 34 25 32 34 35 29 25 22 24 19 13 24 26
24 25 21 20 20 22 24 21 21 25 31 30 26 36 33 32 28 23 20 22 23 28 24 23 38 38 33 36 35 39 31 32 27 25 31 33 37 29 29 27 25 24 19 24 27
24 25 22 20 20 20 19 19 18 21 34 40 34 34 32 38 36 29 27 25 25 26 29 34 41 29 30 29 30 35 41 37 28 30 28 27 31 30 27 25 28 26 23 27 30
23 23 23 20 20 17 16 17 19 13 19 27 26 28 32 40 41 34 26 28 29 29 23 29 33 33 30 36 34 38 42 42 29 30 24 26 6 28 28 34 33 31 30 31 33
21 23 23 18 20 16 14 14 14 6 6 9 11 16 15 31 38 32 38 36 29 27 26 36 29 34 38 39 40 42 34 43 35 25 25 17 13 25 15 26 33 30 29 36 38
18 21 21 18 15 15 13 13 9 6 8 8 11 10 15 19 24 31 22 30 28 26 30 33 20 24 35 37 40 36 36 45 38 28 12 22 23 9 19 25 25 29 27 34 36
18 18 15 16 16 15 15 11 7 10 8 9 15 16 18 21 22 32 23 33 27 21 27 31 34 38 31 28 39 35 35 13 11 10 4 29 17 4 10 23 21 22 27 33 35
19 15 18 19 20 18 13 10 12 12 19 16 11 14 20 20 23 29 13 28 33 25 10 20 17 33 38 39 41 47 49 6 5 5 7 30 10 7 23 15 20 19 19 28 28
20 18 21 22 20 23 12 17 12 11 21 23 18 16 19 21 9 21 24 27 30 33 20 10 20 23 34 39 36 36 34 48 10 17 11 9 9 14 18 21 21 22 20 20 19
21 21 21 21 24 21 18 28 22 20 23 11 11 9 10 14 17 19 15 10 24 29 29 22 10 13 23 20 37 37 39 20 6 7 7 11 23 10 23 20 20 20 20 17 21
21 23 25 17 21 23 32 33 30 34 29 15 16 12 11 13 18 20 13 17 13 23 34 31 21 9 18 23 36 28 27 14 5 7 5 5 4 18 19 18 15 18 17 17 23
23 24 21 20 23 28 33 31 30 29 13 19 15 19 14 15 17 16 23 11 12 25 27 29 10 7 17 23 29 40 29 11 4 3 5 7 5 18 17 12 9 12 13 15 22
24 22 17 20 23 28 27 30 34 29 22 13 19 13 12 10 14 21 14 12 12 18 9 10 10 4 1 25 33 27 29 19 9 1 3 3 8 14 13 11 9 8 11 13 17
26 20 22 23 24 27 23 29 32 26 21 17 16 10 12 13 17 7 18 11 16 14 15 15 13 13 10 8 34 25 27 21 10 2 2 2 18 16 13 10 8 7 6 4 7
30 25 22 19 17 25 26 25 18 10 10 14 19 19 16 15 14 20 11 14 12 15 19 8 9 7 6 15 22 28 31 27 24 17 4 8 6 10 11 13 10 6 7 8 5
30 28 17 22 20 14 17 27 29 30 16 20 22 16 16 18 16 19 10 17 15 15 15 12 11 12 12 11 11 15 23 28 25 22 18 15 10 11 8 14 15 11 10 12 12
30 28 29 17 13 16 23 24 23 23 18 28 24 14 19 18 7 14 12 17 6 15 20 16 5 10 6 7 8 3 17 19 21 24 25 26 20 10 12 12 15 16 15 13 14

GFSSW_700_spd_015.txt.gz
Wind_Speed
17 16 16 15 15 15 16 18 18 19 20 22 24 23 24 27 30 29 23 24 26 26 27 26 27 26 26 28 29 28 31 35 33 30 27 11 12 17 19 22 21 15 13 9 11
17 15 15 15 16 16 16 17 17 17 18 20 23 23 23 26 28 31 21 25 27 24 23 25 25 27 30 27 31 34 40 41 34 27 28 19 13 15 21 24 18 19 11 7 15
17 16 15 15 16 14 14 16 16 17 18 19 22 23 24 28 31 28 28 25 29 29 24 21 22 25 32 30 32 37 45 38 34 29 23 23 23 21 22 24 22 15 16 9 16
19 17 16 16 16 15 14 16 18 19 23 22 23 25 25 25 19 17 16 15 23 29 25 23 20 24 28 31 30 36 38 39 35 25 29 29 24 29 29 32 24 20 24 24 23
20 19 18 18 17 17 15 16 16 16 18 20 23 24 27 23 25 28 27 26 21 14 18 24 21 21 26 27 26 35 34 30 32 31 31 29 26 27 36 36 34 27 22 28 28
22 20 19 19 19 18 17 15 16 14 16 18 21 24 26 22 18 23 25 25 27 29 23 20 23 20 23 24 25 27 33 36 33 32 32 33 34 27 32 30 30 26 22 21 23
22 23 21 19 20 20 20 17 17 17 14 15 19 24 24 14 18 22 23 19 22 26 23 16 19 23 22 23 29 32 36 34 42 38 38 29 35 39 34 31 27 18 21 20 25
24 23 22 21 21 22 22 20 18 19 18 15 17 23 21 14 18 20 23 17 19 21 15 15 19 30 28 21 26 31 34 39 36 38 38 30 43 33 26 27 18 16 19 19 21
26 25 22 22 21 22 24 21 20 21 21 23 24 23 22 13 11 14 21 16 17 20 29 26 23 22 30 29 26 28 30 32 37 34 34 36 43 37 30 26 18 14 22 22 23
27 26 24 22 21 21 23 21 21 22 23 23 26 23 14 12 14 13 17 18 19 21 25 25 31 36 33 32 29 25 30 30 32 38 36 36 36 37 35 24 25 18 19 26 24
29 26 24 23 21 22 21 21 20 23 25 21 22 25 27 23 19 14 13 16 22 24 24 24 31 34 38 36 33 33 25 28 29 30 25 43 39 32 30 25 23 23 22 23 25
29 27 24 23 22 21 19 18 17 21 28 28 24 28 24 28 27 22 20 21 24 29 26 26 36 31 29 31 36 33 35 39 34 19 28 32 41 38 34 31 30 26 25 25 24
29 27 25 22 21 19 16 16 16 18 26 36 26 29 25 27 34 30 26 23 25 27 27 34 8 16 33 31 29 37 37 39 37 26 26 33 38 42 42 37 33 33 31 30 29
22 23 25 22 20 18 14 15 12 15 15 19 15 11 14 28 34 29 32 27 30 31 27 29 31 30 17 35 30 33 35 33 33 24 25 21 13 40 44 39 40 35 31 32 32
23 25 22 22 19 14 13 12 8 8 5 5 9 8 9 13 18 16 24 30 33 34 32 29 21 27 36 40 26 40 29 25 26 33 31 35 17 38 29 44 43 35 35 35 34
24 22 19 21 17 12 8 8 5 3 8 7 10 10 10 13 19 28 20 36 38 32 30 35 19 18 26 27 32 32 30 27 20 26 20 37 29 19 34 36 32 38 37 39 36
25 23 18 17 11 13 8 6 6 7 4 7 12 10 11 13 15 19 24 31 35 25 29 29 33 32 25 23 27 29 26 7 7 11 13 27 20 27 19 30 28 29 45 43 38
26 22 21 20 19 13 15 10 9 6 13 15 17 17 16 18 18 20 22 25 37 21 5 17 12 32 33 37 27 31 34 13 8 7 9 18 15 28 15 29 25 22 24 38 37
27 25 27 22 18 22 17 16 8 9 15 15 19 18 17 15 16 11 21 22 25 31 19 11 15 14 21 27 38 33 32 48 10 17 3 11 14 25 23 16 25 25 26 24 23
29 27 28 21 22 21 22 26 19 15 18 20 20 10 8 8 11 10 11 12 22 20 29 22 17 22 29 30 31 39 33 27 18 5 7 12 15 14 29 30 25 26 27 22 20
31 29 25 16 23 29 31 29 28 25 23 17 19 18 8 10 10 15 9 15 11 9 24 29 23 19 24 18 34 40 28 31 14 21 2 5 8 14 33 29 26 25 23 20 16
35 30 28 29 31 34 31 30 28 25 22 20 16 18 18 9 12 17 17 15 8 18 23 33 14 14 26 21 28 39 27 31 18 9 28 8 1 25 21 23 18 14 16 17 16
34 28 23 20 37 33 28 26 23 22 26 16 13 11 10 12 12 20 22 7 20 15 16 25 15 12 5 13 21 33 35 43 40 25 14 5 7 19 21 18 16 14 16 17 17
32 25 25 28 28 22 22 23 23 24 25 21 23 19 15 14 20 8 19 10 13 11 12 10 16 15 8 3 19 25 44 33 35 11 4 14 26 21 20 18 16 14 12 11 12
34 22 29 33 29 23 20 19 16 16 15 8 10 19 18 13 15 24 18 11 15 14 17 10 13 16 21 17 24 29 30 40 42 13 16 23 20 21 17 16 14 14 13 11 8
31 21 26 23 16 12 15 26 20 20 23 23 16 16 20 21 17 8 18 19 14 16 17 16 11 17 9 14 24 29 33 27 23 16 17 12 16 12 11 17 11 5 4 6 6
32 33 14 17 19 18 19 12 14 14 18 15 15 17 23 21 14 16 14 12 7 16 12 11 6 13 8 14 17 8 32 29 27 18 17 14 12 14 14 11 9 9 7 7 7

GFSSW_700_spd_018.txt.gz
Wind_Speed
16 16 18 18 17 15 15 15 16 17 19 20 20 21 22 24 26 23 21 19 19 21 21 23 25 28 29 29 28 32 34 40 38 33 26 23 13 9 12 19 17 18 14 10 11
17 17 17 17 17 17 16 16 17 17 18 18 20 22 23 25 27 28 18 24 23 21 22 20 24 27 31 31 31 35 43 47 40 35 30 24 24 13 11 18 22 19 23 16 15
20 18 16 16 17 18 18 15 15 15 16 18 19 22 22 22 25 27 21 22 24 23 24 23 22 27 30 31 35 40 48 43 42 35 30 30 31 25 19 21 23 23 19 17 12
22 20 18 17 17 18 19 17 15 15 16 19 22 24 23 21 15 16 13 12 15 21 22 22 23 25 29 32 34 41 44 42 40 37 33 33 30 30 29 25 24 27 23 20 20
23 21 20 18 18 19 20 19 17 15 15 16 18 19 19 22 24 24 25 22 19 13 10 15 23 25 28 28 29 40 41 40 39 38 36 29 37 34 34 28 24 27 29 25 27
25 24 22 20 19 20 21 20 19 16 15 14 15 14 14 20 18 22 21 23 20 20 22 21 17 23 27 28 29 33 37 39 37 39 38 38 37 39 40 30 31 32 35 32 29
28 26 24 22 20 20 21 21 20 19 18 19 15 8 8 4 16 22 20 18 20 20 19 20 19 24 24 23 26 35 38 35 40 38 36 29 44 49 40 38 37 36 33 27 31
29 28 26 23 21 21 21 21 21 21 21 21 21 17 12 12 16 19 16 18 20 19 17 16 20 27 30 25 20 27 34 36 36 33 36 30 59 42 39 38 39 35 32 28 29
30 30 29 25 22 22 21 20 21 23 23 23 25 21 17 16 12 16 16 18 19 16 18 18 21 26 29 25 27 26 26 26 32 31 33 36 56 42 37 37 40 35 27 26 27
31 30 29 27 24 22 21 20 21 23 26 25 28 22 11 12 12 12 14 17 18 20 23 28 26 26 26 29 32 27 31 33 33 16 30 39 50 42 40 36 38 30 24 23 30
31 29 26 28 25 23 20 20 21 24 26 24 22 19 21 22 19 14 15 15 20 25 26 31 37 39 39 35 33 35 27 32 28 16 30 30 41 43 41 40 39 38 32 28 27
28 28 27 25 26 24 22 20 17 24 24 23 24 24 23 26 25 16 20 18 21 29 26 28 33 32 29 31 38 35 37 40 32 26 25 29 43 35 43 44 38 32 31 29 30
30 29 25 27 26 26 20 18 18 21 23 28 22 27 24 27 27 21 21 20 25 26 29 34 26 19 29 32 31 37 42 38 34 29 31 32 42 40 39 42 43 36 33 28 34
30 27 28 26 29 23 20 16 16 17 13 15 10 8 5 20 23 22 27 25 28 28 27 28 30 19 16 27 32 35 32 32 31 21 16 5 18 30 31 44 42 38 40 35 35
31 30 31 30 26 21 13 14 16 9 3 5 7 6 3 7 8 8 8 27 32 30 28 27 24 31 37 36 26 29 26 25 19 19 23 35 23 35 30 36 43 45 43 40 39
34 32 30 30 23 18 16 15 12 6 7 8 8 6 7 8 10 10 11 22 26 35 35 38 26 25 30 26 36 22 17 18 15 16 13 40 23 32 41 39 35 36 43 41 40
35 34 32 25 20 20 19 17 10 8 6 8 7 6 8 12 13 13 14 26 29 25 31 32 36 22 22 20 22 31 23 4 6 8 10 9 23 43 16 34 26 30 41 40 43
37 33 32 26 26 26 19 21 10 6 10 9 6 11 14 14 16 14 18 24 28 32 12 23 12 36 35 35 25 31 31 10 6 3 6 26 15 23 29 45 36 33 37 40 47
31 39 37 26 29 31 34 23 9 12 10 8 6 10 11 8 10 11 19 25 26 27 23 10 14 16 29 26 28 22 30 36 12 18 9 17 15 36 36 27 33 33 39 42 46
27 39 36 30 27 32 30 25 16 16 14 9 11 9 8 7 11 10 12 7 18 23 29 14 8 13 19 19 25 34 25 15 20 6 5 5 11 23 25 30 26 33 34 30 37
32 38 41 33 27 35 37 33 23 25 20 12 12 9 12 11 13 10 9 8 8 12 20 30 24 13 23 32 31 30 38 21 21 19 3 4 11 23 23 33 25 31 31 26 26
22 33 48 38 40 41 40 32 23 19 16 16 12 14 16 12 14 14 18 12 9 16 21 24 16 22 38 33 27 40 45 43 17 13 25 13 13 19 19 32 29 24 22 22 24
36 31 27 42 39 38 36 29 28 24 20 12 12 9 6 12 10 12 15 13 17 14 10 20 16 12 10 22 27 27 41 43 33 24 18 7 11 22 23 29 23 19 23 23 23
31 21 29 42 33 38 28 28 26 20 16 17 18 12 15 19 18 9 6 6 13 17 15 19 21 21 16 4 19 31 40 43 43 29 24 26 26 15 23 25 22 20 18 20 19
37 31 39 46 41 31 25 18 16 16 11 12 10 16 22 20 21 22 17 16 15 19 24 15 21 24 31 34 20 29 36 41 39 33 22 29 18 23 21 20 19 18 19 19 18
31 32 36 12 28 25 20 22 21 14 13 16 18 13 15 29 20 4 9 15 22 22 25 25 25 22 13 7 20 29 27 36 38 31 36 41 27 16 19 19 20 19 17 15 13
25 30 23 22 24 20 23 16 2 5 14 10 16 9 21 24 20 16 13 13 18 20 22 20 17 17 9 11 16 12 27 34 35 37 40 37 16 20 20 21 17 11 11 10 8

GFSSW_700_spd_021.txt.gz
Wind_Speed
22 21 19 18 17 16 14 16 17 16 15 15 16 18 19 21 20 21 20 20 19 19 20 20 22 24 26 28 28 30 33 42 41 37 30 21 22 17 16 15 11 14 15 15 16
23 22 22 19 17 17 16 16 17 16 16 15 16 18 19 18 20 22 13 20 22 23 22 21 21 23 26 29 30 34 41 46 42 37 32 27 24 19 20 16 15 17 18 17 17
23 23 22 21 18 18 17 16 16 15 14 15 17 19 19 17 20 23 19 21 23 24 24 23 23 24 26 30 33 38 46 42 42 36 35 32 33 30 27 22 18 16 17 18 23
26 24 23 22 20 19 18 17 16 16 15 16 18 20 21 19 12 15 10 11 19 24 21 24 23 25 26 30 33 39 42 42 42 38 36 36 33 34 34 32 24 17 20 21 21
29 26 25 24 21 20 19 18 18 17 17 16 16 18 20 21 19 19 20 17 13 13 14 15 19 22 26 27 29 36 40 40 40 39 40 38 39 38 39 33 31 27 21 21 22
29 29 27 26 23 21 20 19 19 19 18 17 14 14 17 20 17 17 18 20 21 19 19 19 14 16 25 26 29 30 31 38 41 40 41 42 43 39 42 34 36 33 30 27 26
29 30 29 28 25 23 21 20 20 21 21 20 18 15 12 10 15 16 16 18 20 19 21 22 22 21 21 24 28 31 35 36 34 35 40 38 50 52 43 39 41 40 35 34 32
30 29 29 29 26 24 23 21 21 22 23 23 21 18 17 16 14 12 14 16 18 18 17 20 20 21 24 23 18 19 28 33 30 33 32 32 59 40 39 41 43 44 41 37 33
31 27 28 29 28 26 23 22 22 23 24 25 24 20 18 20 19 16 16 17 18 19 16 18 20 20 24 25 24 24 27 21 15 23 24 32 48 36 38 34 45 46 46 43 34
32 28 26 27 25 27 24 24 25 23 26 25 26 19 18 18 13 10 10 12 18 20 20 22 24 25 25 26 20 16 22 25 26 24 17 32 45 44 40 33 38 46 45 44 35
28 32 26 27 27 25 27 26 25 24 26 24 17 9 9 12 16 18 16 17 19 23 24 27 31 35 34 33 32 33 27 25 19 15 24 35 39 42 45 45 42 43 45 41 32
30 30 29 27 27 26 28 28 22 23 20 20 21 23 23 24 24 22 19 18 20 24 24 27 38 36 33 33 35 37 37 35 36 33 29 35 48 43 45 45 47 41 45 41 36
31 38 31 31 28 31 28 23 20 20 22 23 23 23 23 27 28 23 20 19 20 21 24 30 22 20 33 35 34 35 35 34 35 31 32 35 56 48 45 43 42 47 45 41 39
44 38 34 31 36 33 30 21 18 17 11 14 16 17 21 28 26 20 22 18 23 24 20 26 31 33 28 25 26 31 31 27 29 25 17 10 15 33 26 38 41 43 45 38 36
49 33 36 39 41 35 26 19 19 12 2 7 15 12 11 13 6 5 11 22 27 25 25 22 20 21 32 31 23 23 21 22 22 23 24 32 18 21 19 38 38 41 43 43 37
45 40 39 40 35 29 22 23 19 8 7 9 12 13 12 11 8 8 9 15 22 27 32 30 32 28 29 22 31 24 16 14 12 18 17 26 24 40 36 43 36 36 35 38 41
57 36 31 39 38 26 27 27 15 7 6 9 13 12 9 11 12 11 13 24 22 15 25 30 35 34 31 29 26 24 24 5 8 9 9 3 21 40 23 15 28 34 27 35 40
49 26 25 40 37 31 32 31 8 6 13 7 12 11 12 11 12 13 14 20 24 30 17 17 14 28 34 37 28 33 34 9 6 5 5 24 18 36 38 34 39 24 29 30 34
30 36 33 42 41 35 36 30 17 12 11 11 9 8 10 12 10 9 18 24 25 26 19 7 14 16 20 31 36 20 32 39 11 9 6 11 31 35 37 38 31 29 30 29 33
29 43 27 39 36 37 39 30 17 16 12 11 7 7 9 10 12 11 11 5 13 21 24 19 17 17 12 22 36 33 14 13 19 4 6 11 19 24 20 19 22 31 35 36 36
31 15 31 44 35 35 39 27 22 18 13 10 12 11 11 13 16 12 8 5 9 10 19 24 17 10 17 25 30 30 35 15 12 14 4 4 11 17 24 30 32 26 28 33 34
22 12 32 44 42 43 42 35 30 24 19 18 18 17 16 14 14 15 15 9 8 12 18 23 14 23 35 25 26 34 37 43 13 10 21 14 19 16 22 21 14 14 26 31 29
11 14 32 46 44 45 36 34 29 24 17 15 13 11 10 16 9 17 12 5 14 14 10 18 15 11 11 23 34 37 39 34 45 15 25 11 23 26 19 15 14 11 14 24 21
9 22 40 43 41 37 36 33 31 27 21 22 21 13 11 15 20 7 10 0 4 14 17 26 26 22 17 13 11 32 40 42 42 31 31 33 39 42 26 17 11 23 18 18 19
16 31 46 44 41 40 29 17 24 22 20 19 14 14 14 16 17 27 18 12 17 20 24 28 32 33 38 41 38 33 28 33 44 55 37 36 33 38 24 18 9 17 17 16 17
14 32 44 25 33 35 24 32 17 15 17 15 17 10 12 23 23 5 16 14 15 18 22 29 35 32 39 22 19 35 29 34 41 43 44 28 36 33 13 7 16 11 14 18 19
15 34 33 12 35 33 32 27 16 21 17 12 11 10 11 16 19 17 10 11 16 24 23 25 27 18 9 5 11 9 26 29 34 35 35 35 33 26 9 12 11 14 16 15 15

GFSSW_700_spd_024.txt.gz
Wind_Speed
23 23 21 19 20 19 19 18 18 16 14 13 14 17 17 14 16 18 17 16 20 19 20 21 23 24 26 26 25 26 28 35 37 35 33 25 21 20 20 18 14 12 10 10 12
26 24 22 20 19 18 19 18 17 18 15 14 13 16 17 16 17 17 8 15 19 21 22 21 22 21 23 26 26 29 34 37 38 35 34 29 26 19 22 22 18 16 13 12 12
28 25 24 23 21 18 18 18 18 17 15 12 12 14 16 15 17 18 16 18 20 22 23 22 22 22 23 26 28 32 37 35 36 34 33 34 32 29 27 29 18 17 15 15 15
27 28 25 24 23 20 18 18 19 17 15 13 13 13 16 15 11 13 10 13 18 22 20 20 22 23 24 26 27 32 34 35 37 37 36 36 35 34 36 33 28 22 20 17 14
26 25 24 25 24 22 20 19 19 19 17 15 14 13 14 16 16 22 16 11 7 9 13 18 21 23 25 25 28 29 31 34 37 38 38 38 40 39 41 36 36 32 29 25 20
26 26 25 24 25 24 22 21 20 20 19 17 15 13 12 14 16 18 19 20 17 17 15 17 18 17 21 22 26 28 27 30 34 37 39 41 42 41 44 38 38 37 33 32 28
29 27 25 24 24 24 24 22 21 21 21 20 18 17 14 10 11 13 16 18 17 17 17 16 17 20 20 21 24 27 29 29 33 33 33 35 47 49 44 41 41 40 40 35 33
30 24 26 23 24 24 25 23 22 23 23 22 20 20 17 14 11 10 13 15 16 16 17 18 21 22 24 23 19 14 19 23 21 22 29 30 48 32 21 34 42 39 42 42 40
36 29 26 24 26 28 24 24 23 25 23 23 21 20 19 19 18 19 17 17 17 18 18 19 22 23 24 24 21 21 22 17 19 11 15 23 35 34 33 35 37 38 43 45 45
45 29 27 28 24 26 23 22 25 26 25 23 21 18 20 13 14 15 16 18 20 20 20 21 22 23 22 23 13 15 20 20 20 16 20 28 37 38 39 38 37 41 40 48 47
42 47 27 27 28 27 29 27 25 28 26 21 9 6 11 11 14 16 14 15 16 20 21 23 26 29 27 25 26 25 19 22 24 20 25 30 39 41 40 39 46 47 41 44 48
37 51 44 35 30 31 32 32 31 23 19 19 20 22 23 21 20 20 20 20 21 21 22 25 33 30 28 28 25 28 31 33 35 31 32 41 53 47 45 44 46 47 46 46 43
31 44 50 38 31 36 30 23 26 23 22 23 22 21 21 23 26 24 21 21 20 20 21 26 23 9 20 31 29 31 33 34 37 32 34 39 60 51 46 45 42 45 45 45 45
23 37 36 40 34 37 34 29 22 18 11 12 17 21 26 27 27 24 22 19 21 20 17 21 26 29 29 27 23 36 33 30 27 21 14 7 15 37 34 31 31 40 41 43 43
23 33 36 35 36 41 34 28 17 14 2 8 16 17 17 23 16 7 15 21 23 21 20 19 18 13 25 31 28 27 24 20 15 19 23 29 17 24 19 33 37 36 31 37 40
26 29 46 40 29 34 37 22 18 10 6 8 11 13 13 16 14 10 12 15 18 22 27 29 28 29 26 21 19 23 17 15 14 17 15 27 21 39 31 40 44 36 27 31 34
29 31 49 30 30 37 41 32 17 7 7 9 13 16 16 16 14 11 11 20 17 13 24 28 32 34 32 29 26 21 16 4 8 9 8 4 21 44 23 15 18 12 18 29 29
15 23 48 20 32 43 42 35 7 12 14 10 13 15 15 11 12 12 14 21 22 27 19 12 11 19 29 34 28 28 32 10 4 4 4 14 12 28 41 43 41 35 26 20 28
12 20 51 17 32 44 42 35 17 12 26 13 17 15 12 10 9 10 18 24 21 29 18 7 9 11 14 10 22 19 29 32 19 18 6 11 27 35 35 34 32 32 29 26 26
9 15 47 20 36 42 40 24 23 14 13 17 14 9 8 8 10 10 10 6 13 21 22 13 15 18 22 17 20 34 16 11 21 4 4 10 20 26 12 20 21 22 19 23 23
5 19 30 23 31 44 39 27 26 20 14 17 11 9 8 7 12 11 9 8 7 9 11 24 18 10 11 21 29 31 35 18 12 10 4 4 10 15 11 6 19 23 24 22 27
5 13 22 25 41 44 31 32 23 22 20 13 7 10 11 9 11 18 19 11 5 7 13 19 12 19 31 28 23 26 36 42 20 6 13 11 31 20 18 17 26 11 11 18 23
6 18 14 30 34 42 33 32 28 23 19 12 9 6 8 10 9 15 16 10 13 18 5 11 12 10 7 12 27 29 40 40 37 21 28 9 18 16 20 19 22 30 9 9 16
19 6 41 40 13 38 38 33 29 25 18 14 12 14 13 13 18 10 14 9 6 3 14 19 23 26 22 31 25 24 36 41 41 28 41 45 35 45 35 38 31 33 9 3 13
25 8 35 47 21 33 33 20 28 23 25 18 13 14 13 12 16 22 24 14 12 15 19 22 32 35 46 49 38 38 31 25 43 53 27 40 39 44 37 32 32 14 6 3 5
13 12 28 13 29 29 30 30 19 26 21 19 17 12 9 20 17 9 10 20 19 14 15 24 37 36 48 40 22 38 39 36 31 41 54 50 47 33 30 32 20 7 5 8 7
13 17 33 10 38 34 34 28 19 16 13 15 13 9 12 12 10 14 18 14 14 12 21 28 29 20 20 24 11 3 13 28 30 33 34 40 28 32 31 26 21 12 5 18 16

GFSSW_700_spd_027.txt.gz
Wind_Speed
21 21 21 22 21 18 19 18 18 18 15 16 17 18 17 17 20 21 19 20 18 19 19 21 23 24 25 25 24 24 27 30 32 31 31 22 20 22 22 19 18 17 13 11 11
22 21 20 20 21 19 19 18 18 17 16 15 17 18 17 17 17 17 16 16 17 17 18 19 20 21 23 26 26 26 30 32 32 31 31 29 27 22 18 23 22 21 17 14 11
23 23 20 23 20 20 19 18 18 16 16 15 15 16 18 17 15 15 14 16 15 14 19 20 19 20 21 23 24 29 32 31 32 31 31 32 31 30 26 26 26 26 23 21 19
25 22 23 22 23 21 20 19 19 17 16 15 14 14 16 15 10 11 9 16 20 22 20 21 22 22 23 23 25 28 29 30 32 33 34 34 32 31 32 32 28 27 25 24 25
21 23 23 23 23 23 21 20 19 18 17 16 16 15 15 15 17 13 7 6 8 16 21 20 19 22 23 24 26 28 28 30 33 35 36 37 38 37 37 34 35 36 31 27 26
31 25 24 25 24 26 24 22 20 19 19 18 17 16 14 12 13 17 16 18 17 12 11 14 19 20 22 23 25 25 25 27 31 33 37 39 39 39 39 37 37 39 41 35 31
36 41 26 28 24 25 28 22 21 21 20 20 18 17 15 12 8 12 12 13 15 17 17 16 16 17 19 19 22 22 25 26 29 30 35 33 41 44 33 36 38 39 42 42 40
34 41 40 29 27 24 27 26 23 23 22 22 19 17 16 15 12 11 10 10 12 13 15 16 15 18 17 19 17 17 21 24 22 25 26 27 40 34 23 25 33 39 40 43 43
34 36 41 31 29 24 26 21 24 23 23 23 20 16 16 18 17 16 14 12 11 14 16 17 18 22 22 21 21 22 20 20 21 20 21 25 33 27 26 31 35 33 34 44 48
33 35 36 36 30 24 26 30 31 23 21 22 19 14 17 12 17 18 17 17 17 18 18 19 21 23 22 21 15 14 19 19 20 15 23 30 41 35 31 33 36 34 37 40 48
31 31 32 40 29 31 31 33 31 29 30 21 8 20 12 10 17 14 13 15 17 18 20 21 24 26 22 21 21 22 17 18 18 17 29 36 44 40 34 39 42 41 41 41 44
17 22 32 43 44 33 36 39 31 25 21 20 22 17 14 12 10 13 16 16 16 18 19 20 26 22 21 20 22 24 27 30 31 29 30 38 54 48 43 43 43 41 43 42 43
21 17 23 36 41 38 33 33 31 24 20 22 18 19 22 22 20 19 20 21 19 20 19 23 17 7 9 17 23 28 29 28 28 30 32 38 58 48 42 42 42 42 41 42 42
22 16 18 33 42 37 35 38 29 17 12 12 22 24 24 24 23 23 23 21 21 18 17 19 23 27 26 26 21 28 26 27 29 24 12 8 15 32 39 40 34 26 27 37 37
22 18 21 22 34 39 28 41 26 17 0 9 17 18 25 26 17 13 20 25 23 20 18 12 9 9 13 12 15 25 23 22 21 20 20 22 12 33 19 27 26 22 20 24 29
18 22 20 23 33 33 29 38 33 15 6 9 14 15 17 21 18 13 13 17 18 18 21 23 23 25 21 14 17 18 19 17 18 19 13 24 19 47 27 28 20 11 10 18 26
19 22 27 23 38 25 34 41 22 7 11 11 14 17 17 19 15 12 16 18 14 10 17 22 25 28 27 25 22 22 10 3 6 8 8 8 18 41 14 19 35 33 28 22 15
11 16 26 23 34 34 48 48 6 15 15 11 15 20 16 19 16 13 13 16 21 18 12 9 7 9 17 19 18 24 28 12 5 5 4 15 13 25 28 36 36 30 27 24 19
6 4 14 22 27 35 49 33 10 17 21 15 21 23 13 18 9 14 16 21 15 24 13 5 7 10 14 12 16 16 27 29 23 27 14 20 34 40 40 34 17 15 22 26 22
6 5 8 32 31 45 37 20 14 17 22 14 12 15 19 16 13 11 10 5 11 19 20 13 12 11 14 20 20 27 14 9 18 5 9 8 15 23 20 13 27 21 21 18 21
6 1 12 42 28 41 26 17 23 16 15 20 9 14 11 10 10 11 6 3 5 5 15 17 16 12 15 16 22 23 31 27 19 20 5 7 13 21 21 17 18 11 18 21 19
4 4 21 28 26 43 26 18 23 18 14 14 13 8 6 7 6 12 12 6 3 4 8 11 10 16 30 30 28 30 35 36 19 16 15 16 38 19 13 14 21 25 32 25 14
12 20 13 3 31 32 26 21 21 21 18 15 10 7 7 7 6 10 7 6 12 9 5 7 10 9 11 8 16 34 43 46 45 31 27 8 24 8 14 25 29 26 28 27 12
21 14 17 20 22 37 25 26 23 21 18 13 9 8 8 9 11 7 5 4 9 7 9 16 20 23 18 33 37 30 33 39 46 25 38 41 43 35 24 20 20 28 28 29 6
13 12 31 33 23 31 25 24 24 22 19 16 12 11 9 7 8 14 9 12 11 10 9 16 27 29 38 44 47 49 50 40 40 46 26 42 39 42 39 35 31 30 24 18 4
10 10 25 10 15 36 27 23 21 25 18 19 19 13 9 10 12 7 6 7 14 18 14 19 26 29 46 39 30 30 31 20 36 37 39 43 50 37 39 39 34 21 23 1 11
9 4 25 16 17 27 31 24 15 16 20 17 11 12 9 9 9 7 11 16 15 14 13 16 22 19 32 28 35 10 20 14 14 24 31 38 11 16 18 14 16 21 14 6 17

GFSSW_700_spd_030.txt.gz
Wind_Speed
19 19 19 21 20 21 20 19 17 17 17 18 17 17 18 20 24 25 18 20 20 20 23 27 26 24 25 25 25 25 20 25 26 23 21 26 26 25 24 23 25 22 21 20 19
21 19 19 20 23 19 21 20 18 18 17 17 17 16 17 18 21 23 18 19 18 18 23 25 23 23 25 26 26 27 22 25 22 24 25 23 25 23 22 25 25 25 23 23 22
29 24 20 20 21 23 22 22 20 19 18 17 17 17 17 17 18 20 16 16 17 17 22 24 23 21 23 26 27 28 26 23 30 30 31 31 30 29 28 27 27 25 27 27 25
32 31 26 22 22 22 25 22 21 20 18 18 17 15 15 16 12 18 19 19 21 21 20 25 21 20 21 23 26 27 28 31 29 30 32 30 30 31 33 32 25 33 33 32 29
30 34 31 26 23 22 26 24 22 21 20 19 18 17 15 16 19 11 10 19 25 24 23 21 21 21 20 21 24 24 26 28 30 30 31 33 35 35 36 33 35 35 36 36 35
33 32 32 32 27 24 22 29 24 22 21 20 19 18 16 16 16 18 20 13 13 17 25 26 24 20 20 24 24 23 24 27 31 32 34 35 37 37 34 31 37 37 40 39 38
34 34 34 40 35 28 25 25 24 24 22 22 21 19 17 16 13 16 19 22 22 15 14 17 18 20 20 22 24 23 24 26 28 29 33 33 39 42 32 33 37 38 41 43 44
34 33 34 37 41 32 28 23 26 26 23 23 21 20 18 19 16 14 13 17 20 20 17 17 17 17 19 18 15 13 16 13 20 22 25 28 30 20 21 26 34 38 40 43 46
36 34 31 35 38 41 32 25 28 24 26 25 23 20 19 20 18 16 14 14 16 17 17 16 16 19 18 16 12 13 12 13 14 16 17 24 21 23 25 27 34 33 32 40 45
32 35 28 32 35 38 33 29 26 25 22 24 23 17 17 20 19 20 19 17 16 16 16 17 19 20 21 18 10 9 15 14 15 10 20 26 32 33 33 33 34 35 36 39 38
27 22 17 28 31 28 34 27 40 30 30 26 11 24 11 21 12 18 21 18 18 18 19 19 19 21 18 19 18 16 12 14 15 18 26 34 39 36 36 38 38 39 40 39 40
23 18 17 18 28 30 39 33 46 38 23 23 22 10 22 12 16 18 17 19 20 19 18 18 19 15 17 18 19 18 20 23 23 20 22 29 50 42 43 43 41 39 39 41 40
19 18 20 18 24 40 43 29 31 28 19 19 19 25 16 17 14 15 18 18 16 17 15 16 12 8 12 16 17 19 21 20 22 21 25 31 50 28 18 27 27 28 30 37 41
22 15 15 19 20 41 37 30 37 27 17 15 24 21 26 25 21 21 19 18 19 15 15 14 20 21 19 17 17 20 16 17 17 15 12 5 17 29 23 25 29 23 18 22 22
25 19 16 18 20 25 35 36 35 30 7 12 22 23 26 26 16 24 24 22 19 18 16 9 7 7 15 12 11 14 14 11 12 17 21 24 13 25 10 19 23 26 19 24 24
30 35 20 23 23 21 28 29 44 16 7 15 22 24 27 30 23 15 22 23 20 18 21 17 19 17 14 11 11 11 12 14 15 14 12 28 25 39 27 20 13 10 16 16 19
35 18 17 23 20 22 42 33 27 7 12 15 21 23 21 29 22 20 18 22 13 12 17 14 20 23 20 20 19 18 13 4 5 8 8 6 16 39 22 19 20 30 28 25 24
15 9 10 22 18 33 33 30 6 11 13 14 23 23 17 19 18 16 16 19 20 13 5 5 5 12 14 18 7 15 20 11 6 6 8 3 16 17 15 14 18 26 31 28 28
12 6 4 13 27 31 37 33 9 22 19 23 25 24 18 22 17 19 17 14 14 22 10 6 6 11 9 7 13 12 23 21 26 33 21 24 35 41 37 32 28 27 20 15 22
11 2 7 15 25 33 38 15 12 24 21 24 13 14 14 27 15 18 14 7 16 16 19 8 7 11 18 19 22 22 10 9 17 6 11 18 24 24 18 12 11 15 21 19 21
19 9 10 18 33 27 26 9 22 20 21 13 12 15 14 23 13 14 7 4 8 11 17 17 12 5 12 15 15 17 31 25 21 17 7 14 18 12 15 15 22 26 24 19 20
5 7 15 27 30 27 24 20 22 25 19 15 11 13 14 13 12 10 9 9 9 10 15 14 9 13 22 19 20 19 23 27 23 16 22 33 39 21 14 15 17 18 20 28 28
22 25 19 25 15 29 22 22 22 21 20 13 11 10 10 11 6 9 6 13 12 10 5 16 10 6 7 3 9 20 23 32 43 35 31 14 27 4 14 18 24 26 31 29 25
16 18 15 7 16 33 21 25 20 16 13 12 10 7 8 7 8 5 7 7 8 12 12 10 14 17 15 23 25 31 38 36 33 32 41 42 56 39 29 26 22 22 27 32 35
18 13 9 14 23 24 20 22 18 17 13 12 8 4 3 3 6 10 11 9 8 11 14 14 19 21 30 33 35 37 38 38 39 46 33 50 34 35 26 27 28 29 28 26 21
12 5 8 17 21 26 18 18 16 14 14 9 7 7 9 7 8 3 7 6 5 14 18 20 20 21 37 25 22 32 33 19 18 23 29 36 41 20 27 27 28 27 25 18 16
3 4 10 11 11 21 23 18 10 13 16 11 9 9 10 5 7 7 12 13 12 13 15 21 16 15 14 25 35 8 15 23 19 21 18 23 15 15 17 15 19 16 11 17 19

GFSSW_700_spd_033.txt.gz
Wind_Speed
25 25 19 21 20 24 22 23 20 20 20 20 20 19 21 22 22 24 23 25 28 27 25 27 26 27 27 28 27 24 24 30 28 27 26 17 20 17 17 20 19 16 17 22 20
27 29 28 21 21 21 23 22 23 21 20 20 19 18 18 19 20 23 20 23 26 25 24 24 23 23 26 28 27 24 25 27 21 21 25 19 19 15 21 24 24 19 25 29 25
29 28 28 27 24 23 23 23 24 23 20 20 19 18 18 17 19 18 19 19 21 21 21 23 19 19 23 26 23 19 28 19 21 24 26 19 20 20 18 18 20 22 19 25 28
30 30 35 34 28 27 24 24 23 24 21 20 19 18 17 19 9 19 17 18 18 19 17 18 20 20 20 23 24 24 19 24 20 21 30 29 22 24 25 28 20 19 24 28 32
29 32 32 34 34 32 29 24 26 23 23 21 19 19 18 20 20 12 9 19 21 23 20 19 16 15 16 16 15 21 21 18 23 23 28 27 29 29 26 28 32 30 32 41 33
32 29 33 33 35 36 32 28 26 24 24 23 21 21 20 21 23 19 11 14 25 27 24 23 19 16 15 16 18 6 18 22 22 24 28 31 34 29 33 29 35 37 41 38 38
34 30 31 33 36 38 37 33 25 26 23 25 22 22 23 20 20 22 23 17 13 22 27 23 23 22 21 18 21 21 23 22 27 29 26 24 34 38 32 32 34 35 37 39 42
34 27 30 32 33 37 44 38 28 25 27 25 24 23 25 22 23 18 20 24 24 19 19 25 24 23 19 19 16 13 15 16 11 18 20 23 27 10 13 19 28 34 36 38 42
30 28 30 32 29 35 41 42 33 29 31 25 25 25 24 24 23 22 17 19 22 24 22 17 15 19 19 13 10 13 13 14 15 13 12 18 18 11 16 24 23 24 26 30 37
26 23 26 23 23 31 38 43 35 29 23 25 27 21 24 26 24 22 20 17 17 21 24 23 19 17 17 17 12 15 17 16 15 9 13 19 28 28 25 26 27 27 28 30 34
26 26 22 18 18 18 33 28 36 33 35 31 18 31 14 23 24 25 23 19 17 18 20 23 18 20 18 19 19 14 11 13 15 15 23 28 31 29 29 34 35 34 34 36 35
26 25 18 17 17 19 29 33 33 32 35 27 24 21 27 19 18 25 23 22 20 20 16 17 22 17 15 16 18 17 17 19 19 17 20 25 41 36 37 40 40 39 39 37 36
24 21 20 18 17 20 32 34 36 29 25 34 25 22 19 18 22 20 21 20 19 18 20 14 6 13 20 16 14 16 16 16 18 19 23 27 44 18 12 21 25 32 34 31 33
20 18 20 19 17 16 23 37 34 25 14 21 30 29 26 20 16 18 20 17 17 18 14 13 17 19 14 16 14 15 12 14 13 12 9 3 16 25 25 25 24 24 29 27 25
20 24 24 20 17 17 19 38 33 21 6 16 28 22 29 24 17 20 19 20 14 13 17 8 11 16 15 14 12 11 7 8 9 14 20 21 13 32 10 13 18 21 17 17 20
26 35 29 20 22 17 17 26 29 10 5 15 26 28 29 27 24 19 24 22 18 13 15 13 14 11 10 9 12 10 6 10 10 10 10 21 25 37 20 23 23 19 22 12 15
29 21 12 14 18 16 20 15 16 7 13 16 23 28 31 29 20 20 26 26 16 13 17 14 22 17 17 11 11 12 7 2 4 5 8 7 12 32 19 26 13 9 18 22 25
33 11 10 6 12 19 28 25 8 9 10 13 24 24 22 27 18 17 18 22 20 12 7 11 6 18 17 19 6 15 13 6 5 7 12 13 13 15 12 13 13 18 23 24 28
31 8 3 7 16 23 28 25 2 16 16 24 25 21 18 24 17 18 19 17 18 19 11 7 5 9 8 7 16 8 18 10 21 27 17 15 29 35 35 32 27 31 20 22 17
25 3 5 16 20 25 28 17 5 8 16 25 13 15 15 25 15 17 19 15 14 21 16 6 4 6 9 11 14 15 5 6 12 5 11 14 29 26 23 28 22 16 22 13 17
12 9 13 15 20 21 22 16 8 16 20 7 9 14 14 24 12 19 16 5 16 14 18 10 7 4 11 14 14 18 21 14 10 12 6 14 16 15 22 17 15 16 15 18 24
4 13 16 15 20 27 16 11 20 21 11 11 9 9 19 20 13 11 9 4 13 14 17 12 5 9 16 10 10 17 16 20 14 11 15 22 35 36 24 23 20 19 15 16 21
20 22 21 22 13 22 10 20 23 17 12 9 10 11 16 18 8 8 10 12 11 13 11 15 6 4 4 2 13 18 22 27 34 35 35 21 30 20 25 15 25 21 19 19 26
21 20 21 11 20 14 14 18 23 19 10 11 13 13 13 13 7 10 8 9 13 13 14 11 9 13 10 9 10 20 29 30 31 24 32 43 52 49 35 34 29 23 23 23 28
18 12 10 12 20 14 15 21 19 13 12 12 10 10 7 5 4 6 8 8 9 13 14 13 16 17 24 25 27 30 29 29 33 41 35 52 41 45 33 27 22 22 23 24 29
10 10 7 14 17 13 18 15 10 8 9 6 7 6 3 2 4 3 9 8 4 9 13 15 13 13 29 23 15 26 28 25 25 23 27 31 37 18 13 17 23 25 23 22 17
7 9 12 14 18 17 11 9 8 6 8 8 5 1 2 2 3 6 9 11 10 9 11 15 10 11 10 18 25 8 17 17 15 16 19 27 26 19 18 18 19 24 21 25 24

GFSSW_700_spd_036.txt.gz
Wind_Speed
25 23 25 29 24 25 20 22 23 23 23 21 21 21 21 23 23 26 25 23 26 25 24 25 26 25 24 23 23 22 26 28 28 25 25 18 20 21 25 20 16 20 23 18 15
25 26 24 26 30 26 26 21 23 22 23 22 21 20 20 21 23 25 20 24 23 22 22 22 23 24 26 23 26 29 33 32 21 18 21 22 26 22 18 21 25 13 18 28 22
24 25 27 27 25 29 25 27 23 23 23 21 21 20 19 20 22 18 21 21 19 19 18 20 21 20 23 21 24 28 35 23 25 18 26 24 21 20 20 23 20 23 19 23 28
29 26 26 27 29 29 32 30 27 24 22 21 20 20 19 19 10 15 16 16 14 16 16 19 22 21 21 22 19 24 17 24 23 17 25 32 30 23 23 27 22 18 22 21 29
35 32 29 29 29 32 32 32 29 24 26 23 20 20 20 21 20 15 9 18 21 21 18 16 17 19 18 13 16 21 20 21 20 27 25 30 36 39 34 27 30 29 32 28 28
41 39 32 29 30 31 33 34 34 28 26 24 21 22 21 22 23 20 13 9 21 23 19 18 13 14 13 13 15 10 21 23 20 23 34 34 35 32 34 31 33 35 38 41 40
32 31 28 25 30 33 33 36 36 31 29 22 24 22 25 20 21 20 18 15 18 24 21 19 20 19 21 18 18 25 21 19 26 31 30 26 35 37 31 29 33 33 35 40 44
28 23 24 25 28 31 32 36 38 35 28 24 23 22 28 24 22 19 18 20 12 20 26 22 18 27 21 20 15 17 18 20 19 17 21 22 39 27 8 16 25 33 35 37 39
32 27 20 23 23 24 29 32 38 38 28 28 24 22 24 25 25 21 16 20 24 15 19 22 25 24 22 20 14 14 13 15 11 13 14 21 27 13 7 23 24 22 25 31 37
29 25 22 20 25 18 15 24 33 43 29 29 25 21 27 24 25 21 20 17 20 24 21 20 22 20 19 18 12 9 18 13 15 9 14 18 28 27 25 23 25 28 28 28 32
25 22 23 20 18 15 15 17 25 27 32 39 26 29 16 29 20 22 20 20 16 18 22 21 20 22 22 19 17 11 12 13 10 10 18 25 34 34 32 33 34 36 36 34 33
22 20 21 17 17 15 16 14 21 28 30 37 23 22 24 12 22 23 23 20 20 20 16 23 25 20 11 11 14 17 16 18 19 18 22 29 39 36 34 33 32 33 35 34 34
19 20 16 17 17 15 14 17 23 34 8 33 26 26 22 22 19 21 25 24 21 21 20 14 9 17 19 15 19 16 14 14 18 22 24 24 38 11 7 13 16 19 23 26 29
20 16 19 20 21 10 12 13 35 17 6 26 28 20 19 21 14 17 24 18 20 21 18 15 14 11 10 19 13 8 9 12 13 11 6 7 12 34 25 25 26 31 29 29 30
17 19 23 31 27 13 4 9 34 15 5 26 32 17 21 21 19 20 22 17 16 16 20 10 14 16 15 13 12 11 12 12 10 11 18 16 11 30 25 30 27 22 21 24 22
16 21 32 18 20 12 16 11 19 8 4 16 32 27 30 17 17 23 28 22 19 12 17 12 9 10 13 12 15 10 10 11 9 9 7 14 22 29 10 5 10 5 12 19 24
21 29 21 13 5 16 18 16 10 4 21 18 31 30 31 25 19 27 30 26 15 14 17 17 18 14 13 10 9 12 5 2 3 4 7 6 15 29 14 19 22 26 15 15 27
31 23 8 3 9 16 19 18 6 3 6 16 31 30 26 26 18 22 24 24 18 11 5 12 5 19 14 21 8 12 11 4 5 3 4 11 12 11 11 8 14 21 22 22 30
21 11 3 8 15 18 22 22 3 13 19 25 30 28 24 23 16 21 21 22 21 20 9 8 5 6 8 7 16 8 16 3 6 13 8 11 18 28 15 14 20 21 24 29 29
12 5 7 9 17 26 23 13 8 16 18 30 17 16 20 27 16 20 18 13 16 23 16 6 3 8 8 9 16 11 7 6 8 3 6 8 20 20 18 14 16 15 18 20 29
7 10 12 12 15 24 12 12 6 20 22 5 11 13 16 29 11 20 14 3 19 17 20 8 7 6 13 13 17 21 19 9 7 8 4 5 5 7 17 26 19 20 19 22 26
10 18 15 14 16 12 12 17 2 14 13 11 9 15 21 25 13 13 12 2 14 11 21 14 5 9 17 6 4 15 16 17 8 6 12 17 27 23 7 8 18 26 24 24 25
16 19 13 6 12 14 20 10 16 14 10 9 10 9 25 18 14 7 13 13 20 16 14 18 8 3 1 3 13 16 21 24 27 31 29 14 18 23 35 48 43 34 27 24 30
15 15 11 9 10 7 20 17 16 19 17 15 19 21 19 12 10 12 11 11 13 20 15 10 9 9 5 8 3 13 16 21 27 22 30 44 58 57 53 48 40 33 27 29 30
13 9 6 11 8 4 10 17 18 12 17 18 13 13 14 6 10 9 7 8 12 15 15 13 11 14 19 20 20 23 24 22 29 35 36 50 48 50 45 26 24 27 28 21 33
5 9 12 14 7 4 19 14 11 12 11 11 14 12 11 7 5 9 10 8 4 7 12 14 9 11 23 11 7 20 22 24 26 19 25 30 39 33 34 27 14 12 19 23 23
8 8 14 14 12 9 5 8 6 7 6 11 8 6 4 4 3 3 5 9 8 7 7 8 5 9 7 9 14 8 5 10 13 14 19 25 31 30 29 21 26 29 23 23 25

GFSSW_700_spd_039.txt.gz
Wind_Speed
23 24 22 21 21 22 26 25 22 23 24 23 22 22 23 24 23 26 24 20 25 25 22 24 23 22 25 27 29 26 32 34 35 30 29 20 21 9 20 22 21 23 19 19 18
25 24 25 24 23 24 24 27 27 23 23 23 21 21 22 23 24 25 18 23 24 23 22 21 19 20 27 26 30 34 37 37 31 29 22 18 23 21 19 22 23 21 22 22 22
32 30 26 28 27 26 26 25 29 27 21 23 21 21 21 22 23 18 20 20 20 20 20 20 19 21 26 26 30 33 36 34 28 17 23 28 25 22 18 22 26 28 24 21 24
37 36 36 31 30 30 29 27 31 28 24 21 22 20 21 21 13 18 18 18 16 18 18 18 21 22 23 30 29 30 31 25 26 23 28 29 30 30 26 24 25 28 31 24 25
43 43 41 38 30 32 30 30 33 33 30 25 25 22 22 23 22 14 12 15 16 18 14 12 20 23 23 24 25 26 25 20 19 28 32 31 35 36 33 30 34 33 35 32 23
35 29 24 24 27 26 31 31 33 36 33 27 24 25 25 25 21 21 12 13 22 21 19 17 15 20 14 12 20 13 17 19 26 27 33 37 39 38 42 30 33 32 36 36 29
31 32 28 26 24 27 31 33 32 34 34 27 27 26 28 20 22 20 19 16 17 23 22 18 17 19 18 18 20 21 20 24 30 28 31 37 42 44 34 31 40 44 44 43 40
34 34 29 25 26 23 23 31 31 33 36 30 25 23 29 25 22 19 19 20 14 22 25 23 20 19 18 20 16 21 22 26 19 20 22 28 44 32 23 25 30 35 37 38 45
30 29 25 20 20 23 19 20 24 31 37 31 32 30 28 26 25 20 17 17 16 16 28 24 22 22 22 21 17 16 18 17 12 14 13 21 30 21 19 25 30 29 29 31 37
26 24 20 17 19 20 16 12 12 28 39 32 29 27 27 28 23 21 20 18 22 16 24 26 23 18 24 19 16 17 18 11 12 8 16 22 28 27 19 24 27 29 28 27 27
24 20 15 17 17 16 15 12 9 19 43 34 29 35 11 19 24 22 22 20 23 26 22 23 22 24 24 21 18 16 7 13 15 8 17 21 28 32 27 29 31 32 33 31 28
19 16 17 14 15 15 16 10 9 17 35 38 14 27 22 10 17 24 24 26 22 24 27 23 18 20 14 14 11 12 17 19 19 19 21 29 39 37 35 32 29 26 30 31 29
17 16 13 15 15 24 14 9 15 23 16 33 19 24 23 20 23 25 25 22 19 24 25 25 12 18 16 14 13 18 20 20 19 23 24 31 41 29 17 16 14 15 16 17 18
11 10 15 18 26 25 5 8 22 22 7 26 27 24 24 21 18 20 25 21 24 26 20 13 16 10 21 21 20 16 17 15 14 14 9 8 12 29 21 26 25 22 21 21 23
11 16 19 18 23 15 5 7 11 21 4 28 33 24 24 24 24 28 26 19 25 26 21 11 18 13 11 14 20 12 12 14 15 17 21 20 12 18 17 20 14 16 17 12 11
17 23 24 18 13 11 14 10 13 5 4 18 29 31 33 18 22 29 27 21 19 15 17 10 8 13 18 12 16 14 16 13 10 7 5 17 17 7 4 1 6 10 10 18 18
25 23 15 10 4 8 19 14 7 4 9 23 33 34 30 25 20 36 30 27 19 17 21 19 14 10 10 12 17 13 8 1 1 3 7 5 12 24 7 14 18 18 21 20 20
23 15 9 2 9 17 17 18 4 4 7 24 36 34 29 23 24 32 29 28 18 12 21 17 7 21 14 17 9 18 11 4 5 3 4 1 11 8 9 17 16 20 23 22 22
11 8 5 11 14 18 18 11 1 6 25 30 37 36 26 20 17 26 24 26 22 18 6 9 5 3 5 9 16 12 14 5 4 7 3 10 13 23 14 13 10 15 16 19 20
12 15 17 12 11 13 6 5 6 15 20 34 19 22 24 23 18 20 22 19 22 22 10 9 5 3 10 7 20 7 8 7 6 2 5 8 11 19 17 14 18 16 25 22 21
11 17 10 11 14 9 7 4 8 19 21 11 9 15 24 23 15 18 18 1 16 22 17 10 7 7 12 13 19 22 12 7 5 5 3 4 7 14 13 15 28 27 21 19 31
13 18 18 14 13 7 2 6 20 16 20 13 7 17 26 20 15 14 13 2 13 12 27 12 8 9 18 6 2 18 19 18 6 4 10 8 16 12 15 24 26 28 47 43 24
21 16 15 15 7 4 3 14 22 15 11 9 13 14 22 20 13 11 13 9 16 13 21 20 8 4 4 7 14 16 19 19 20 23 23 7 15 15 27 42 48 49 46 42 30
16 16 17 14 11 2 3 7 20 22 16 20 18 25 29 11 6 13 17 11 19 16 15 11 10 7 7 5 9 14 17 20 20 16 27 38 47 48 45 43 43 43 29 23 27
8 10 6 11 14 10 11 23 23 23 23 20 16 16 14 14 13 13 10 15 21 21 17 15 9 13 15 16 17 20 22 22 27 34 28 43 42 37 35 40 37 37 33 16 15
4 5 10 11 11 18 18 18 16 16 16 17 20 15 7 12 6 15 11 14 10 21 19 17 7 9 15 5 7 12 13 18 21 24 31 33 36 30 34 34 33 32 31 21 18
7 12 11 10 12 9 13 10 10 12 13 15 12 11 7 7 6 6 6 11 5 7 12 14 6 4 4 5 10 8 3 4 12 15 16 21 28 28 31 31 28 25 26 22 18

GFSSW_700_spd_042.txt.gz
Wind_Speed
30 29 29 28 29 28 28 29 32 29 24 23 24 25 26 25 26 29 28 21 25 23 22 26 27 27 30 32 32 30 34 36 37 34 33 20 23 21 11 11 25 26 24 22 17
34 34 32 32 32 32 31 30 32 33 30 21 22 23 25 25 26 29 20 24 25 25 23 23 24 28 32 31 32 35 40 40 36 35 26 24 25 27 18 15 23 26 23 26 24
40 38 40 36 36 34 35 33 32 34 32 26 20 22 24 25 26 21 24 24 23 22 22 23 24 28 30 30 35 37 40 39 34 34 26 30 26 28 18 20 25 26 24 27 23
41 38 38 33 36 37 35 36 33 34 34 32 22 26 25 24 16 21 23 21 21 21 24 24 27 29 30 33 33 35 37 36 29 31 28 26 29 32 26 23 27 29 29 24 23
30 29 30 26 27 23 28 33 34 32 35 29 25 24 25 26 22 11 16 20 20 21 21 23 27 25 29 31 30 36 34 34 31 29 27 33 34 34 37 27 28 33 35 35 34
31 32 34 32 28 26 25 28 32 31 37 36 30 22 28 29 19 21 11 17 18 20 20 23 21 21 22 23 29 24 32 27 29 29 32 35 39 39 42 33 30 34 36 37 39
30 30 28 26 26 28 24 30 29 31 33 37 29 27 32 21 20 20 20 14 22 22 21 19 18 24 19 17 19 25 15 20 25 28 33 31 44 49 40 36 39 35 39 39 39
30 26 24 21 22 19 18 21 21 24 31 38 34 24 33 21 24 23 25 22 18 24 21 19 20 22 19 15 16 20 19 23 25 21 22 25 48 41 34 36 38 42 46 46 45
28 23 22 17 16 16 16 16 16 16 27 36 39 24 27 24 27 22 21 21 20 20 25 24 24 24 20 23 15 16 18 19 19 17 24 28 36 29 22 29 34 33 36 42 45
23 20 15 12 14 14 13 12 11 10 24 38 34 27 26 28 21 23 20 23 22 19 27 26 27 28 26 24 16 16 21 21 19 16 14 24 30 26 25 27 29 29 30 33 36
18 13 10 12 11 13 15 15 13 10 26 39 33 24 10 19 25 27 24 22 23 21 31 26 27 20 27 27 18 14 12 11 14 14 22 25 31 33 30 32 29 27 27 26 26
16 11 11 9 12 15 20 20 9 5 26 33 26 24 11 26 27 28 29 28 30 24 22 27 23 22 10 12 12 14 19 18 18 19 22 29 36 34 30 30 30 27 31 32 32
9 8 8 11 16 16 16 8 8 10 15 34 17 25 23 22 25 34 31 27 25 29 27 19 18 19 16 14 15 15 15 17 20 22 26 32 42 36 29 26 26 16 19 23 24
10 9 14 19 20 19 14 6 8 13 9 22 17 25 25 21 23 27 27 24 25 23 23 19 13 20 15 18 16 17 17 18 22 21 11 11 11 30 22 20 21 18 20 18 20
15 18 20 21 24 19 2 3 12 19 5 21 23 24 23 25 28 29 27 22 23 27 19 12 22 16 20 24 18 16 17 13 14 16 21 24 12 11 14 13 14 10 9 8 8
24 24 23 15 9 5 6 9 11 5 2 16 28 35 28 20 32 32 26 22 19 23 19 12 15 16 15 15 16 17 17 14 15 15 5 10 13 6 1 7 10 12 14 16 16
24 11 10 8 8 4 16 11 6 2 10 20 31 37 30 26 26 34 28 25 18 20 17 12 11 13 13 16 14 18 11 2 3 2 6 7 7 13 5 11 15 15 14 13 18
15 8 6 4 4 17 17 9 2 6 5 23 38 36 29 23 31 33 27 28 19 15 24 15 8 16 13 16 11 18 12 4 5 2 5 6 7 2 4 12 16 18 19 19 19
17 13 13 13 14 11 9 5 4 10 17 36 41 29 27 21 24 29 28 28 22 18 9 16 6 7 10 14 13 13 11 9 3 4 3 7 10 16 16 12 13 13 14 17 17
15 15 17 14 13 6 4 4 13 13 25 40 16 20 23 21 25 22 24 24 22 18 9 11 7 6 9 9 15 8 10 6 6 1 4 7 9 16 5 13 18 20 23 26 32
15 22 17 15 9 6 8 6 14 26 25 18 11 20 22 23 20 20 21 7 27 22 10 13 5 12 12 11 20 20 10 7 4 4 3 4 8 8 13 17 20 27 30 29 30
21 25 19 13 6 8 10 11 15 19 19 15 8 25 24 21 17 16 17 3 17 18 19 13 7 7 16 6 7 21 19 16 5 3 5 3 16 3 12 16 35 37 37 41 45
24 17 11 6 9 9 15 16 17 17 12 12 10 17 22 19 14 10 14 6 17 14 22 16 6 5 3 12 17 15 24 24 19 17 18 4 12 14 25 34 31 35 36 36 34
17 13 14 11 15 13 17 22 21 17 11 11 17 15 25 15 8 16 17 12 18 13 15 11 10 5 5 3 6 14 15 19 20 14 14 26 40 31 34 31 34 38 36 33 32
7 9 10 9 18 24 24 22 21 20 21 22 23 25 17 13 12 17 18 15 18 15 15 16 7 12 13 11 10 13 13 16 25 30 26 37 39 31 30 32 37 36 31 31 27
3 8 9 12 19 16 17 16 17 16 15 18 18 12 9 15 5 19 16 17 14 21 19 16 6 7 10 10 15 21 23 23 24 28 35 30 29 23 27 30 33 29 26 25 21
8 11 10 14 17 14 12 12 13 16 13 14 10 8 10 8 9 9 9 15 6 13 19 15 7 4 2 1 9 12 6 8 8 12 16 20 23 25 24 27 29 30 23 20 18

GFSSW_700_spd_045.txt.gz
Wind_Speed
36 36 38 38 37 36 36 36 35 35 35 34 23 25 26 27 27 30 32 21 25 26 29 30 32 32 34 33 32 31 35 37 35 34 32 25 23 23 24 19 16 23 23 24 21
43 41 43 43 43 40 41 38 37 37 36 36 33 25 25 27 28 33 20 23 26 27 28 28 29 32 35 34 34 35 41 39 35 34 30 28 30 26 24 19 17 19 22 27 27
47 44 34 31 27 26 33 38 38 36 36 38 33 23 27 26 29 27 25 26 26 27 26 26 29 32 35 35 38 40 43 38 35 34 33 33 25 30 29 26 19 19 24 27 27
39 29 30 33 32 31 30 25 35 37 32 36 33 25 29 24 18 20 25 24 25 26 27 30 31 33 35 37 37 37 39 36 35 34 29 33 30 33 32 29 25 23 24 27 25
31 31 30 30 31 32 35 28 27 31 30 35 36 38 22 28 24 10 15 23 24 26 29 29 31 32 31 34 34 38 34 33 32 30 32 36 32 32 37 35 29 29 28 30 32
29 31 28 24 28 24 26 27 28 26 26 32 37 37 28 33 17 22 11 20 24 26 27 30 31 27 26 28 33 30 34 32 30 30 31 32 33 36 37 36 33 35 32 34 35
27 27 24 22 21 21 20 18 23 22 19 29 35 39 26 25 21 24 19 16 22 24 23 25 24 27 22 26 22 31 16 29 31 27 30 30 40 44 37 33 37 39 39 36 37
22 23 21 19 17 16 13 12 14 17 15 26 40 30 29 21 20 22 23 20 24 25 20 19 22 24 20 15 14 16 27 19 21 27 28 27 47 37 35 34 38 41 44 42 40
21 21 15 14 11 12 11 11 14 15 12 21 41 33 26 28 22 24 29 21 21 25 25 25 23 23 20 16 14 17 12 23 21 21 23 27 35 31 25 29 32 33 40 48 49
20 16 13 10 11 9 11 10 9 10 9 21 41 25 26 27 21 23 25 28 20 25 27 26 25 27 27 25 19 15 19 19 21 16 19 24 29 31 28 28 29 29 35 40 44
19 14 11 10 10 11 16 17 19 11 12 22 36 28 19 21 21 25 24 27 26 22 30 29 26 33 29 22 21 15 14 13 14 17 24 30 31 29 27 33 33 31 29 30 33
17 14 13 12 12 17 20 20 14 5 10 24 22 37 19 25 29 27 27 29 28 26 28 27 27 18 22 27 24 16 13 12 11 17 21 28 34 32 30 33 30 28 27 28 28
17 13 13 14 14 17 16 17 5 3 5 29 23 28 22 29 25 36 29 28 27 25 26 27 17 19 19 19 24 12 11 11 16 20 23 28 35 28 23 26 27 23 22 23 29
21 16 17 18 22 24 21 8 6 6 12 26 23 20 28 27 24 31 29 25 28 22 20 16 18 12 12 14 14 12 11 14 17 18 9 12 10 28 22 18 21 17 15 13 15
20 22 21 20 23 16 6 2 9 14 5 19 16 24 25 25 29 32 32 27 26 26 22 11 14 17 15 17 14 13 14 14 14 13 17 18 9 11 13 11 9 4 2 7 9
24 16 9 11 6 4 3 7 20 3 4 12 18 19 37 16 35 36 28 23 17 18 16 13 15 15 13 16 17 18 16 12 14 14 4 4 8 8 3 11 2 4 9 11 13
22 16 8 4 6 6 11 10 3 2 13 8 19 36 27 31 25 32 29 24 17 21 17 13 16 17 14 14 14 15 12 2 3 2 5 2 4 8 6 4 8 13 14 15 17
25 19 13 14 17 17 10 4 2 5 6 13 25 27 26 29 27 27 27 25 18 13 21 14 7 13 12 17 13 15 13 4 4 1 4 5 7 1 11 6 12 16 17 17 21
22 19 19 20 22 16 1 4 7 10 13 25 31 24 27 25 20 26 24 24 19 17 10 13 5 11 6 11 15 12 11 11 0 1 2 5 7 10 14 10 7 12 14 15 16
19 18 19 18 22 15 8 5 11 9 26 38 15 15 20 24 22 23 22 21 20 16 16 10 7 6 14 12 15 9 10 6 6 2 3 4 9 9 3 5 13 17 23 27 30
23 25 20 15 15 16 16 14 21 28 34 15 13 20 23 23 18 22 22 10 20 17 10 15 5 12 13 12 18 15 13 8 6 3 3 3 6 3 4 10 18 32 30 32 35
18 13 10 11 15 19 23 20 26 23 18 14 10 24 22 21 19 20 20 5 28 21 13 13 6 9 12 9 10 20 15 13 4 4 3 1 9 2 1 20 34 29 30 34 36
12 12 13 13 18 18 16 18 20 17 15 10 10 17 15 13 14 18 17 7 22 25 14 11 5 6 4 10 13 16 23 20 16 7 7 3 6 2 23 32 22 26 31 33 31
9 6 15 13 19 22 19 17 15 12 12 10 13 16 16 13 5 17 15 12 10 24 16 9 7 4 5 1 4 13 19 20 22 8 8 24 31 24 28 26 23 24 32 32 31
6 7 5 12 18 17 17 13 15 14 10 12 13 15 19 10 9 13 16 15 15 14 19 15 5 10 12 9 8 8 10 14 24 28 17 26 31 24 22 24 27 33 34 30 26
7 1 8 14 16 16 14 14 14 15 15 19 21 16 14 11 8 14 18 17 12 15 18 15 6 4 7 9 14 18 18 18 18 21 29 27 26 18 23 26 24 27 30 28 25
10 7 12 14 12 14 13 11 12 12 13 14 10 6 7 8 5 9 11 13 5 13 18 15 7 3 2 3 7 12 12 19 16 15 16 20 16 20 23 20 20 27 28 24 24

GFSSW_700_spd_048.txt.gz
Wind_Speed
44 45 45 44 44 44 43 42 43 41 39 38 39 26 27 26 29 31 35 27 24 26 29 31 33 34 34 34 34 33 35 38 38 34 31 30 25 22 24 24 22 19 20 18 16
47 46 43 39 31 29 30 28 36 44 38 37 41 37 26 24 27 34 28 23 25 28 30 33 34 35 36 35 35 35 40 41 36 31 31 30 29 21 24 26 23 18 21 22 21
39 35 36 33 29 30 32 32 33 27 41 33 39 39 31 21 29 30 23 26 27 29 29 28 29 32 36 36 38 39 42 38 32 28 33 34 29 25 28 25 24 20 22 22 20
35 34 31 31 30 28 31 32 37 30 29 33 36 38 41 38 26 13 24 26 28 28 29 30 33 35 36 38 39 38 39 35 30 32 35 35 34 31 28 27 28 26 22 21 21
37 32 29 27 26 25 24 25 24 28 27 23 29 40 38 26 34 10 15 25 28 29 31 32 34 36 36 36 35 37 37 35 32 34 37 36 35 29 31 29 31 31 27 23 23
29 23 22 23 23 21 20 21 20 20 22 21 24 39 37 36 20 25 11 24 28 29 31 31 33 32 28 30 33 29 35 34 31 35 36 35 34 33 35 27 31 34 31 26 26
26 23 20 22 19 18 16 15 17 15 16 15 19 39 42 25 19 21 20 19 27 27 30 30 28 27 25 27 24 29 22 28 34 31 30 31 36 39 32 30 30 32 38 34 31
28 22 21 18 17 12 13 13 13 13 13 12 16 35 42 38 19 24 25 19 25 25 25 24 27 25 21 18 17 21 26 19 22 30 30 27 39 25 23 30 29 31 36 41 38
27 26 22 18 12 11 10 11 13 13 9 13 16 38 33 36 25 29 27 20 26 26 25 23 22 27 22 19 16 18 11 28 25 20 20 30 37 29 25 30 31 31 32 39 43
27 28 20 15 12 10 11 14 13 17 9 11 17 32 20 35 27 23 26 23 29 30 27 30 27 28 27 23 19 17 16 13 20 19 25 28 35 35 28 27 28 29 28 30 38
27 21 19 14 13 12 15 20 15 16 10 10 15 31 20 21 28 25 29 23 29 31 32 35 32 35 31 25 16 12 12 12 13 17 23 28 32 32 26 29 30 29 26 26 27
27 22 19 15 12 11 16 19 17 8 6 13 19 29 15 20 23 32 30 27 24 24 29 26 29 26 25 23 20 13 12 12 10 14 19 25 33 31 28 30 29 29 26 23 25
31 23 20 15 14 15 19 20 15 6 1 17 27 26 14 23 24 32 28 22 26 20 23 14 7 19 21 24 23 18 16 12 12 14 19 25 30 21 19 22 22 19 18 19 23
31 24 17 17 18 17 16 10 3 2 7 18 25 26 19 15 28 31 26 22 22 20 14 10 14 11 19 23 26 23 14 10 11 11 7 10 9 21 15 8 11 15 17 11 12
28 21 13 9 16 11 5 4 7 9 5 16 18 22 23 19 24 31 28 16 24 20 17 9 15 10 19 16 13 8 10 7 10 11 12 9 4 9 10 8 5 3 6 12 11
27 25 19 11 8 4 4 7 13 2 2 9 18 20 24 13 35 34 25 17 20 18 13 11 16 10 12 12 15 8 8 8 12 10 2 2 6 4 6 11 11 7 2 7 11
29 29 21 17 16 16 19 13 2 5 12 8 15 29 23 30 29 31 21 20 12 14 11 12 12 9 9 11 10 12 10 2 3 1 3 4 5 6 7 5 2 5 11 12 14
28 26 27 29 25 14 11 10 9 4 2 12 21 27 29 25 28 25 21 21 13 11 19 12 6 13 10 12 10 13 10 5 4 1 2 6 8 4 7 6 5 10 12 16 17
23 18 25 18 15 13 14 12 9 7 10 27 33 35 26 22 25 25 22 22 12 15 5 8 5 14 8 12 11 10 10 11 1 2 2 4 6 8 5 6 5 10 14 19 24
21 18 23 17 17 15 15 16 13 20 39 16 11 17 21 15 21 15 18 18 13 13 11 9 7 11 11 10 12 9 7 6 7 1 2 5 7 6 8 4 8 20 24 24 26
16 16 16 17 16 19 23 23 24 28 18 10 12 20 23 20 18 19 17 13 21 15 10 7 5 10 14 12 14 13 11 6 5 2 2 2 2 4 7 5 15 26 26 25 28
16 14 15 15 15 16 17 23 23 17 13 12 9 19 22 19 21 21 19 4 21 13 10 12 5 7 10 7 9 13 13 13 4 4 3 1 4 5 8 10 30 27 24 24 27
14 13 10 5 10 14 17 20 19 14 11 8 8 11 11 16 11 18 15 14 17 19 10 10 3 7 5 9 14 15 18 16 12 4 6 4 2 1 8 26 19 23 23 28 31
11 6 10 12 14 14 11 9 12 11 8 6 9 9 12 10 4 20 15 14 8 21 16 9 6 4 6 0 3 10 15 20 20 8 8 18 17 15 14 17 19 23 25 30 32
10 6 4 6 9 9 7 7 8 8 8 6 12 11 13 8 4 11 13 15 9 23 19 12 4 8 10 9 9 7 8 18 25 24 14 14 20 14 18 21 25 26 26 31 29
9 6 3 6 7 8 11 7 4 7 11 10 12 11 12 6 5 5 11 14 10 15 16 13 7 4 5 8 12 16 15 14 15 19 24 20 17 11 18 22 23 23 27 31 26
7 7 7 9 9 8 7 8 9 12 14 13 11 9 8 6 6 8 12 9 4 9 16 12 9 4 2 4 7 13 11 19 20 16 13 17 11 15 19 18 20 22 25 26 26

GFSSW_700_spd_051.txt.gz
Wind_Speed
43 43 46 45 41 36 33 31 28 32 41 38 36 39 35 29 36 29 37 32 24 24 26 32 35 35 34 34 35 35 33 36 40 37 33 29 25 23 23 24 23 22 20 20 17
44 43 38 36 32 27 30 26 25 22 24 34 37 40 43 38 28 37 27 25 24 26 29 34 37 38 37 35 35 36 40 40 36 34 29 28 28 22 20 22 23 22 21 21 22
40 37 34 31 28 26 26 24 24 28 29 34 25 35 44 35 30 38 19 24 26 29 31 29 32 36 37 36 37 39 42 38 34 30 27 30 29 24 23 23 22 21 22 24 22
34 33 26 27 26 23 21 22 22 25 29 31 29 28 44 48 27 20 25 23 27 32 30 30 33 37 38 38 38 37 40 37 33 28 29 32 31 28 25 22 24 24 25 24 27
32 29 25 26 21 20 19 18 20 21 22 23 25 24 40 43 49 7 14 26 31 33 32 33 34 38 39 40 37 38 36 35 30 33 32 34 35 31 29 26 25 25 27 28 25
28 29 30 25 22 21 15 16 18 17 18 18 19 21 31 43 52 35 16 25 31 32 32 30 34 35 34 32 36 31 37 31 30 32 33 36 35 32 31 25 27 30 27 28 28
30 31 29 25 22 16 11 11 14 13 13 13 15 17 28 44 32 30 30 25 32 30 31 28 28 33 31 29 26 31 20 29 32 32 31 35 37 39 28 30 29 29 30 30 31
32 30 29 25 20 14 9 9 12 11 11 12 12 15 28 40 31 21 32 20 31 28 28 28 25 24 22 18 20 21 23 22 26 31 33 29 32 14 13 28 28 26 30 32 34
31 30 23 22 17 11 9 8 11 14 12 12 13 15 20 38 27 23 29 19 28 30 27 30 26 25 22 21 17 22 17 29 22 19 18 27 32 29 28 28 25 25 28 32 34
29 25 24 18 13 10 8 9 15 16 17 13 12 13 21 34 32 17 28 19 28 29 30 31 28 28 27 27 23 22 19 13 24 26 24 24 27 26 24 25 23 22 22 28 32
30 28 22 17 12 12 8 11 17 14 7 11 7 12 18 28 31 21 29 20 31 32 37 34 34 40 36 29 8 19 16 20 14 19 16 21 25 27 24 25 25 24 22 21 22
28 25 21 15 11 9 11 15 19 12 7 11 11 24 23 21 25 28 28 22 35 34 27 36 37 31 30 23 21 14 15 12 11 12 16 21 26 24 21 23 23 24 22 22 21
27 24 19 11 10 8 13 21 14 8 2 10 17 28 18 18 25 33 24 15 33 22 22 32 29 26 27 28 22 16 13 12 9 8 13 20 21 13 11 11 16 19 17 19 22
29 25 18 10 8 9 11 7 5 6 8 8 13 12 14 16 25 25 26 13 17 13 15 11 16 21 29 28 24 18 15 13 9 4 4 7 6 6 9 9 9 13 14 14 14
35 29 22 18 11 2 3 6 11 7 5 10 22 11 17 17 24 32 27 11 12 14 8 10 19 8 14 27 25 16 18 11 6 3 5 4 3 2 6 9 7 5 7 13 16
34 34 29 23 20 15 11 11 5 5 4 5 16 12 10 15 31 32 25 14 14 13 12 14 11 7 16 13 22 15 14 8 4 3 1 4 9 2 8 12 12 9 6 4 7
30 28 27 23 24 23 14 9 5 9 7 8 13 10 18 26 26 29 18 19 11 13 17 20 18 11 12 21 16 15 12 1 2 2 3 5 6 4 9 9 10 8 5 6 7
26 28 23 14 23 18 15 14 13 6 9 7 14 28 21 29 29 23 19 19 8 11 17 7 7 12 8 8 6 13 9 3 3 3 2 7 7 5 9 10 7 5 5 10 14
26 26 25 20 16 17 18 16 8 7 19 13 28 27 25 21 17 16 12 15 9 10 6 7 8 13 16 11 10 12 8 9 4 1 2 4 4 7 9 11 4 5 9 14 20
24 21 21 17 11 14 23 21 19 22 26 13 10 15 18 17 13 11 14 14 11 12 6 9 8 10 8 10 10 6 10 5 6 3 3 4 5 6 14 9 3 11 18 21 22
20 17 16 16 11 17 25 26 22 19 20 7 12 21 17 24 11 16 8 13 13 12 13 6 3 8 10 9 12 12 11 6 7 3 2 2 2 8 12 3 12 18 20 23 24
16 12 13 12 8 16 20 23 16 13 10 10 11 19 17 21 17 13 11 4 19 11 8 8 6 7 10 7 10 13 12 11 4 5 4 1 3 8 11 5 22 22 21 22 25
14 12 15 7 7 15 14 14 11 10 5 6 10 14 11 13 10 14 12 5 15 15 8 10 6 8 5 7 12 12 17 15 13 6 7 4 2 8 0 14 15 19 20 20 23
10 8 10 6 9 8 11 9 8 6 5 5 12 10 13 12 8 18 14 13 9 17 12 10 6 3 6 1 3 9 14 17 19 12 7 14 6 7 8 13 14 17 17 20 25
7 6 5 2 4 1 2 6 8 6 5 7 10 10 10 8 5 12 16 14 8 19 18 11 5 6 6 6 5 5 6 15 25 25 10 5 11 5 8 14 18 20 21 22 23
9 4 5 2 4 3 2 1 3 6 8 9 8 9 9 5 3 4 17 14 12 15 22 16 5 5 5 8 10 14 14 14 13 20 22 20 9 5 11 13 14 18 20 21 23
8 7 7 6 4 7 5 1 4 4 4 6 9 7 7 6 5 3 10 8 3 7 17 16 12 4 2 4 7 13 13 20 19 15 9 13 7 10 10 10 12 15 18 20 23

GFSSW_700_spd_054.txt.gz
Wind_Speed
40 40 40 41 39 36 34 31 30 26 23 21 35 37 40 41 35 27 34 35 25 25 26 33 35 34 34 36 39 40 27 32 32 30 24 28 24 24 24 23 21 22 22 22 19
40 38 36 34 30 31 26 22 25 23 24 20 21 31 37 45 43 47 42 24 25 26 25 34 35 31 35 36 38 38 31 30 25 27 29 29 25 24 23 22 23 24 23 24 24
38 35 34 30 25 26 25 23 22 19 22 25 25 24 28 42 47 36 29 25 26 29 32 30 33 32 37 38 40 39 31 28 32 32 27 27 24 24 22 20 21 24 25 26 26
33 28 28 29 29 29 23 19 18 18 19 22 22 25 28 32 34 44 33 27 27 33 32 33 33 35 34 40 40 37 39 31 32 30 28 28 26 25 24 20 22 23 24 26 27
26 27 30 31 29 24 21 19 15 14 14 18 22 25 23 27 40 23 29 32 34 36 36 35 35 38 34 37 40 41 28 37 32 32 28 28 28 27 27 26 24 23 25 25 27
27 29 30 28 25 20 16 14 11 8 10 15 19 22 24 26 43 23 18 35 34 38 36 33 36 35 29 26 35 35 29 30 34 28 32 31 30 31 31 27 27 26 23 26 28
25 27 28 26 20 18 12 10 7 5 7 10 13 19 23 20 36 45 28 22 34 35 34 33 31 33 28 24 32 17 24 31 27 31 33 31 33 39 30 26 28 27 27 29 30
27 29 29 24 19 16 9 9 6 5 9 10 12 14 22 16 32 55 49 19 28 33 29 27 27 28 20 21 22 26 18 17 30 32 32 29 25 19 21 30 29 29 30 30 30
30 30 27 21 15 10 7 8 6 10 14 13 11 14 16 17 35 30 45 22 26 31 28 27 27 28 27 21 16 22 17 26 15 24 28 32 20 24 24 17 20 25 28 29 29
28 27 27 19 12 7 5 7 8 12 14 14 13 9 10 20 29 28 26 31 31 32 32 32 33 29 25 26 28 27 24 19 21 20 22 24 24 25 22 22 24 26 26 26 28
31 29 24 16 10 5 6 7 10 17 11 7 5 10 12 33 22 30 29 30 26 34 37 38 26 39 31 28 11 16 22 13 15 24 23 23 22 25 21 22 23 24 24 24 26
37 28 22 13 4 4 4 10 14 13 8 6 8 15 17 23 27 23 34 24 37 40 36 35 33 26 23 24 15 14 16 15 16 15 19 14 19 16 17 21 25 24 22 22 24
37 33 24 13 5 3 9 14 10 1 2 6 13 18 19 16 19 28 29 14 36 38 38 36 29 24 26 23 20 13 16 16 10 14 13 13 11 13 17 20 22 20 19 21 23
29 39 30 22 6 6 9 10 10 10 7 5 22 14 20 13 15 25 22 31 25 30 41 18 29 25 24 24 20 17 17 14 12 8 5 4 4 8 10 12 12 13 16 18 19
31 33 30 35 19 14 14 12 15 5 4 3 4 7 14 16 17 27 23 10 20 23 14 13 29 28 26 27 22 14 17 13 10 7 3 6 6 6 12 12 10 10 12 15 16
32 30 26 27 21 14 13 12 10 5 8 7 11 18 19 19 23 21 10 11 13 14 18 13 20 31 31 35 28 18 18 11 7 4 4 9 8 9 13 14 14 12 10 10 13
30 30 24 20 18 22 21 17 13 9 8 6 12 20 24 19 17 19 16 13 10 13 17 19 14 9 20 21 28 22 18 6 3 4 2 8 7 2 16 18 17 13 9 7 7
27 27 23 18 18 21 19 18 15 9 9 7 21 19 21 22 16 20 17 12 9 10 18 5 8 10 18 20 16 22 10 3 4 4 3 7 6 4 17 17 14 10 7 7 9
24 22 21 17 16 13 12 15 5 10 8 18 15 18 13 17 14 12 19 16 12 14 4 6 6 10 9 8 20 16 8 7 5 2 1 5 5 8 15 18 12 6 6 11 15
19 17 21 17 13 16 18 15 13 19 25 11 6 9 10 18 15 6 8 11 10 10 5 9 9 11 12 11 10 11 12 5 5 4 4 5 4 6 21 20 11 6 10 16 19
16 14 16 14 7 14 26 18 23 16 12 2 5 12 14 17 14 7 7 12 10 12 7 11 5 10 12 9 12 12 12 6 7 3 2 1 3 9 18 16 8 8 15 18 20
12 12 17 9 6 9 15 16 17 7 5 6 6 13 18 15 13 9 8 6 12 11 8 7 6 7 9 9 12 15 12 11 4 4 4 0 2 11 17 8 10 16 20 19 22
9 10 12 8 3 7 11 11 9 6 4 6 9 8 14 17 6 9 10 5 15 12 9 9 7 9 6 7 13 15 18 17 13 5 6 3 4 11 11 9 16 19 21 21 19
7 5 5 5 3 8 8 8 4 6 5 3 11 8 11 12 9 12 11 10 11 12 9 10 8 3 4 2 5 11 16 20 18 7 6 8 6 12 5 9 12 17 17 17 19
7 6 3 1 2 6 7 7 7 4 3 6 8 8 10 9 9 9 14 14 10 12 13 9 6 5 3 3 2 2 6 16 22 22 9 6 13 9 7 10 14 13 15 15 18
7 8 6 5 3 4 4 5 9 8 6 8 5 9 10 4 3 6 15 14 11 11 17 15 4 5 4 7 9 13 13 13 14 21 26 20 13 5 7 13 12 12 13 15 18
6 8 10 8 8 7 6 3 4 7 8 8 7 9 10 6 5 2 10 8 8 10 14 16 11 4 3 5 6 12 17 21 19 14 13 14 2 9 9 10 9 10 10 13 15

GFSSW_700_spd_057.txt.gz
Wind_Speed
32 31 31 32 32 34 35 30 26 20 23 28 26 24 41 44 44 34 40 35 28 28 26 31 32 34 32 34 36 38 29 35 34 31 26 19 20 18 19 17 19 12 17 17 17
30 33 31 28 27 29 30 29 27 27 27 24 24 25 28 40 44 46 36 34 22 28 27 31 33 32 32 33 36 37 33 35 26 25 25 21 21 17 23 25 19 21 24 23 19
30 27 24 25 28 29 28 28 27 26 27 25 26 26 24 24 41 51 45 27 26 22 28 28 30 29 30 34 30 37 33 29 22 26 26 22 21 16 19 17 19 17 16 27 25
30 23 25 27 27 27 26 26 22 20 20 19 18 25 24 21 16 18 43 38 30 27 31 31 31 32 29 35 37 23 32 19 27 30 31 28 16 20 18 15 16 20 27 23 27
26 22 25 26 27 26 23 20 16 14 14 14 15 18 24 24 24 13 27 31 34 34 35 35 32 36 28 26 25 32 15 26 20 34 29 23 20 19 18 19 26 26 23 23 27
25 25 28 30 27 25 20 15 10 9 8 9 11 16 20 26 20 25 20 40 35 32 35 34 35 34 25 17 26 21 20 19 22 26 28 26 20 23 26 18 26 26 23 26 28
27 28 32 30 25 21 16 11 8 6 4 6 8 12 19 22 21 28 30 42 41 32 35 35 26 32 21 23 26 12 25 14 23 25 27 26 27 30 27 21 28 27 25 27 29
29 30 29 27 22 17 13 9 8 4 4 9 12 13 20 18 23 35 38 31 40 39 35 31 26 28 20 24 20 20 16 26 21 25 27 27 24 19 25 29 29 25 26 29 31
35 36 27 24 16 10 6 9 7 6 7 10 11 14 16 14 25 34 37 23 29 31 33 30 29 31 24 22 16 25 21 25 16 25 23 29 16 20 21 19 22 27 30 30 29
39 36 26 17 8 5 5 6 8 9 11 10 13 12 9 8 18 39 36 23 24 34 33 33 31 35 27 26 27 29 31 23 27 18 27 26 22 15 19 21 22 19 20 25 30
39 38 27 15 6 2 4 7 8 11 11 8 7 10 6 13 25 31 39 28 19 32 38 33 31 39 38 34 24 20 25 20 20 20 17 24 19 22 20 23 23 25 23 23 27
35 39 34 17 10 5 3 7 14 15 9 8 11 11 10 15 33 38 35 31 24 33 29 28 41 30 25 25 21 12 22 21 14 23 21 14 19 19 19 20 22 25 25 25 28
36 35 35 20 15 12 12 11 6 5 5 2 7 12 17 30 11 25 34 33 31 33 34 33 19 35 26 26 21 16 18 21 9 18 13 11 15 15 21 21 25 26 24 26 27
34 35 28 23 18 14 15 19 14 10 7 4 6 3 16 12 18 30 35 26 30 34 29 20 11 29 17 25 21 18 15 16 12 13 9 13 4 13 16 19 21 20 21 24 25
31 33 25 21 15 16 20 17 10 7 1 7 3 19 9 10 24 26 21 22 36 42 30 21 28 25 27 19 19 13 17 13 11 9 4 9 7 10 13 13 14 15 17 19 20
26 24 23 21 21 16 13 6 6 5 7 10 11 17 19 14 18 19 13 21 30 32 32 18 24 24 23 25 22 16 18 12 10 4 6 12 12 13 17 15 12 13 14 15 17
23 21 18 18 13 13 12 9 10 8 10 16 14 23 18 17 18 18 23 22 21 13 17 18 24 26 30 29 21 18 20 6 4 4 3 9 8 3 13 16 13 13 14 13 12
20 23 19 16 8 10 11 15 12 10 18 15 18 18 20 11 8 12 16 19 13 12 11 6 8 24 29 34 23 23 22 5 6 6 6 6 8 5 16 16 17 15 14 12 11
18 17 19 16 4 7 11 12 4 8 13 15 15 12 12 7 12 10 12 10 9 17 5 5 6 10 17 27 25 22 11 8 2 4 3 8 6 8 18 17 16 16 14 13 13
15 15 15 11 7 1 11 12 9 15 14 10 5 6 3 7 7 7 6 9 13 11 8 7 8 7 11 13 8 13 15 4 3 5 5 7 6 4 21 23 17 10 11 12 14
14 12 14 8 4 6 12 16 16 11 5 6 3 4 5 9 6 5 3 10 10 10 7 10 4 8 10 5 6 10 8 7 5 2 3 4 4 8 16 22 16 12 10 12 16
12 10 11 6 0 3 7 14 9 7 4 2 5 5 6 7 7 2 4 4 12 9 6 5 6 9 6 11 13 12 9 11 4 4 3 3 3 8 18 19 18 11 14 17 19
10 8 8 4 2 5 9 10 5 4 3 4 3 4 9 7 3 5 5 3 11 11 6 7 4 7 2 8 14 15 14 10 11 5 5 3 5 14 16 15 13 13 16 19 21
8 5 5 3 1 6 8 6 3 1 3 1 7 3 6 6 5 6 6 8 9 13 8 7 5 3 1 3 5 13 18 18 16 5 4 7 6 14 12 5 7 13 17 19 18
8 5 6 6 3 7 7 7 8 5 2 1 3 4 3 2 3 3 7 9 7 10 10 9 6 6 4 2 2 5 10 18 25 20 9 2 9 13 7 7 14 14 15 13 13
8 7 8 7 5 5 7 7 9 10 7 5 2 5 7 2 3 4 6 7 6 10 12 11 4 7 5 7 9 11 12 12 16 22 20 13 11 12 13 15 14 13 11 10 12
9 8 10 8 9 5 7 7 6 10 10 11 10 7 7 8 6 4 9 8 7 6 7 10 11 5 4 5 6 11 17 21 18 16 19 17 14 8 11 13 12 10 8 10 12

GFSSW_700_spd_060.txt.gz
Wind_Speed
29 31 29 31 31 30 29 26 25 24 21 23 23 28 25 31 40 42 42 38 33 22 26 28 30 31 32 35 34 34 23 31 30 25 23 13 21 20 19 21 13 17 16 11 11
33 31 30 30 28 25 28 27 26 24 23 24 28 25 29 27 30 44 46 40 29 27 23 28 31 30 30 34 35 37 38 34 27 24 24 21 13 18 23 24 18 17 21 17 14
31 28 27 26 26 28 27 27 26 25 25 24 26 29 31 29 31 43 46 39 30 26 24 26 28 29 29 29 32 37 36 42 27 20 24 25 14 26 15 17 20 17 21 24 21
30 26 25 26 29 28 28 26 24 21 20 17 17 22 29 31 14 14 32 35 27 27 26 28 29 31 30 32 35 32 36 21 21 23 30 27 21 20 16 16 14 21 23 24 25
30 27 28 30 32 30 27 24 20 17 13 11 11 16 20 28 25 10 18 30 26 34 28 29 30 31 31 32 28 31 15 24 14 27 31 29 30 24 18 21 18 25 24 25 20
30 34 32 34 34 27 22 17 14 9 6 6 8 10 14 24 15 17 19 26 42 37 29 32 30 29 28 13 25 24 23 13 21 25 28 33 36 24 23 19 25 26 27 25 23
36 40 35 29 23 19 18 13 10 5 4 4 5 6 13 16 8 17 23 25 41 36 32 30 26 30 22 21 21 8 24 21 21 21 27 27 30 32 28 25 25 26 29 26 23
34 39 33 26 19 16 10 8 6 6 4 4 7 10 13 7 18 21 27 26 40 35 35 29 24 29 17 24 22 23 19 21 23 19 19 23 26 27 29 29 28 25 25 24 24
37 41 32 24 16 8 5 0 4 7 5 7 9 11 12 8 16 21 28 30 42 34 31 31 29 30 25 21 18 27 13 25 21 28 22 24 18 15 16 23 28 29 26 25 26
39 39 30 23 16 10 5 2 4 7 9 12 9 10 13 7 14 21 29 34 35 30 32 33 34 31 33 23 24 26 25 23 28 27 32 29 29 6 20 23 22 20 25 29 30
38 33 30 23 17 12 8 7 5 9 11 9 9 9 13 9 14 22 32 39 33 36 30 37 35 42 46 39 25 18 26 20 22 18 28 31 25 24 15 20 22 22 25 24 24
37 35 27 22 18 16 12 9 10 13 12 10 9 10 14 8 15 18 26 32 38 45 38 35 42 36 34 26 21 15 20 25 14 25 20 15 24 26 19 24 27 25 27 25 24
31 32 27 23 19 17 17 19 15 9 5 7 4 6 7 8 12 22 16 20 15 46 41 36 29 30 30 24 24 20 17 24 21 15 18 15 18 23 29 30 28 26 26 26 28
26 26 24 22 20 17 16 15 13 10 6 10 8 3 11 16 9 21 14 17 19 37 29 21 13 32 32 31 26 22 14 17 17 14 9 22 5 17 24 26 27 27 27 28 30
23 20 21 18 17 15 12 10 11 7 2 6 11 24 14 5 25 17 21 17 27 31 24 12 15 34 27 30 23 16 19 15 14 12 3 13 7 10 20 23 23 24 24 26 27
21 23 17 14 14 16 15 12 9 6 6 10 6 5 15 15 12 19 19 14 24 23 17 16 14 12 34 28 27 18 21 14 10 8 4 16 16 17 23 21 20 21 20 20 21
19 21 20 14 12 16 14 9 8 8 7 13 14 23 26 23 15 9 16 23 16 19 15 17 19 20 20 19 19 25 24 7 4 4 3 11 14 11 12 15 21 18 16 15 15
17 18 19 11 10 16 9 16 11 9 15 18 21 22 23 20 20 18 24 22 16 16 16 13 7 21 21 27 23 24 24 6 5 4 4 10 6 4 18 21 20 19 16 14 15
13 14 18 13 7 12 13 12 4 8 14 13 9 13 8 7 12 22 22 18 12 18 5 7 3 20 22 25 25 25 24 12 1 1 5 9 7 13 19 24 20 17 16 16 15
11 12 15 12 9 7 7 10 10 11 10 13 7 8 10 10 10 9 6 9 12 8 5 10 9 12 20 28 26 24 22 8 4 3 3 8 9 11 26 25 20 18 17 18 16
12 9 12 10 6 5 3 5 7 7 8 7 10 9 11 7 11 9 4 10 10 10 12 8 5 5 15 7 17 24 18 8 6 4 1 4 4 10 14 25 21 17 19 13 12
11 6 8 6 4 5 6 4 6 7 7 8 9 7 5 5 7 7 8 7 13 12 6 6 8 7 6 8 8 12 9 19 3 4 5 1 2 7 10 22 23 19 15 14 14
8 6 4 4 2 5 4 2 4 7 7 5 4 4 10 5 4 6 4 8 11 9 7 5 6 7 3 5 15 17 17 16 18 8 6 0 2 9 13 20 19 14 13 14 16
7 4 4 1 1 4 1 1 3 3 6 4 4 5 5 2 4 2 2 5 8 8 6 6 7 4 4 3 5 15 22 20 17 10 4 5 10 18 21 18 10 13 13 13 14
7 5 6 4 5 4 6 3 3 4 2 4 2 3 3 1 1 1 5 5 6 7 9 6 4 6 5 3 3 6 13 22 25 20 8 4 6 14 12 9 13 12 12 12 13
9 7 9 8 5 3 1 0 6 6 6 3 2 3 5 3 6 3 3 2 3 7 9 10 4 7 6 7 8 10 10 13 19 23 23 12 14 16 16 17 14 12 12 11 11
11 9 9 8 10 3 7 8 6 9 7 10 7 4 3 6 4 4 7 10 7 5 8 7 8 4 3 4 6 11 15 20 18 17 22 27 20 14 17 18 16 13 11 10 11

GFSSW_700_spd_063.txt.gz
Wind_Speed
31 31 30 28 26 22 24 22 24 22 20 18 17 18 25 27 25 38 41 35 31 25 23 27 26 28 31 36 43 43 29 28 37 25 26 17 6 20 18 23 14 14 12 10 13
32 32 31 25 26 25 24 26 24 23 21 19 18 21 24 27 30 34 38 39 32 27 20 26 28 31 32 33 35 42 42 41 39 34 26 17 12 18 22 23 16 12 17 13 14
31 31 31 28 27 29 28 27 24 22 20 20 18 19 24 27 32 37 23 36 37 30 25 22 25 30 31 33 33 37 47 43 30 26 28 27 8 15 21 23 26 16 17 19 16
34 33 33 32 32 32 31 27 24 20 17 18 17 15 18 26 23 22 25 34 39 30 29 27 30 33 33 34 34 38 38 33 34 25 31 26 17 17 12 15 20 22 17 18 20
35 35 39 29 28 25 25 19 15 12 12 10 8 9 14 20 26 17 19 17 32 35 33 32 32 35 35 34 31 37 28 37 21 32 26 28 26 20 23 12 15 14 19 20 20
38 38 41 30 23 18 13 12 9 6 4 3 2 4 8 14 15 27 23 26 38 35 34 33 31 32 32 22 29 35 24 20 20 23 24 33 37 27 25 21 22 18 18 19 22
39 38 36 30 22 16 12 8 4 3 2 2 0 4 6 3 9 19 24 26 42 37 32 33 27 34 26 16 24 10 26 14 32 20 21 30 33 40 30 29 26 28 24 25 26
38 34 33 27 22 17 13 8 3 5 4 1 4 5 2 5 15 15 19 27 39 39 38 29 28 29 22 22 23 15 17 24 34 23 22 28 37 39 36 31 27 30 31 31 29
35 31 29 27 21 15 10 7 5 3 2 4 8 9 4 9 12 17 20 21 31 40 36 31 31 33 22 24 22 26 18 29 28 25 27 29 33 22 26 33 30 29 26 25 25
32 31 27 26 21 14 8 5 1 4 6 10 11 7 2 6 9 17 21 26 30 33 34 35 32 33 29 25 32 36 27 31 32 29 30 31 30 9 22 25 28 30 29 27 26
28 28 26 23 24 21 12 4 3 6 9 9 10 10 10 4 8 15 21 26 28 38 37 42 39 43 47 34 21 24 27 25 29 22 26 30 35 27 19 20 23 26 23 22 26
24 22 21 20 20 18 21 20 13 3 2 3 7 8 10 4 6 15 19 32 29 34 28 42 45 39 40 31 21 18 19 23 18 24 22 25 35 33 26 27 26 24 21 24 26
23 22 19 17 17 17 21 18 13 8 5 4 4 1 1 2 8 15 18 31 27 20 32 44 31 35 37 34 26 24 19 17 23 18 26 19 22 27 26 27 30 29 30 30 30
22 24 21 19 18 18 17 19 12 7 8 15 10 5 6 11 7 14 19 28 29 18 34 25 14 31 31 35 27 22 17 13 20 22 16 18 7 22 27 29 30 31 28 26 30
21 23 24 20 18 22 20 15 11 8 3 8 10 17 10 3 19 5 16 22 29 27 25 16 18 29 30 32 27 20 13 8 20 17 12 15 11 24 12 25 31 32 32 32 33
20 21 22 19 18 22 20 16 8 9 6 7 3 12 18 14 6 17 14 19 33 28 23 19 24 25 28 33 25 12 17 16 13 8 2 14 21 11 24 28 20 26 27 30 30
16 19 21 19 18 20 20 12 12 10 10 24 20 18 14 13 12 15 20 29 19 22 21 23 24 25 28 31 26 24 26 5 1 2 5 14 18 22 11 18 23 23 22 23 24
13 15 18 18 13 14 14 12 14 14 16 21 24 21 19 14 14 15 20 16 21 13 17 8 7 15 15 31 23 27 24 9 6 4 4 9 14 14 21 18 17 20 20 18 20
11 11 14 14 12 10 8 11 6 8 10 10 15 5 11 18 24 21 14 16 20 12 9 11 6 17 16 26 28 33 24 13 2 3 4 10 8 5 16 19 21 20 14 17 18
9 8 12 13 10 10 8 12 12 12 11 11 8 7 9 7 8 7 8 8 15 12 10 12 7 12 16 21 31 29 27 9 7 3 4 7 8 11 26 26 25 22 20 18 16
7 5 9 11 9 9 12 14 13 10 8 9 11 8 8 10 6 5 4 10 9 10 9 13 5 11 20 18 28 25 26 16 9 4 4 4 6 17 20 25 28 24 22 20 18
8 4 4 7 6 7 8 8 10 10 11 11 9 7 4 7 6 5 5 6 12 14 8 4 10 7 10 9 24 29 24 22 10 5 5 2 2 10 17 23 24 22 20 16 14
9 5 2 2 6 7 5 7 9 9 8 6 9 11 9 5 3 5 6 16 16 12 9 8 9 9 5 4 9 23 29 33 16 7 6 3 2 5 10 22 23 21 18 16 13
9 3 3 3 4 4 3 3 4 5 6 9 9 13 7 7 3 6 6 11 10 8 8 6 10 5 9 5 12 18 22 18 20 16 13 10 7 9 11 20 23 18 16 13 12
12 3 5 4 3 4 3 1 3 2 3 6 7 12 8 4 4 3 4 7 9 9 9 8 7 7 4 4 7 10 21 28 26 22 15 12 12 12 13 12 14 15 12 11 12
12 7 6 6 5 6 3 3 4 4 4 5 5 6 9 6 4 5 1 4 6 9 11 11 6 8 7 6 6 8 10 22 28 27 25 13 15 14 18 18 16 14 12 13 12
14 9 6 5 9 7 8 9 8 6 7 9 6 6 9 7 6 5 3 3 4 6 9 8 9 6 3 4 6 12 17 20 19 23 28 29 18 21 23 21 21 18 15 14 11

GFSSW_700_spd_066.txt.gz
Wind_Speed
31 33 32 32 28 27 28 26 23 20 17 15 16 19 20 21 23 34 38 36 31 30 30 31 31 35 38 43 42 42 46 41 34 33 30 20 12 18 18 21 21 15 13 13 16
35 36 32 33 32 30 29 28 27 24 20 16 15 17 21 19 28 36 31 31 34 31 24 30 31 33 37 38 43 41 40 48 44 37 16 23 13 15 18 24 23 18 14 14 17
34 32 33 35 28 26 28 26 23 19 21 18 15 14 20 24 25 33 25 24 35 30 24 24 28 30 33 35 42 42 46 31 39 39 35 27 15 7 8 25 25 24 19 14 15
33 33 34 32 30 22 21 18 19 18 15 15 13 12 16 22 14 13 24 27 33 33 31 25 30 33 32 35 39 38 42 43 34 32 27 30 15 18 5 17 20 22 22 17 14
33 32 34 30 26 19 15 11 9 6 6 8 5 7 10 17 20 10 21 34 31 41 39 30 33 34 35 35 35 41 37 36 29 36 42 22 23 16 11 14 18 23 25 21 19
30 29 32 29 23 17 13 8 7 3 1 2 1 1 3 7 13 25 22 22 27 43 39 35 33 33 34 35 37 35 23 26 29 27 26 32 25 16 16 14 17 15 25 26 20
28 27 29 27 21 17 14 8 2 2 4 4 3 3 2 3 7 22 18 20 35 47 39 34 29 37 31 28 33 8 30 20 35 26 24 18 25 27 27 23 18 16 15 18 21
26 24 25 27 20 16 12 8 6 5 5 2 4 3 3 6 8 11 24 23 35 44 36 31 28 34 25 16 29 16 33 25 27 31 26 26 33 34 29 29 26 27 24 24 25
25 24 21 24 22 14 9 4 3 2 2 3 5 8 4 6 7 12 14 28 33 40 39 38 32 40 30 23 29 22 24 33 28 37 29 33 33 39 34 37 32 27 30 30 28
25 25 22 21 19 20 10 5 5 6 8 9 8 2 3 3 7 14 15 23 29 37 41 40 34 41 34 32 36 41 30 38 33 42 33 34 34 30 35 41 43 37 33 30 30
24 25 24 21 19 15 18 11 5 6 9 8 8 7 8 2 6 14 16 21 28 33 37 45 38 51 45 39 20 35 30 33 29 35 37 36 33 22 19 24 30 40 36 32 31
23 25 25 23 22 17 13 9 8 4 3 6 7 6 4 4 6 10 15 23 24 22 34 33 46 44 36 35 13 25 28 26 31 20 26 29 31 30 25 25 22 22 27 28 29
23 24 25 23 22 20 14 8 5 4 3 3 6 0 4 5 8 11 11 21 24 28 30 31 34 42 37 31 22 23 28 23 21 22 23 22 28 30 36 34 37 29 24 26 27
20 24 24 22 21 22 15 10 6 3 5 12 7 4 4 6 8 13 12 18 21 24 21 19 20 36 35 33 24 21 18 16 22 16 22 21 7 31 34 38 38 33 30 31 35
18 19 23 20 19 19 17 14 10 8 2 8 11 7 7 1 10 12 11 19 19 26 17 15 25 34 30 34 27 18 17 10 13 19 19 20 11 23 16 29 37 32 30 30 31
17 16 19 19 17 19 16 16 8 7 6 10 11 13 5 26 11 16 16 20 19 15 15 24 23 25 26 31 29 19 14 10 10 18 8 21 22 12 27 35 24 28 32 34 34
15 15 16 16 14 16 12 9 6 9 3 7 11 9 8 6 9 11 16 23 16 17 24 23 26 19 25 27 29 20 20 5 3 5 5 19 15 34 12 20 29 25 27 29 32
13 13 12 14 12 11 9 7 10 9 12 13 15 15 11 15 12 18 15 18 23 17 28 12 11 24 26 32 24 25 25 7 5 3 4 9 15 30 20 21 18 19 25 26 27
12 11 10 11 8 5 7 5 7 9 7 5 8 12 12 8 13 9 12 21 19 31 9 13 10 25 20 32 27 31 29 15 2 2 1 12 25 28 21 23 24 19 20 21 20
11 9 6 7 2 4 5 5 8 10 9 9 8 8 11 12 7 6 5 12 11 15 9 11 10 20 15 24 31 28 31 12 7 3 4 6 16 19 19 25 26 27 25 21 17
11 8 6 5 4 6 7 9 7 10 7 7 10 10 14 7 8 5 5 10 11 10 14 11 9 15 18 22 28 26 33 14 12 5 4 2 7 15 23 20 20 23 21 18 16
11 5 6 3 4 11 7 8 7 7 9 10 11 8 5 8 7 6 10 7 9 12 15 7 10 13 15 16 22 27 31 32 13 7 6 2 6 7 11 19 20 20 20 18 17
10 6 5 2 6 10 9 6 8 5 5 10 7 7 6 5 4 6 9 16 15 9 9 11 10 9 7 14 17 30 28 37 30 16 15 6 4 3 6 17 24 22 21 18 16
11 4 4 4 7 6 6 4 4 4 2 5 8 8 7 4 4 6 11 16 15 10 8 6 14 4 7 5 18 28 37 33 35 24 18 19 15 13 11 11 23 24 19 15 14
14 2 5 4 6 7 6 6 5 3 4 7 7 9 6 4 5 6 9 12 12 11 9 8 7 8 4 4 9 18 25 38 40 41 21 30 30 23 16 10 14 18 17 16 16
14 7 4 5 9 10 9 8 8 8 6 6 8 10 7 7 5 4 5 9 9 13 12 12 6 9 9 7 7 10 14 23 30 32 34 21 21 21 14 12 15 17 15 12 12
16 10 4 5 11 12 11 13 10 10 10 9 9 10 10 7 6 5 3 4 5 8 11 11 11 8 4 9 8 12 21 24 27 33 34 35 29 20 21 20 18 17 15 13 14

GFSSW_700_spd_069.txt.gz
Wind_Speed
23 27 32 32 32 29 25 23 26 26 19 16 16 17 20 21 27 32 33 30 30 29 25 32 31 35 34 37 43 47 45 40 37 35 32 27 20 17 17 14 19 18 19 18 18
21 28 33 32 29 26 23 21 24 24 23 18 17 17 19 20 22 30 36 28 28 29 30 28 31 31 29 31 39 47 47 49 40 39 35 24 21 16 19 16 19 20 19 18 18
21 25 31 32 27 24 21 20 19 18 16 13 16 17 18 22 23 24 24 26 27 31 29 25 29 30 26 28 37 41 53 46 46 41 31 30 17 11 17 16 18 19 20 21 18
21 22 29 32 28 22 19 15 11 8 12 10 12 15 17 19 11 15 15 24 30 33 32 27 33 34 31 32 34 44 45 43 51 44 46 35 22 15 16 15 14 17 18 18 19
22 20 25 31 29 21 18 14 8 6 5 4 4 9 13 16 14 8 18 32 31 37 38 27 33 36 33 34 33 35 36 42 33 30 49 41 36 21 17 17 15 17 17 17 17
25 23 23 28 28 20 17 14 7 3 2 3 3 2 6 9 12 18 18 28 33 42 37 30 32 33 32 31 32 33 28 25 36 42 30 47 49 25 17 9 11 19 20 19 18
25 25 23 25 27 22 15 14 6 4 6 6 5 2 3 7 13 20 21 23 31 38 40 33 27 34 29 27 31 7 23 20 26 27 25 25 35 35 18 11 9 18 19 23 21
26 26 25 23 23 22 14 10 5 3 5 4 3 3 4 6 5 14 21 27 32 31 44 35 27 33 22 24 28 14 24 19 27 23 22 21 26 27 16 19 15 15 17 19 21
26 26 26 23 20 21 14 7 5 2 2 3 5 6 4 4 6 8 21 18 25 27 46 36 27 36 23 25 23 29 23 33 23 25 25 24 22 21 21 21 22 23 21 20 21
26 26 26 24 20 17 13 8 7 8 8 8 10 2 3 2 6 8 9 13 22 37 41 36 30 39 28 31 35 44 34 35 33 31 32 30 27 15 19 23 29 30 27 27 26
24 25 25 25 21 16 11 7 7 5 7 9 7 8 6 4 5 5 10 9 27 45 39 38 32 47 48 40 28 34 25 33 32 29 36 35 32 27 25 36 37 37 36 34 32
22 22 24 23 20 17 12 6 6 3 2 2 6 9 7 8 3 8 9 13 29 38 28 32 27 43 41 35 14 28 24 27 28 23 35 32 30 29 31 26 33 35 41 43 41
19 18 22 22 21 19 13 5 5 2 2 4 4 2 4 5 6 11 11 16 25 13 34 31 24 39 38 34 17 20 32 24 26 21 24 28 36 34 34 38 28 25 25 28 38
18 16 18 21 20 21 14 7 2 2 3 8 6 3 3 3 9 12 9 8 20 12 32 19 25 39 34 35 21 20 25 20 18 26 17 20 7 35 41 39 38 38 32 26 28
16 15 15 19 17 17 13 7 4 5 3 5 9 6 8 7 13 10 8 5 18 7 15 14 35 39 33 34 25 12 15 19 16 13 11 19 12 29 17 35 45 39 45 39 31
15 13 12 16 14 15 13 10 5 3 4 6 9 6 10 16 10 13 13 13 10 8 8 29 25 29 31 30 23 16 14 9 12 12 8 19 22 17 26 30 32 38 39 38 38
15 12 11 14 13 12 12 10 5 8 1 5 7 6 5 11 11 13 13 12 7 8 22 26 23 26 30 30 25 18 15 4 2 4 5 13 16 37 14 21 21 26 31 36 36
16 11 9 11 11 9 8 7 8 7 9 13 10 9 7 10 14 14 9 13 10 11 29 13 13 23 27 30 25 24 21 7 5 4 3 8 16 22 20 28 24 20 34 31 34
15 10 7 8 9 7 4 5 3 5 4 4 11 8 8 6 8 9 7 12 14 16 2 10 9 24 27 27 29 29 25 14 2 2 0 11 20 34 29 23 24 25 24 32 27
13 9 7 7 5 6 4 4 6 6 7 4 7 6 9 10 8 8 5 16 23 22 9 10 9 21 15 26 29 24 28 14 12 3 4 6 12 19 15 16 31 23 24 20 22
12 8 6 5 4 3 4 6 9 7 4 4 9 11 7 7 8 5 7 12 17 18 9 16 7 17 19 22 29 28 30 18 13 8 4 2 4 8 15 18 17 20 25 23 19
11 5 6 3 4 3 6 5 5 5 8 11 11 9 6 5 4 3 11 9 14 12 12 15 8 11 14 19 23 26 32 33 19 8 8 2 8 18 18 12 16 17 18 19 17
11 8 6 5 4 8 8 8 6 6 7 9 7 5 6 3 2 8 6 11 11 12 9 10 4 8 6 15 21 27 38 35 35 20 19 6 6 3 10 10 10 16 18 17 15
10 6 6 6 7 9 8 8 6 5 4 8 8 6 5 2 2 4 9 11 13 10 8 6 7 8 14 5 18 30 32 34 43 31 23 29 31 25 21 14 14 15 20 17 16
10 6 6 7 6 8 10 8 6 4 4 6 8 8 6 5 3 6 11 12 13 9 9 10 6 16 8 9 11 20 31 38 39 45 26 31 36 31 27 24 21 16 20 19 17
12 9 7 8 10 9 9 12 11 9 5 7 6 10 7 4 5 4 7 11 13 15 14 13 6 11 11 8 8 14 15 22 37 39 41 43 40 32 25 24 22 19 18 18 15
13 10 7 5 10 12 13 13 12 11 10 9 8 9 8 6 6 5 4 5 8 11 14 14 10 7 5 11 11 14 20 22 26 31 34 41 34 34 25 22 22 17 16 15 14

GFSSW_700_spd_072.txt.gz
Wind_Speed
17 18 24 30 32 31 26 22 21 19 21 22 21 18 15 17 18 30 32 29 25 25 25 27 31 34 34 38 43 41 36 34 34 34 35 32 24 18 15 19 17 16 14 13 15
19 20 25 29 31 30 27 22 21 18 18 17 17 19 17 16 16 20 30 27 22 27 26 23 30 32 34 36 38 40 49 47 39 37 32 30 25 21 15 19 17 15 13 17 16
21 22 26 28 30 30 26 22 19 16 11 12 12 18 17 17 15 17 18 33 25 31 29 23 28 31 33 32 40 41 44 43 46 37 30 25 19 23 18 19 19 19 15 16 18
22 25 26 27 28 29 24 20 20 15 9 8 9 13 15 13 7 10 16 22 34 31 33 25 27 32 30 33 36 44 41 43 31 40 39 24 25 20 21 21 23 23 20 18 18
24 26 27 27 26 27 22 19 16 12 7 3 4 7 12 12 8 6 11 15 30 32 32 28 28 33 29 30 30 37 40 39 39 35 42 38 31 25 23 21 21 23 20 17 18
26 26 27 27 23 25 20 16 12 7 4 4 2 1 4 6 9 15 9 21 28 35 32 26 27 29 29 27 26 25 30 29 43 49 37 43 43 34 22 21 21 22 21 19 19
26 26 26 26 22 22 18 13 9 4 4 3 3 2 3 4 5 13 13 20 23 38 36 30 23 29 27 24 25 10 18 20 32 33 37 44 43 53 22 14 22 22 19 17 20
25 24 26 25 21 18 17 13 6 2 2 1 3 6 6 5 5 6 20 21 26 30 39 31 18 29 22 25 26 13 21 17 21 22 25 30 32 53 33 19 19 22 22 21 21
24 22 26 24 21 17 15 13 8 6 6 6 7 9 7 4 5 3 12 24 22 24 41 35 27 31 23 26 23 22 23 30 23 25 24 23 34 30 54 27 22 22 20 20 23
23 20 23 23 21 17 13 12 12 9 10 10 10 6 4 4 5 7 7 18 21 29 39 37 32 34 28 31 36 38 24 30 27 30 24 29 26 17 29 37 25 19 20 19 20
23 18 20 23 20 18 12 10 9 8 7 9 7 6 4 6 6 6 4 19 28 29 44 41 32 43 43 37 12 29 32 19 26 16 23 18 19 18 19 39 27 26 25 21 24
24 16 18 20 20 18 12 8 5 6 5 4 6 7 7 5 7 6 1 10 24 30 43 35 19 32 38 31 27 12 25 23 17 20 17 19 22 25 21 17 20 16 23 24 27
23 15 16 18 20 18 13 7 4 4 5 5 4 1 2 2 4 5 1 3 19 35 32 25 15 23 35 29 16 14 21 20 15 16 16 20 25 26 28 23 21 25 28 31 33
23 15 15 17 18 17 12 9 3 3 1 7 4 2 2 4 7 8 5 9 17 26 23 21 10 24 35 29 13 16 18 16 17 18 14 18 7 33 33 32 30 31 27 31 34
23 13 13 16 16 15 11 8 3 4 2 4 6 2 7 4 13 10 8 10 20 8 16 20 13 28 32 30 15 12 17 18 14 19 14 17 10 27 23 36 33 32 35 30 28
22 13 12 14 15 15 11 7 3 1 3 2 5 5 9 10 8 14 11 11 16 9 15 12 15 24 27 29 15 12 16 17 12 8 5 16 17 23 29 33 30 32 40 39 39
21 13 10 13 13 13 12 8 3 6 4 7 2 6 12 13 15 14 14 14 8 7 14 17 28 27 29 32 20 16 19 5 2 3 4 10 18 30 6 9 17 21 25 38 43
18 12 9 11 12 11 11 7 5 8 11 7 5 8 6 5 8 17 17 11 13 9 29 13 15 26 30 31 20 20 18 5 5 4 3 9 11 12 15 19 21 13 18 26 31
16 11 8 9 12 10 7 4 3 4 4 5 9 7 7 8 9 9 11 18 6 14 4 8 9 21 28 29 23 26 21 11 3 3 1 8 10 15 18 17 18 17 23 20 23
15 10 8 7 9 8 3 2 4 5 4 4 4 5 7 12 6 3 4 10 16 8 7 9 11 20 19 24 28 18 24 12 8 3 4 5 8 13 10 11 16 15 22 19 19
12 9 7 7 6 5 1 3 5 5 3 4 8 7 5 5 9 5 3 7 12 14 6 13 7 18 21 24 27 27 23 18 9 8 4 2 5 3 10 19 18 12 16 17 20
10 6 7 4 4 3 3 4 4 1 7 10 9 8 4 4 2 3 4 4 11 15 4 9 6 12 15 17 24 28 26 30 15 5 10 3 12 12 20 12 13 8 10 14 15
10 7 6 4 4 4 4 4 4 5 6 9 5 6 5 1 0 7 10 8 11 12 6 10 4 9 6 15 21 26 32 29 29 17 18 7 5 7 4 13 13 11 7 9 11
9 5 5 5 7 7 7 6 5 3 4 7 6 5 4 2 1 5 7 11 12 12 8 6 3 6 10 2 12 28 29 35 36 28 21 38 31 32 25 20 22 19 14 13 12
9 5 5 4 7 10 9 7 6 4 3 5 5 6 5 1 1 1 8 10 12 10 9 7 4 8 8 10 13 16 24 35 38 47 27 31 39 41 38 34 28 22 19 17 17
10 8 5 6 6 8 10 11 9 7 4 4 4 5 4 3 2 2 5 5 8 10 9 9 5 7 15 17 12 14 17 21 32 38 42 45 48 40 34 25 26 25 19 15 15
13 11 6 5 4 8 8 12 12 10 9 7 5 6 5 3 4 3 5 6 8 13 10 14 8 7 5 11 14 16 22 24 24 28 34 42 28 32 33 34 30 20 20 16 15

GFSSW_700_spd_075.txt.gz
Wind_Speed
19 21 22 25 28 28 30 28 26 22 19 20 21 20 17 11 15 24 29 25 27 21 26 27 30 34 38 38 41 41 33 36 42 32 30 29 28 22 14 18 21 21 16 15 16
20 21 23 25 27 27 28 27 25 20 19 17 15 17 17 13 14 15 22 30 31 26 28 25 31 33 38 40 40 41 41 42 41 34 33 27 27 22 16 16 23 22 19 17 16
22 22 25 26 27 26 27 26 23 18 15 12 10 12 13 14 12 12 15 18 24 32 32 26 28 32 38 37 39 43 48 40 32 30 29 26 18 24 18 18 25 25 22 20 20
22 22 25 25 26 24 24 24 20 16 13 10 7 7 11 10 6 5 12 14 29 30 33 27 28 33 35 35 40 38 40 37 33 32 31 30 23 19 20 22 25 25 22 21 20
23 22 24 24 25 22 22 21 16 14 11 8 7 7 6 7 10 6 6 15 24 30 31 26 26 32 32 33 37 41 35 40 34 34 35 40 29 22 19 24 24 26 23 23 22
25 22 23 25 24 21 19 18 13 10 7 5 5 5 5 2 5 9 5 19 23 30 34 31 24 28 27 29 30 34 29 32 33 30 38 44 37 26 20 19 23 27 26 23 23
28 22 21 24 23 19 17 15 13 7 5 3 4 6 7 3 1 6 11 16 22 24 35 32 21 26 26 25 25 15 27 32 31 38 32 40 48 45 28 18 19 25 28 25 23
28 22 21 22 22 19 16 14 13 8 6 6 6 8 10 3 2 6 13 16 23 26 33 28 26 26 22 23 23 17 14 25 28 31 34 35 54 52 40 27 20 24 28 25 25
28 22 19 20 22 20 16 12 11 10 9 10 11 10 10 5 1 4 11 15 16 27 31 27 24 25 24 26 28 22 21 25 22 25 26 38 36 52 45 38 24 22 29 28 27
28 23 18 19 22 20 16 11 8 10 9 11 14 9 3 3 4 1 10 15 16 23 29 33 29 32 28 31 32 29 17 23 20 23 21 25 30 23 27 38 37 26 30 30 28
28 24 17 18 20 20 16 10 7 8 10 7 10 6 4 6 7 4 6 13 22 24 31 41 24 37 35 33 17 28 17 20 13 18 20 17 16 19 25 30 43 36 30 30 29
27 24 17 17 19 18 15 9 5 4 8 9 7 6 8 7 6 4 5 15 18 28 26 37 19 28 30 28 11 21 20 19 16 9 12 16 15 22 27 27 28 39 31 30 28
27 23 17 17 18 16 14 9 4 3 5 8 6 4 2 3 2 3 6 9 26 26 27 29 20 22 31 29 17 13 27 23 14 15 12 11 19 23 24 25 18 44 35 32 30
25 22 16 17 17 15 14 9 4 2 1 7 7 4 2 1 5 3 7 17 18 31 30 21 14 11 31 27 19 17 11 17 18 16 10 16 6 21 25 19 18 35 43 38 34
24 21 15 15 16 15 12 8 4 3 3 4 6 5 5 3 10 8 9 12 22 23 21 7 27 23 27 27 15 14 17 16 14 15 12 16 9 17 20 23 26 26 40 36 28
24 20 15 14 15 14 12 7 3 2 3 3 4 5 10 8 7 12 15 18 21 8 16 10 18 19 29 22 16 13 20 15 12 11 6 15 17 14 20 25 24 28 24 39 27
22 18 13 14 14 13 12 6 2 6 6 6 5 7 9 10 13 15 17 27 8 11 14 15 16 11 31 24 19 22 24 5 2 4 4 9 15 28 7 4 8 16 22 26 28
21 17 13 13 13 11 10 7 6 7 9 5 9 7 8 8 10 14 18 19 5 8 15 9 7 18 35 24 16 22 22 6 6 4 3 9 8 11 8 7 14 16 15 23 24
21 16 12 11 12 10 9 6 4 3 5 5 7 9 7 7 10 7 13 10 8 8 9 12 4 27 29 29 18 24 17 5 6 3 1 5 4 13 11 5 6 11 18 17 20
20 15 11 11 10 8 6 5 5 5 4 5 4 4 6 12 8 4 5 7 8 13 14 12 13 20 29 26 23 19 22 8 4 3 3 3 5 10 2 9 8 9 19 21 20
16 14 9 9 7 6 3 5 6 4 2 4 7 6 7 4 9 7 7 11 7 8 7 15 12 15 23 20 24 17 23 11 7 4 3 1 3 9 7 13 11 8 11 19 18
16 11 11 7 4 2 2 2 4 4 5 7 6 6 5 5 3 4 6 5 13 11 7 6 9 15 16 17 24 26 22 27 11 5 7 4 12 8 10 7 13 19 6 5 16
14 13 8 5 2 0 2 3 4 4 6 5 4 3 3 3 2 5 9 8 12 13 6 8 9 9 8 13 20 23 27 26 27 17 19 8 5 3 10 9 10 16 16 12 5
13 8 7 5 4 3 4 5 5 5 6 6 4 4 2 3 3 4 5 9 13 12 8 8 7 5 9 4 8 25 30 32 30 24 21 36 28 25 15 17 25 26 20 13 8
11 8 7 6 5 6 8 6 6 5 5 8 6 5 3 1 2 1 6 9 11 12 8 6 3 6 6 7 8 9 13 22 39 40 34 29 37 36 32 33 27 29 30 15 16
12 11 7 8 6 8 9 10 8 7 6 6 4 5 2 2 2 1 5 6 6 9 7 7 4 3 5 10 13 15 15 19 23 30 42 44 49 37 35 39 31 19 18 20 17
12 11 7 6 4 8 9 11 11 10 7 6 5 5 5 3 3 2 3 4 5 8 6 9 6 4 4 6 9 14 19 23 26 26 26 36 24 21 23 25 21 21 26 23 15

GFSSW_700_spd_078.txt.gz
Wind_Speed
18 19 20 22 23 24 26 25 26 28 24 20 19 19 20 19 18 21 23 32 24 23 27 29 32 36 41 41 41 42 35 35 34 26 21 25 26 25 16 19 27 28 26 24 22
19 19 19 21 22 23 25 24 24 26 21 18 16 12 13 19 12 12 17 30 32 23 28 27 28 33 39 41 42 42 39 38 33 27 25 29 25 25 20 15 23 28 26 26 26
22 20 19 20 22 22 23 23 22 22 19 15 14 12 12 12 7 10 13 26 25 37 28 25 27 30 36 37 40 42 40 30 26 29 26 28 25 20 22 19 23 28 27 26 26
23 21 19 20 21 21 22 22 20 20 16 14 11 10 10 9 3 9 13 18 27 28 34 29 30 33 34 36 40 33 34 28 25 28 30 30 29 18 22 20 22 27 28 24 25
24 23 19 18 20 20 21 20 18 18 13 10 10 9 7 6 7 7 8 17 18 28 32 26 29 30 27 26 36 36 28 30 21 27 28 31 36 18 20 22 22 26 27 27 27
25 24 19 17 19 20 20 18 15 16 9 6 7 8 8 3 3 9 10 15 22 27 31 28 30 27 25 25 28 34 26 31 34 33 34 32 39 29 19 22 23 26 27 27 27
26 23 19 17 18 20 19 16 14 14 9 6 5 7 10 5 3 6 11 15 21 26 37 26 28 30 25 23 26 23 28 24 31 37 28 33 35 46 27 19 22 23 25 28 28
28 24 20 16 16 19 18 15 12 12 9 8 8 10 12 5 3 6 10 13 21 24 43 29 26 30 26 22 26 17 25 22 28 26 32 30 38 44 43 28 20 21 26 29 29
29 25 19 16 16 19 17 14 9 10 10 10 10 12 11 3 3 5 8 9 14 24 38 25 17 28 28 24 22 21 20 33 23 30 27 32 28 21 36 44 30 23 22 31 30
29 26 20 16 17 18 15 12 7 8 8 8 8 7 6 2 1 4 7 6 11 23 37 28 20 26 25 27 26 21 18 23 21 26 29 27 28 24 36 44 40 30 23 30 32
29 25 20 16 16 16 14 10 6 3 8 8 6 8 9 7 5 4 6 7 10 28 41 27 27 26 23 23 16 16 15 16 13 21 21 20 19 22 30 33 45 42 32 28 33
28 24 20 15 15 16 14 10 4 1 6 10 7 4 8 10 7 6 5 9 12 22 28 18 25 25 22 20 14 18 16 16 11 10 12 12 17 16 19 27 35 49 35 34 35
29 23 19 15 15 15 13 9 5 2 4 10 9 5 3 4 5 6 7 13 17 21 19 24 11 21 26 23 16 18 21 17 11 12 12 8 16 23 23 23 24 30 37 42 40
27 22 18 14 14 15 12 9 4 3 3 8 13 6 5 4 4 4 8 13 16 23 22 21 11 23 26 22 17 18 20 16 14 13 7 13 5 13 26 27 25 29 35 46 44
25 20 17 14 13 13 12 8 4 6 1 7 9 4 4 3 4 8 13 16 16 23 20 14 14 17 27 22 19 9 18 17 13 13 7 9 8 10 15 23 28 27 31 43 49
23 19 16 13 12 12 11 6 6 3 4 3 6 3 8 3 4 14 17 19 22 19 16 12 25 16 27 19 19 15 18 13 10 10 8 15 15 7 8 12 17 23 25 44 51
21 19 14 12 12 11 10 4 5 5 2 4 7 6 5 7 9 14 21 15 11 17 14 16 15 16 31 21 14 21 23 7 5 6 6 6 13 17 9 12 8 14 18 24 53
20 19 14 11 11 10 7 6 6 7 8 6 8 12 13 10 6 12 19 15 12 10 15 5 6 20 30 25 17 22 19 5 6 5 6 7 7 4 5 3 5 11 17 24 30
20 18 14 10 9 8 7 6 4 5 8 8 9 6 6 8 9 10 10 9 9 17 5 6 4 12 30 24 22 22 15 5 5 4 2 4 7 13 9 9 4 7 17 17 24
19 19 12 10 7 6 6 5 6 6 7 5 5 5 6 9 8 7 9 6 5 12 12 12 8 16 31 17 17 18 18 6 2 5 4 2 5 5 4 3 4 8 11 22 23
17 17 12 8 6 5 5 7 7 5 4 6 8 10 12 5 7 5 7 5 11 16 15 16 10 16 25 15 16 16 16 10 5 2 2 2 3 12 11 9 10 9 5 11 23
16 13 13 6 5 3 5 5 6 5 8 9 9 9 8 8 4 1 4 5 8 11 18 10 10 15 18 16 21 21 15 18 13 6 6 2 6 14 12 4 5 6 12 10 7
14 14 8 4 2 3 4 5 5 6 7 5 5 8 8 4 3 4 5 3 11 9 8 10 9 11 7 13 20 24 28 23 21 17 12 8 5 10 21 18 14 4 12 15 10
11 8 7 4 2 4 5 5 5 6 6 7 7 6 6 6 5 6 7 7 15 12 8 10 12 7 10 5 13 21 33 32 30 19 20 27 19 16 10 13 15 18 24 27 16
9 6 7 4 3 6 7 6 7 6 6 8 7 6 5 4 6 6 6 10 14 11 7 5 4 7 6 8 8 9 13 28 37 37 31 23 28 27 29 31 35 36 28 22 17
7 9 6 5 4 7 9 10 9 8 7 8 7 7 6 5 4 6 9 9 6 11 9 8 4 5 8 10 13 14 15 19 22 25 33 33 41 30 32 36 36 31 29 19 16
5 5 4 4 3 8 11 12 13 12 8 9 8 7 5 5 6 6 8 8 6 8 9 8 6 4 4 7 8 13 22 26 25 24 26 30 26 22 21 19 22 23 22 23 27

GFSSW_700_spd_081.txt.gz
Wind_Speed
21 22 21 20 20 22 23 24 23 23 24 22 21 19 19 21 21 22 22 23 31 25 27 36 35 39 41 47 45 48 32 34 34 24 21 24 22 23 19 17 24 27 28 20 27
22 22 22 20 19 21 22 23 22 22 22 20 18 17 14 14 16 20 22 27 27 23 25 35 30 33 38 41 41 48 37 34 35 32 22 24 18 28 20 17 21 25 28 28 25
24 23 23 20 18 19 22 23 21 20 20 17 15 14 13 13 13 8 15 18 26 34 22 30 28 27 32 29 40 37 48 31 27 23 30 21 24 23 20 14 20 26 29 28 27
27 24 23 21 17 18 21 22 20 18 18 14 12 11 11 9 4 9 11 14 18 31 28 28 31 29 31 31 34 28 36 32 27 26 27 20 23 24 18 18 21 23 27 28 28
28 26 23 22 16 18 20 21 18 16 15 11 9 9 10 7 5 9 9 12 15 28 41 29 30 31 27 32 27 34 22 27 24 29 18 21 23 28 17 21 21 20 26 26 31
29 27 23 21 15 17 19 19 16 14 13 9 7 6 9 5 9 10 11 9 16 18 27 40 28 24 25 22 27 28 18 27 30 22 26 27 24 30 29 19 23 20 24 25 28
30 28 24 21 15 16 19 18 15 13 12 9 8 7 9 9 9 9 9 9 16 19 24 27 32 32 27 20 29 15 28 32 28 24 24 29 26 31 32 19 22 21 22 25 30
31 28 24 19 15 15 17 16 14 11 12 10 10 10 8 11 9 8 7 11 17 26 27 31 30 31 26 23 24 27 26 27 26 28 24 28 26 32 39 33 21 15 16 23 29
31 29 24 18 14 15 16 14 12 9 10 9 8 10 6 7 8 8 6 9 15 15 23 30 23 26 31 31 28 26 26 29 22 23 29 29 24 22 28 32 26 20 12 16 29
30 28 22 17 14 15 15 13 10 6 8 9 6 4 5 5 6 8 6 7 8 16 17 18 19 26 29 34 32 27 23 31 24 22 20 23 22 17 23 43 45 27 19 18 28
29 26 20 15 13 14 14 11 8 3 8 8 7 7 9 7 9 11 5 4 8 16 20 13 15 27 29 29 21 25 23 25 24 15 18 20 17 20 21 30 37 37 25 22 21
28 25 19 14 12 14 14 10 4 1 5 13 8 7 5 4 7 7 3 5 5 8 21 12 12 21 24 24 15 24 19 15 12 10 13 17 22 23 24 26 30 36 35 29 22
26 23 17 13 12 13 12 8 3 3 4 11 11 7 5 3 5 7 5 5 7 8 25 13 10 11 15 18 19 20 19 18 14 11 12 10 20 23 24 23 24 31 45 35 30
25 21 17 12 11 12 11 6 2 4 3 10 13 8 7 9 8 5 4 8 7 10 23 12 18 21 18 17 18 19 16 18 13 15 10 18 8 19 22 24 27 30 36 45 48
23 19 16 13 10 11 10 3 4 5 2 8 10 6 8 9 10 11 8 8 10 19 14 9 15 22 18 16 13 17 16 14 12 13 6 12 9 17 9 19 23 25 26 26 35
22 17 15 11 9 9 7 3 6 3 3 6 7 7 8 8 11 14 11 11 13 8 10 11 15 21 15 17 9 14 17 11 8 9 10 18 15 13 9 9 14 18 24 27 28
20 17 14 10 9 7 4 3 5 4 3 6 9 8 9 9 9 12 16 13 7 7 12 5 12 11 17 20 15 17 22 8 5 5 6 2 13 17 5 8 12 11 16 21 22
18 16 14 9 6 4 4 6 3 6 6 6 9 13 8 9 9 10 13 9 10 8 13 4 3 19 20 17 12 20 20 6 5 6 10 5 7 8 11 13 8 12 17 21 24
17 15 12 9 5 2 5 4 3 6 6 8 9 9 7 7 9 5 8 5 6 9 3 4 3 22 20 18 17 18 21 6 2 4 1 7 8 13 7 9 13 11 12 15 24
15 14 10 7 3 3 6 5 6 7 6 5 2 4 7 9 7 5 1 2 0 8 6 4 6 20 20 19 16 12 11 5 2 4 4 5 7 4 6 4 3 6 7 12 18
14 13 9 6 3 4 7 7 10 9 8 5 4 11 8 7 9 5 2 6 8 10 12 7 4 7 18 17 17 16 10 7 2 1 3 1 4 8 11 9 6 3 2 5 12
13 11 8 3 2 4 4 8 7 9 11 11 7 7 4 5 5 3 3 2 1 11 9 7 4 10 13 13 17 9 15 16 8 6 8 5 2 7 12 9 2 1 5 5 3
11 9 4 1 4 4 6 8 8 10 10 8 7 8 8 4 1 3 3 4 8 13 10 7 4 6 5 8 17 19 17 12 14 16 10 8 4 8 15 19 19 19 10 6 8
10 6 4 1 3 7 8 7 9 9 8 8 10 9 6 3 4 2 3 4 13 7 7 8 6 6 6 2 7 15 21 20 20 14 18 25 20 10 14 15 15 14 20 20 21
7 5 5 2 5 8 9 10 8 9 8 9 7 7 6 2 3 3 5 5 11 9 6 8 4 9 8 8 8 11 13 20 28 34 24 23 25 22 22 22 19 20 30 29 28
5 6 4 4 5 8 10 11 10 11 11 11 7 8 8 5 6 5 5 6 6 12 7 9 5 7 9 11 13 16 18 19 20 26 29 30 34 28 29 28 28 29 31 34 35
5 5 2 2 6 9 11 12 15 12 11 10 11 9 7 7 7 6 10 11 7 6 9 7 5 3 5 9 8 13 20 22 23 22 18 26 23 21 22 25 23 24 27 26 20

GFSSW_700_spd_084.txt.gz
Wind_Speed
26 23 24 23 24 22 21 22 21 21 23 23 21 22 21 20 21 20 25 25 25 29 28 28 36 35 38 45 47 42 33 36 33 34 17 25 22 27 22 17 25 26 19 15 32
28 26 24 25 24 21 20 22 21 21 22 21 20 19 18 17 18 17 15 23 25 26 29 26 31 33 35 43 47 47 33 42 37 23 26 25 20 27 25 18 21 26 25 16 29
29 29 26 24 24 20 19 21 21 21 21 19 17 15 13 12 14 13 15 24 23 25 31 28 24 28 31 34 37 37 49 36 36 28 16 23 23 23 19 11 21 29 26 30 23
31 31 28 24 23 18 18 20 21 20 19 17 14 12 9 9 5 14 13 6 11 20 28 28 32 29 30 36 39 29 42 48 36 24 18 26 24 23 22 23 22 23 25 27 27
32 31 30 25 23 16 17 20 20 18 17 15 13 9 8 8 7 18 10 13 12 17 33 22 30 29 32 37 30 32 20 37 37 21 26 21 20 25 27 24 22 20 24 29 26
33 32 30 26 23 16 16 20 19 15 14 14 12 10 9 8 10 15 12 15 12 15 23 23 24 31 26 19 30 28 26 21 32 42 16 27 21 21 26 26 22 17 22 26 26
34 34 30 25 21 15 16 19 18 13 11 13 12 11 11 9 16 12 12 13 10 11 19 34 28 32 24 20 28 13 30 16 26 41 29 20 28 25 22 23 21 20 18 21 22
34 34 29 23 19 16 16 18 15 11 10 12 11 10 10 13 13 11 8 15 6 16 14 37 32 33 28 16 26 21 28 32 32 22 24 21 22 18 24 25 23 16 18 17 20
34 34 28 22 17 15 16 16 13 9 9 11 8 7 4 11 10 9 10 10 8 11 14 24 37 32 32 23 29 30 25 34 25 25 20 27 18 18 23 21 24 21 21 14 21
34 32 25 20 15 14 16 15 10 6 7 10 6 6 4 8 9 8 11 9 7 13 7 16 27 30 37 26 25 27 21 28 21 34 25 24 15 17 22 30 23 23 26 15 21
33 29 23 18 14 13 15 12 7 3 6 12 8 7 8 12 10 8 8 7 6 9 8 9 20 29 32 41 27 22 28 22 21 16 19 14 25 19 21 27 37 37 35 34 17
32 26 20 16 12 12 14 13 5 2 5 12 7 7 7 6 6 7 4 2 3 7 7 10 11 29 22 22 24 18 27 23 25 20 17 19 18 16 20 19 22 28 34 32 31
30 23 17 13 11 11 12 10 3 3 4 11 11 9 8 8 2 9 3 2 2 7 12 6 14 32 29 20 16 27 25 18 18 14 10 9 16 20 22 27 26 23 25 36 37
27 19 15 11 10 11 11 6 2 3 1 10 10 10 11 10 10 5 2 8 9 13 12 6 12 26 23 17 19 23 25 19 18 14 8 16 5 24 23 25 26 26 28 32 43
23 16 12 9 9 9 8 3 5 4 2 12 10 11 15 14 9 8 8 12 11 15 3 7 9 17 19 17 16 12 23 18 14 13 7 13 6 8 12 17 16 19 26 30 40
20 14 10 8 8 7 5 4 4 3 3 9 8 11 9 10 13 11 13 16 18 16 5 8 14 18 18 6 13 17 22 15 12 6 3 11 11 6 14 13 12 17 20 23 28
17 12 10 7 6 6 1 3 5 5 2 7 8 10 11 9 20 20 13 7 8 7 12 8 14 17 15 12 14 19 19 5 2 1 3 4 13 14 6 6 7 16 20 18 21
14 10 8 6 4 4 2 6 5 4 3 4 10 11 9 8 15 19 13 10 11 15 9 6 3 13 17 13 8 18 16 5 4 4 5 4 5 10 15 21 18 17 14 22 22
11 9 5 4 1 2 3 6 4 6 8 7 8 8 7 8 10 9 10 9 7 10 5 4 3 13 18 15 13 17 20 5 2 3 6 8 8 4 12 12 11 14 10 11 21
9 6 3 2 3 3 3 6 6 6 6 5 4 5 6 12 8 8 5 2 5 8 6 4 6 13 17 16 15 12 11 4 1 2 1 6 6 5 11 9 10 7 6 7 11
8 5 2 2 4 5 6 7 9 8 10 7 4 7 6 8 5 8 3 2 4 7 5 8 2 10 11 11 12 8 9 3 3 2 1 1 1 13 16 8 6 4 3 5 7
6 4 1 5 7 6 6 9 8 7 7 10 10 6 2 4 3 2 2 1 4 8 7 6 4 6 13 11 14 14 11 9 4 4 4 3 2 8 9 9 6 3 2 2 3
5 3 2 6 7 7 8 9 9 11 9 8 6 9 9 3 2 2 3 2 3 12 10 9 5 6 2 8 15 17 15 14 15 15 9 2 4 10 7 10 13 16 19 17 9
4 1 3 6 6 11 10 11 10 11 11 8 8 8 6 2 5 3 3 4 7 10 10 10 9 5 3 3 7 23 23 20 17 10 19 24 12 9 8 13 16 16 13 17 19
4 1 1 4 9 11 11 8 10 10 10 11 10 10 7 2 3 4 3 2 9 7 7 8 4 10 10 7 8 12 14 17 25 31 21 28 27 25 20 19 15 17 19 24 27
3 3 2 3 7 11 15 15 12 13 12 11 8 10 9 5 7 3 1 2 4 10 5 5 3 5 8 10 13 16 17 18 22 27 33 32 35 29 30 29 30 27 27 28 34
3 4 3 3 8 12 10 13 14 14 14 13 14 9 12 9 8 7 10 10 7 4 8 6 4 4 3 7 10 14 19 22 25 26 24 31 28 19 19 21 23 29 30 31 32

GFSSW_700_spd_087.txt.gz
Wind_Speed
31 32 30 28 27 23 20 18 18 18 20 22 23 22 21 22 23 23 22 20 23 26 30 29 35 33 35 40 46 43 33 40 31 30 25 23 25 31 32 26 26 23 22 22 26
33 33 33 31 27 24 21 17 17 19 21 22 23 21 19 20 20 19 20 20 18 25 28 27 26 26 34 36 51 45 39 46 36 25 19 29 24 28 29 27 26 23 21 19 25
32 33 35 33 28 25 20 17 17 19 20 21 20 18 17 16 15 15 10 13 22 24 25 26 26 30 35 34 41 41 36 41 41 32 29 25 28 24 27 26 30 25 22 20 24
35 33 34 33 29 25 18 16 16 19 19 19 17 16 13 11 9 11 12 16 20 10 25 28 30 29 34 37 36 42 46 44 36 26 23 21 21 22 23 27 30 26 22 24 21
34 35 34 32 28 24 17 16 16 19 17 17 15 14 12 11 13 15 19 20 9 9 18 27 35 26 32 34 31 33 30 42 36 30 13 23 28 19 22 21 24 23 24 24 23
34 34 34 31 27 22 16 16 16 16 16 13 15 14 12 14 11 14 18 13 13 11 9 21 29 32 27 26 35 38 14 30 38 36 19 25 26 26 24 23 25 23 19 22 25
33 34 33 29 25 19 16 15 16 13 12 12 14 12 11 11 12 17 14 11 9 8 10 18 23 32 19 20 33 15 32 17 26 40 31 26 24 28 26 25 22 24 22 20 23
33 33 31 28 23 17 15 15 13 10 8 11 12 10 8 8 10 10 9 14 8 11 12 22 12 36 23 23 30 24 22 26 23 21 33 27 25 24 21 24 21 21 24 19 19
32 33 30 26 21 16 14 13 10 8 6 11 8 9 5 7 7 9 10 11 8 10 19 14 23 31 19 30 33 27 25 27 23 23 24 30 30 33 21 21 20 19 20 21 19
31 32 29 23 19 14 13 11 9 5 4 12 6 6 6 10 10 11 11 8 8 10 11 10 28 26 25 25 23 24 29 25 23 27 27 15 16 17 26 25 22 21 22 24 22
29 30 26 21 17 13 13 10 7 2 3 13 11 10 11 10 8 10 7 7 6 7 2 9 26 29 30 33 20 30 38 31 21 23 20 19 22 16 24 25 27 28 25 23 22
27 27 23 19 15 12 11 9 6 1 6 13 9 7 7 7 6 4 5 4 3 2 2 14 16 27 27 23 19 20 24 23 25 18 21 29 25 22 20 26 26 25 30 29 27
26 24 20 16 13 11 10 8 6 1 5 13 15 12 13 7 9 5 2 1 2 2 8 12 15 19 24 24 17 19 23 26 24 20 15 12 15 23 22 28 26 21 19 24 34
24 21 17 13 11 9 8 6 4 2 3 14 14 15 15 14 9 8 6 8 4 11 13 12 21 26 27 26 22 20 22 29 26 20 7 18 4 22 21 23 27 26 26 27 23
22 17 15 10 8 6 5 5 4 4 4 13 11 13 16 16 8 10 13 13 10 5 14 20 25 29 22 24 18 20 21 17 20 16 13 23 8 15 9 24 20 21 21 26 30
18 14 12 8 6 4 4 5 5 3 3 9 12 15 11 16 14 19 18 16 13 10 16 22 19 20 21 15 16 26 23 20 20 11 2 13 11 7 11 11 6 9 12 17 23
15 11 9 6 2 2 5 5 3 7 3 8 10 11 18 20 22 15 18 11 11 11 15 15 24 22 20 18 16 30 23 5 3 2 4 10 10 2 8 12 10 10 11 13 14
12 9 6 3 1 4 5 7 5 5 6 8 14 14 15 18 17 14 13 15 12 13 15 10 8 13 19 18 11 25 11 5 5 3 3 5 9 7 14 11 15 12 9 15 21
9 6 3 1 3 6 6 5 5 9 9 9 13 9 7 10 10 9 14 13 12 9 6 6 2 8 14 14 21 19 5 5 3 2 3 5 5 6 14 13 12 18 20 14 17
7 4 3 3 6 8 6 7 9 9 8 9 5 5 10 9 6 6 6 8 5 9 8 7 7 6 14 11 9 8 6 3 1 2 3 6 6 8 16 15 17 14 13 9 9
6 5 5 7 9 9 8 10 11 9 10 7 9 6 9 7 10 8 3 3 4 5 8 9 3 10 14 10 11 8 7 3 2 1 3 1 4 7 13 8 7 8 6 4 5
6 6 8 10 12 10 12 14 12 11 8 15 12 11 2 6 6 4 1 1 2 8 7 4 5 7 7 9 15 11 14 8 2 2 1 1 1 9 8 7 4 3 2 1 5
7 7 10 13 11 12 15 13 12 13 13 13 10 12 8 5 3 2 3 1 5 12 10 7 5 9 3 10 16 18 16 16 12 9 5 3 3 9 8 7 6 7 12 18 17
8 9 11 15 12 15 16 15 16 16 12 10 12 8 9 4 4 1 2 2 5 8 8 7 8 3 7 3 5 16 20 17 14 10 21 21 12 16 14 8 11 13 15 15 18
9 9 9 12 15 14 18 15 17 17 13 11 11 12 7 3 7 5 2 1 6 6 7 4 5 7 7 6 5 8 12 21 23 26 20 29 28 24 18 18 22 15 16 17 19
9 8 10 12 16 15 18 17 17 17 17 15 13 11 10 7 4 6 3 6 4 5 3 4 3 3 6 7 11 13 14 17 20 24 31 35 36 27 28 31 30 31 30 31 29
11 9 11 12 16 18 16 20 15 15 16 18 16 14 12 7 6 3 2 2 2 2 4 1 2 4 3 3 8 13 12 16 23 26 28 31 28 25 24 22 23 29 34 34 33

GFSSW_700_spd_090.txt.gz
Wind_Speed
30 30 31 32 31 28 24 22 20 19 17 18 21 22 24 22 23 24 22 24 24 23 26 29 30 34 29 36 40 41 33 39 33 36 34 30 27 34 30 26 27 30 28 26 28
31 30 30 32 31 28 23 21 17 18 18 19 21 22 21 20 20 22 22 21 21 20 21 25 27 26 32 38 38 43 42 38 39 34 33 30 28 37 36 31 27 24 24 22 20
34 32 31 31 30 27 23 19 16 17 18 19 21 20 18 18 20 22 15 12 14 20 23 22 25 27 30 34 38 56 38 30 38 31 37 30 28 35 38 37 31 27 23 25 21
34 33 32 33 29 26 21 17 15 16 19 19 18 16 16 17 12 12 13 14 16 22 26 28 25 30 30 38 36 28 39 35 34 34 37 36 32 25 31 32 31 25 22 22 26
34 33 33 33 29 24 20 16 15 16 17 17 15 13 15 14 16 15 16 15 14 12 21 19 30 32 31 37 35 36 46 39 33 37 38 37 34 29 23 25 27 22 24 25 26
33 33 33 33 28 22 18 15 14 16 16 13 12 13 13 13 13 12 16 11 11 12 9 18 26 32 30 32 37 38 32 42 25 30 36 31 33 35 25 21 25 23 23 25 25
34 34 33 32 27 21 17 15 15 14 13 10 11 13 12 10 12 12 10 8 9 8 9 17 23 32 21 30 32 13 27 43 34 25 28 35 30 31 23 22 21 21 21 23 25
34 34 33 31 24 19 15 14 15 12 9 8 14 10 10 10 9 5 9 9 8 7 9 10 20 30 16 30 29 22 30 31 30 39 33 30 31 30 22 18 17 21 23 22 24
35 33 32 30 23 17 14 14 12 9 5 10 10 12 6 9 8 8 10 12 7 7 8 8 14 23 31 26 31 33 26 32 20 21 27 29 30 27 26 23 19 23 24 24 22
36 32 31 29 21 15 13 13 10 5 3 13 8 9 9 11 9 9 10 7 6 8 6 8 24 13 25 25 26 26 24 34 18 17 11 24 24 21 29 26 18 14 22 21 21
32 30 29 26 19 14 11 10 6 1 5 13 11 10 10 11 8 4 6 5 5 4 3 6 13 18 32 21 31 31 31 28 20 22 12 6 19 24 23 31 25 18 22 25 23
31 28 28 23 16 12 10 8 3 1 5 15 13 9 10 9 7 3 4 4 4 1 3 11 16 20 19 17 25 31 31 24 14 11 13 20 16 10 26 32 23 21 25 25 27
29 26 25 19 13 10 8 5 2 3 9 20 14 15 15 7 9 4 3 2 3 3 10 10 10 18 15 22 22 24 25 24 19 24 12 15 17 9 13 21 22 27 29 30 29
28 25 22 16 11 7 4 1 5 6 6 16 13 15 17 8 11 6 5 8 8 15 20 8 9 20 15 20 19 21 23 26 25 13 3 17 2 21 19 22 29 27 27 26 28
28 23 19 13 9 3 0 3 7 8 5 7 9 13 15 13 12 9 13 13 13 12 17 19 14 23 14 15 18 21 19 22 20 18 8 18 3 16 20 32 35 35 31 26 25
27 21 16 10 6 1 5 6 8 6 2 3 9 14 15 17 19 14 15 15 19 28 24 29 22 15 16 16 16 22 21 19 13 11 4 13 13 7 19 19 23 23 25 25 27
25 18 13 7 5 5 8 7 6 5 9 4 9 13 12 15 19 17 13 17 16 22 25 22 19 21 17 16 13 23 24 5 4 3 3 20 18 13 10 13 10 9 12 16 19
21 16 11 6 7 9 10 8 3 8 9 12 15 13 10 16 17 16 16 19 17 17 18 5 10 14 15 16 20 28 16 5 4 4 4 15 8 6 10 15 13 9 7 9 14
19 15 10 7 11 13 12 4 7 16 18 15 9 7 7 9 9 10 13 16 13 11 6 6 6 17 16 15 27 12 7 5 8 5 3 7 8 7 16 12 11 12 13 13 14
18 15 11 11 13 15 13 8 15 15 18 13 4 6 9 6 6 5 6 8 10 10 8 8 9 14 13 13 9 7 6 3 4 3 2 2 4 5 9 14 13 13 13 15 15
18 16 13 15 17 17 12 13 20 16 14 12 8 11 9 9 9 8 6 5 6 8 9 8 5 9 12 6 7 10 6 2 3 2 4 3 4 6 9 6 8 10 12 11 11
18 17 17 19 21 19 16 21 19 19 13 15 11 13 5 7 8 6 6 5 2 6 6 6 4 7 7 5 8 7 7 4 1 0 0 0 2 3 10 7 3 3 5 7 4
19 17 21 23 19 21 22 20 20 21 19 18 13 10 9 7 5 4 3 4 4 7 5 5 6 6 1 5 10 12 11 10 7 4 3 1 0 6 5 4 5 4 6 12 14
20 18 23 26 21 25 25 22 21 18 21 18 16 11 10 6 4 4 4 3 5 6 6 5 7 6 7 2 1 9 15 13 13 8 13 13 12 7 12 10 10 11 13 15 16
21 15 16 27 26 26 24 22 23 22 16 16 16 14 11 6 6 5 5 5 6 7 7 5 4 3 2 3 3 4 6 15 21 23 18 25 23 19 15 17 18 17 21 20 22
20 12 17 21 22 27 26 24 24 23 20 18 17 17 12 10 4 7 4 8 3 8 6 6 4 2 1 3 8 12 12 12 15 22 28 30 32 23 21 27 31 35 37 35 33
17 13 17 22 27 27 25 26 25 22 20 18 19 17 13 9 6 6 5 4 4 6 6 5 3 1 2 2 5 9 5 6 12 19 22 28 27 25 26 25 25 25 29 29 29

GFSSW_700_spd_093.txt.gz
Wind_Speed
32 33 31 29 30 31 28 24 20 20 18 18 19 22 24 22 20 20 19 19 18 21 25 28 29 30 30 33 36 41 50 30 46 36 43 35 30 31 30 31 24 29 28 25 21
40 35 34 32 32 32 28 24 20 18 16 17 20 22 22 20 19 20 20 21 20 19 23 26 29 30 30 34 36 37 39 35 40 24 34 35 32 34 36 34 27 30 27 26 24
42 39 35 33 33 33 28 24 18 17 15 17 20 22 20 18 17 21 16 13 17 19 20 25 28 26 27 28 38 36 41 25 39 25 27 34 34 33 35 36 29 29 31 24 15
40 39 36 34 34 34 29 24 17 16 15 18 20 19 16 15 12 9 15 17 17 19 21 23 25 29 29 31 35 35 39 37 28 35 28 31 33 31 35 38 38 26 22 23 22
35 39 38 36 34 34 29 23 17 16 16 18 18 15 14 17 16 16 16 14 15 15 17 19 27 28 31 30 31 38 34 43 21 44 26 31 36 34 33 33 33 31 28 25 25
35 40 39 38 35 34 27 21 17 16 17 17 14 12 16 15 15 13 11 11 10 13 15 17 23 24 31 29 32 35 35 31 43 22 30 34 38 36 32 29 29 30 29 27 25
32 37 39 40 37 33 25 19 16 16 15 14 11 14 14 13 12 10 8 8 10 12 14 7 20 25 29 30 28 31 24 27 43 43 12 31 36 35 31 29 25 24 27 25 25
31 32 37 39 37 32 23 17 17 14 12 9 13 11 11 10 7 7 7 8 9 8 9 9 18 23 29 24 24 38 16 29 30 41 24 31 27 29 30 28 27 24 22 22 26
33 33 38 37 36 30 20 16 15 13 7 10 9 12 7 10 10 9 10 11 8 6 6 6 6 25 32 22 22 33 19 31 19 30 29 14 28 26 29 29 27 25 22 23 24
28 33 37 35 35 27 17 15 12 8 5 13 8 8 10 12 11 9 11 10 6 6 6 6 8 18 28 30 21 28 17 22 23 16 25 30 26 31 28 30 29 28 25 23 23
31 31 35 32 32 22 14 12 9 5 8 9 9 8 11 11 10 7 8 8 5 5 7 4 13 17 9 34 18 32 22 27 21 15 10 14 31 35 33 30 30 28 26 22 20
31 32 30 30 29 18 11 10 4 3 7 14 14 14 12 9 9 6 6 5 5 6 2 6 8 12 25 14 29 24 21 30 12 7 9 8 9 28 31 33 30 26 26 22 21
33 27 24 27 25 14 9 6 0 7 12 19 14 13 8 5 6 5 2 1 3 3 6 6 3 10 24 18 26 24 26 25 24 15 9 7 16 10 23 29 29 30 31 29 20
37 24 24 26 19 11 7 2 4 7 5 12 13 12 10 4 9 7 9 9 8 12 15 7 5 14 17 16 26 27 23 24 24 16 6 6 1 13 12 23 30 34 35 31 25
35 24 21 23 15 9 5 3 6 6 4 2 6 10 15 11 8 11 15 10 14 7 10 10 9 9 16 24 28 24 21 15 16 17 6 7 2 3 8 23 27 31 29 27 24
31 26 25 20 11 9 7 8 8 3 1 1 3 10 15 13 15 19 18 16 13 19 19 19 14 14 24 19 24 26 25 19 14 8 4 7 5 5 18 19 16 23 24 21 21
30 27 26 18 9 10 11 12 4 2 14 8 8 13 14 13 16 21 25 21 12 14 20 18 16 16 19 23 19 25 28 5 3 2 3 11 9 14 5 14 12 17 22 20 22
31 24 24 14 11 13 13 12 4 13 14 13 11 13 11 15 18 17 19 21 17 20 10 9 8 8 10 17 17 21 7 6 4 4 2 15 8 8 6 10 8 11 14 17 20
25 25 20 13 14 17 17 9 4 16 18 17 10 6 7 11 11 10 20 19 14 5 6 6 7 15 9 11 18 9 9 4 6 6 4 7 7 9 8 10 13 11 9 7 9
31 26 18 15 18 21 19 8 13 17 20 16 6 5 5 7 5 4 7 9 10 9 9 15 11 15 15 8 16 15 8 1 5 3 1 2 5 7 11 14 12 11 11 12 12
30 19 19 19 21 23 18 10 21 21 19 12 7 9 11 8 10 7 5 7 8 10 10 8 7 10 14 6 12 9 3 4 5 3 3 2 3 2 7 8 10 9 11 12 11
31 22 21 22 26 25 19 15 21 23 21 12 13 13 8 9 8 5 5 3 5 5 7 7 10 10 7 9 8 10 5 4 2 3 4 3 1 3 8 8 7 5 6 7 7
26 24 22 26 25 26 21 21 23 22 18 17 15 10 10 7 4 7 5 6 7 5 3 4 7 8 3 4 9 8 8 5 2 2 2 3 1 4 5 3 6 7 8 7 10
25 23 24 28 25 26 26 24 24 20 19 18 17 12 10 6 4 6 5 4 7 6 5 5 7 4 6 5 5 4 8 9 8 4 4 8 8 3 4 6 8 11 14 16 17
26 20 19 33 31 27 28 26 26 22 18 17 16 11 11 8 5 5 5 6 5 5 6 4 4 5 5 4 3 1 1 8 14 15 11 17 20 15 13 15 17 21 22 23 23
26 12 18 11 26 29 29 27 26 24 22 21 16 15 11 6 3 9 5 5 3 6 6 4 4 3 2 1 4 7 7 8 9 13 21 23 25 19 20 24 20 27 32 34 34
21 12 16 18 28 31 28 27 25 22 21 18 17 16 12 10 8 8 6 4 7 6 4 3 3 2 1 1 4 6 2 2 8 11 12 17 17 19 21 23 24 25 28 30 31

GFSSW_700_spd_096.txt.gz
Wind_Speed
32 35 38 35 33 32 33 34 30 28 24 22 20 20 21 22 23 22 21 19 18 22 26 25 26 27 29 30 31 33 37 36 36 37 38 38 40 38 30 23 29 30 30 36 39
36 34 38 39 36 33 33 35 30 26 25 21 19 20 20 22 22 21 20 19 19 20 23 25 28 29 30 31 32 33 33 39 34 36 27 33 35 35 34 28 28 28 24 31 42
32 38 34 37 38 37 34 36 30 25 24 20 19 19 20 20 22 22 20 18 17 15 17 22 25 30 31 27 32 35 40 44 32 38 20 24 39 27 34 31 31 29 24 28 34
37 40 34 34 40 38 36 35 30 24 22 21 19 19 19 18 13 12 14 16 21 21 20 20 21 26 33 31 29 32 41 37 42 29 40 21 38 28 35 34 34 27 22 22 16
34 37 33 36 36 37 37 34 28 22 20 22 18 16 16 16 17 19 18 17 17 19 21 21 23 24 28 35 30 32 39 37 32 28 45 26 37 32 37 36 32 31 26 25 18
36 35 34 41 33 34 36 32 25 21 20 19 15 13 14 18 18 16 13 14 14 15 17 20 23 22 26 31 30 29 36 32 27 37 36 31 32 35 36 34 32 34 29 25 20
31 40 36 39 35 36 35 29 24 20 19 15 12 14 18 14 15 14 11 10 10 14 18 21 13 21 24 24 29 27 17 31 31 34 33 24 32 38 35 34 33 33 33 31 23
33 36 31 37 36 35 33 25 20 19 16 11 12 16 13 14 9 12 10 11 10 14 14 15 10 21 18 24 19 25 19 21 32 21 50 22 17 37 35 32 34 34 31 32 28
28 34 38 35 31 33 30 21 17 15 11 10 14 13 9 9 11 12 15 15 11 12 14 13 9 14 19 18 18 22 21 22 19 26 33 33 8 33 37 34 33 34 34 30 28
34 28 33 33 32 28 25 17 13 12 8 12 7 9 9 10 10 11 14 12 11 12 15 14 13 16 22 21 18 23 29 22 21 16 16 33 28 15 26 34 33 30 29 27 27
40 35 37 32 28 23 21 12 9 7 10 8 8 11 11 8 10 6 8 9 11 13 14 13 8 20 24 27 15 14 31 18 19 16 12 13 26 27 20 34 32 31 28 26 24
42 40 33 33 30 17 16 9 4 3 6 9 11 12 10 8 7 8 6 10 10 12 8 8 8 12 19 24 24 22 23 15 13 9 14 9 11 24 24 32 29 31 28 25 24
40 40 32 27 29 16 11 6 2 4 3 10 11 10 10 7 9 10 5 5 7 6 5 7 4 9 20 21 21 31 22 25 23 17 5 6 10 5 20 33 29 30 31 28 26
33 35 34 30 25 13 9 5 4 7 3 6 10 9 8 5 9 13 9 4 3 6 2 3 2 11 12 25 26 30 19 23 20 14 8 5 3 8 15 35 28 30 30 30 28
33 33 33 30 25 11 7 6 7 7 3 0 5 6 9 12 11 11 7 5 7 1 3 4 6 15 13 21 22 24 22 20 16 10 6 10 5 8 10 25 30 28 28 29 26
29 34 34 26 11 9 9 9 10 4 3 2 1 6 13 17 21 16 11 9 9 16 12 15 14 11 17 22 16 24 25 22 16 8 4 3 8 12 4 6 16 17 29 32 24
24 38 32 24 10 8 12 13 7 4 9 7 6 6 14 16 16 16 13 6 9 9 16 17 29 26 24 24 22 23 20 4 4 3 2 4 3 7 4 6 10 12 15 22 22
23 31 33 28 11 10 15 17 6 9 10 11 10 10 12 17 19 16 16 14 14 12 9 11 10 13 20 17 16 17 6 3 4 3 2 7 4 5 2 6 3 4 10 18 22
26 30 34 13 13 14 19 14 3 17 12 14 10 5 6 8 9 12 15 10 10 10 4 6 8 13 8 12 13 10 10 9 11 9 4 4 4 2 1 6 8 6 7 6 7
32 31 28 16 14 18 21 11 7 17 19 16 4 5 4 3 3 4 5 5 9 10 10 13 10 15 13 11 7 8 6 3 4 4 2 0 3 3 4 4 3 4 3 4 5
28 33 22 18 16 22 23 12 11 15 20 15 4 8 6 5 5 4 6 6 9 11 11 8 6 10 7 11 14 10 4 6 8 6 3 2 2 6 1 6 5 4 4 6 8
32 26 21 20 23 25 24 15 16 20 19 11 10 10 7 6 4 5 4 3 5 8 10 5 11 9 11 12 9 5 5 6 4 3 5 4 4 8 4 4 2 3 4 5 6
35 22 20 21 23 23 23 16 19 23 18 12 11 9 10 5 3 5 4 5 5 5 6 5 8 7 4 5 8 4 4 3 6 6 3 2 1 7 7 3 1 4 5 6 7
31 19 25 23 23 22 23 19 22 20 18 14 15 11 9 5 3 4 5 4 4 5 7 8 8 5 7 5 6 5 6 5 5 4 5 3 4 2 2 5 6 8 11 14 15
27 16 17 23 30 24 23 21 24 21 17 16 16 11 8 4 4 4 2 5 4 4 4 7 9 10 10 8 6 5 3 6 8 8 6 8 12 11 11 15 16 18 21 24 25
23 6 15 12 27 25 25 23 25 23 19 18 13 11 9 2 1 4 3 2 2 3 4 5 6 5 5 3 1 3 4 5 6 8 12 15 17 15 16 18 19 23 26 29 32
17 11 10 13 31 26 26 25 24 20 17 16 10 10 8 6 6 6 5 3 6 6 5 4 5 3 1 1 3 2 1 1 3 4 7 10 11 15 15 17 19 21 22 24 27

GFSSW_700_spd_099.txt.gz
Wind_Speed
30 28 27 33 37 36 35 37 33 32 29 26 24 23 20 20 20 20 19 19 19 21 24 25 25 26 26 28 29 26 32 36 34 40 40 35 34 37 30 19 27 30 37 43 47
39 31 30 32 36 37 32 38 35 32 28 25 22 20 19 18 20 20 20 18 19 21 22 24 24 25 26 27 28 29 30 41 35 36 32 26 41 32 31 32 24 29 31 27 48
26 29 28 33 35 35 35 32 33 31 26 21 20 20 19 19 20 21 17 15 15 16 16 19 21 25 27 25 24 28 40 39 37 32 22 27 29 35 31 30 33 26 30 27 22
33 32 33 41 32 32 35 33 30 28 23 19 18 18 18 18 11 8 11 15 19 19 20 20 20 21 28 27 26 28 35 38 40 24 34 25 26 36 37 26 31 28 27 28 28
35 30 31 35 33 36 36 36 29 25 20 16 17 17 15 14 14 16 19 18 19 18 17 17 19 20 24 26 25 29 33 34 37 34 24 34 31 28 42 29 27 27 30 28 20
37 35 31 33 31 35 31 40 24 18 17 16 16 14 12 14 17 17 15 15 15 16 18 18 18 20 27 27 27 28 32 31 27 32 30 29 36 27 35 38 26 27 32 26 19
35 38 32 35 33 40 40 35 20 15 14 14 12 11 15 14 13 13 13 13 15 16 15 16 19 20 24 26 25 27 21 22 31 24 28 27 33 35 25 37 28 30 30 27 25
32 36 28 29 34 40 37 32 16 11 12 11 9 14 13 10 9 11 11 12 14 15 17 17 18 19 20 19 15 24 22 18 28 27 22 28 28 36 26 42 28 30 32 32 33
31 35 33 34 34 30 33 27 10 8 8 9 11 9 6 8 7 11 12 12 15 16 16 16 21 22 15 18 20 19 17 22 11 29 24 32 23 31 15 39 30 33 34 34 36
31 36 35 33 31 31 27 17 5 5 6 9 4 5 7 7 7 9 11 12 12 14 16 17 22 20 13 14 19 14 24 19 12 26 24 24 32 24 9 29 31 33 34 36 36
27 28 28 32 27 30 29 8 4 3 4 4 4 7 10 9 9 7 10 11 11 14 15 18 16 19 20 22 11 9 26 19 17 16 17 17 26 26 24 15 27 36 35 34 34
26 25 24 32 29 35 30 4 2 1 1 7 7 10 10 10 10 8 10 11 11 12 13 15 15 8 8 15 20 13 26 16 15 13 10 8 14 19 25 25 25 33 32 32 27
26 24 16 24 24 31 20 3 5 7 1 5 7 10 9 8 9 8 8 10 10 13 13 15 6 4 15 17 21 9 28 20 24 18 15 6 5 15 19 21 33 29 29 30 28
26 18 18 17 25 24 8 5 7 9 3 3 6 10 10 7 6 8 4 2 4 2 5 8 2 7 10 11 13 24 22 20 26 15 10 13 2 11 5 23 26 29 31 29 27
23 18 16 17 22 24 4 8 8 7 3 1 5 7 6 8 4 6 3 6 6 11 5 6 7 14 15 17 21 20 21 17 20 15 13 8 4 11 2 14 22 32 30 26 23
17 17 23 20 20 16 8 11 10 4 3 4 4 6 6 9 10 8 7 11 8 12 12 8 9 8 11 18 13 22 20 12 14 11 6 7 5 6 12 10 19 22 24 23 22
17 19 15 17 19 8 13 15 8 4 5 7 9 7 7 8 8 11 14 20 18 13 21 24 22 18 19 16 20 21 23 3 4 4 2 5 5 9 10 8 10 21 22 22 25
16 23 14 17 17 10 17 20 6 5 9 11 10 10 9 10 11 9 9 14 16 11 13 12 10 15 18 20 17 18 6 4 5 4 4 4 6 5 11 5 11 6 11 17 20
16 17 14 16 17 13 21 14 3 8 9 15 12 4 2 6 5 6 9 14 16 14 6 7 9 10 14 20 12 6 6 7 11 10 5 4 8 13 14 15 15 10 8 10 17
17 15 17 22 19 22 24 9 6 13 14 16 5 3 2 4 4 3 7 12 11 12 13 12 8 10 13 13 17 11 5 2 4 4 4 5 6 8 11 11 11 10 8 8 9
21 20 22 21 20 24 23 11 7 18 16 13 3 7 3 2 6 6 7 9 11 10 9 6 5 6 11 9 9 7 5 8 7 3 4 3 3 7 7 8 7 5 4 3 3
24 27 23 23 25 26 18 15 10 18 16 9 6 6 3 4 6 6 5 5 10 10 9 8 8 10 12 10 11 11 13 11 4 4 10 8 4 10 10 7 5 4 3 2 4
26 26 24 21 23 24 19 14 14 19 16 10 7 6 5 4 3 5 4 5 7 10 5 5 6 4 4 5 4 5 7 10 11 8 6 5 7 11 11 9 7 5 4 3 2
31 22 25 22 15 17 19 15 16 19 15 10 9 8 5 3 4 4 6 5 6 8 10 9 7 5 6 4 2 3 3 3 5 5 7 8 12 9 2 2 3 4 7 10 11
25 13 14 21 21 18 18 14 17 20 17 12 11 8 5 2 3 3 4 5 4 5 7 9 12 12 12 9 6 4 2 1 2 4 3 2 3 5 10 12 13 14 16 17 18
13 8 9 1 19 18 20 15 19 19 16 15 11 9 6 2 0 3 4 4 3 5 6 7 6 8 8 5 4 3 2 2 3 1 3 5 5 8 9 12 14 18 20 21 22
9 6 9 9 18 21 21 17 20 15 13 13 11 8 6 4 5 5 4 4 5 5 5 6 6 4 3 3 1 3 3 2 2 1 0 0 5 9 10 11 16 16 20 23 25

GFSSW_700_spd_102.txt.gz
Wind_Speed
30 27 21 31 26 26 26 29 30 33 34 30 24 19 18 17 17 17 19 21 21 21 21 22 23 23 24 26 28 28 26 32 35 36 35 30 32 33 36 27 19 28 25 37 35
33 32 24 25 28 27 26 26 28 35 35 31 23 17 16 17 18 19 20 19 19 19 20 21 23 23 24 24 26 25 27 29 29 28 29 33 29 23 25 32 30 25 28 35 36
33 34 33 31 26 25 26 32 32 34 33 26 20 14 15 17 18 21 18 15 15 15 15 18 21 23 25 24 20 20 34 25 21 24 23 26 27 29 33 44 26 24 28 29 33
36 36 35 34 34 29 25 26 33 29 26 21 19 13 14 14 10 9 10 12 15 18 19 19 20 22 24 24 19 23 29 27 27 22 27 28 25 27 24 36 25 28 29 29 26
32 35 37 32 31 28 27 32 30 36 15 18 16 13 13 12 13 14 14 16 15 16 16 16 16 16 19 21 22 22 28 26 23 28 32 33 28 24 24 26 32 25 23 30 25
29 28 36 33 31 28 23 31 36 33 12 15 11 10 9 11 12 11 12 13 13 14 14 14 15 15 20 22 22 18 22 28 25 26 32 29 33 29 25 37 28 31 21 26 23
31 28 30 30 28 30 23 29 35 27 11 11 6 8 11 10 10 9 9 11 13 14 13 13 15 17 19 20 17 24 25 21 23 29 26 30 29 31 32 29 31 37 24 25 25
28 29 26 25 27 24 23 28 34 11 9 5 5 9 9 8 7 7 8 11 12 13 14 16 17 17 18 18 21 15 22 25 22 21 25 23 30 25 30 27 38 41 26 27 33
25 26 23 23 28 23 27 29 21 9 4 3 4 6 7 6 6 8 9 9 12 15 17 18 17 18 20 24 23 16 18 25 20 19 23 25 18 19 22 30 30 38 27 29 28
24 23 20 17 21 21 20 19 9 9 3 2 1 4 6 6 6 9 9 10 12 15 17 15 16 18 22 16 13 15 20 20 21 23 26 22 24 10 22 25 21 38 28 29 35
22 18 13 10 8 11 18 20 11 7 3 1 1 3 3 2 5 8 9 10 14 17 18 17 18 21 14 19 11 14 14 15 17 23 22 19 19 18 23 29 17 32 31 31 32
20 16 11 11 20 11 13 22 6 8 5 4 3 3 4 5 7 9 10 10 12 14 14 13 22 19 13 12 17 12 16 17 13 21 16 14 12 15 17 26 6 16 32 32 32
17 13 9 10 11 14 9 7 8 10 4 3 4 4 6 5 6 11 11 11 9 12 14 18 16 3 6 9 11 12 16 16 14 19 10 12 6 3 10 27 32 21 31 31 30
13 8 7 11 12 7 15 6 14 13 3 4 1 2 9 9 6 10 6 9 9 8 10 8 3 6 8 10 12 12 23 16 21 18 8 11 5 9 14 18 29 25 30 29 28
7 12 12 9 12 10 7 11 13 11 3 5 2 5 11 12 7 8 11 15 14 11 3 6 6 8 9 12 12 7 18 21 21 14 10 13 6 15 12 3 21 22 23 28 24
8 18 11 10 13 9 5 14 13 5 2 6 4 8 9 7 10 14 19 21 13 7 9 10 12 7 8 10 11 16 17 15 11 9 7 9 12 3 9 1 18 20 24 23 21
14 22 15 11 12 5 17 17 8 3 8 8 8 9 6 7 7 9 16 19 13 5 9 18 13 11 15 11 7 7 17 4 4 4 4 1 3 8 13 11 22 25 26 22 19
21 23 14 9 12 7 19 20 3 4 7 10 12 11 8 5 10 11 13 12 14 9 11 6 4 6 12 15 8 9 1 2 5 4 4 7 7 6 15 17 10 21 22 22 22
22 20 14 10 10 9 20 8 1 7 11 14 13 5 4 6 4 6 9 13 15 13 4 4 7 11 16 17 8 1 6 8 9 8 8 4 8 11 13 17 17 12 10 13 13
17 18 14 8 8 11 23 4 4 10 15 13 4 4 3 5 4 2 7 12 11 12 10 8 6 12 15 13 11 8 4 2 3 4 5 6 10 9 9 16 18 18 16 12 12
25 20 14 11 7 14 22 4 7 15 17 7 5 7 2 2 5 5 5 9 8 7 7 5 5 5 16 10 11 10 6 5 5 4 4 5 6 7 12 14 14 12 12 12 12
27 17 15 14 15 20 20 7 9 17 12 7 6 5 4 3 6 5 6 5 7 11 12 8 7 9 12 11 12 16 15 6 1 4 8 13 6 11 13 13 13 12 9 7 7
27 18 16 14 16 20 16 11 14 16 12 7 5 4 5 5 4 5 5 8 11 7 5 8 5 3 4 5 8 9 11 12 10 8 6 4 9 13 14 12 11 11 11 10 9
25 18 17 16 11 19 15 13 14 15 11 5 5 6 5 7 5 5 4 6 8 10 10 8 8 2 4 6 6 5 7 8 8 8 11 16 20 11 9 7 6 6 7 8 9
6 6 7 13 13 18 16 13 14 15 11 8 6 4 3 3 4 5 5 6 6 7 7 8 12 14 14 10 9 9 8 7 9 10 10 14 9 2 1 4 7 10 12 14 15
12 6 8 6 15 18 15 13 14 15 13 10 5 5 3 3 3 2 4 4 4 5 6 7 8 10 9 7 5 5 5 6 8 8 8 6 5 2 3 7 10 12 14 15 17
7 3 7 4 16 18 16 12 14 11 9 9 9 5 2 3 4 4 5 5 6 5 7 6 5 5 2 3 5 5 5 5 3 3 4 2 2 4 7 10 11 13 15 16 18

GFSSW_700_spd_105.txt.gz
Wind_Speed
30 30 28 27 26 26 23 26 22 22 26 30 29 25 23 24 19 17 16 18 18 19 19 19 19 21 21 24 23 17 26 35 35 33 32 29 28 31 31 34 28 25 27 33 28
32 31 34 33 29 26 24 22 23 21 24 34 30 22 20 21 19 16 17 17 18 19 17 19 19 20 20 20 19 24 27 31 26 26 29 30 32 29 31 32 39 31 26 36 37
31 34 35 36 32 33 32 29 28 24 28 26 32 19 20 20 17 17 14 14 15 16 16 17 18 18 20 17 19 23 34 24 24 25 27 25 28 28 31 34 27 37 26 34 30
30 30 35 36 34 34 28 22 25 26 27 32 24 17 19 17 5 7 11 12 12 14 15 17 18 17 14 15 17 27 28 25 27 26 20 25 22 22 27 30 28 31 33 31 27
28 29 29 30 34 34 31 26 26 26 26 34 13 18 16 12 8 11 13 13 16 16 15 15 14 11 14 11 16 23 25 28 26 25 27 24 27 26 28 28 30 35 37 36 29
27 27 27 26 27 33 29 26 23 25 27 14 12 16 13 8 8 10 10 12 13 11 12 11 11 12 17 16 18 18 18 23 26 26 25 26 30 26 26 26 32 27 40 28 27
24 23 24 23 21 24 27 21 23 25 20 9 15 12 9 9 8 10 11 13 11 10 10 10 11 13 11 13 16 19 25 28 27 24 27 24 30 33 27 24 24 30 22 35 21
19 18 19 18 12 18 17 20 18 25 6 13 12 11 6 5 8 11 12 12 12 11 11 14 14 15 16 17 19 19 20 26 29 26 25 25 28 28 27 28 27 24 30 35 23
15 15 15 16 17 20 19 19 20 6 6 11 8 9 7 5 8 11 12 11 10 14 15 16 12 15 18 17 20 17 23 22 24 25 24 26 23 17 22 32 28 28 30 33 25
12 13 12 12 11 14 14 14 14 1 9 8 6 4 5 8 8 10 10 10 13 13 14 15 14 18 21 15 20 14 19 23 22 23 27 25 22 16 24 21 25 28 26 32 32
11 8 4 2 6 15 15 14 13 6 11 4 4 4 6 7 6 5 6 9 11 14 14 14 17 21 16 19 21 22 16 18 19 22 23 26 22 20 15 18 24 21 28 30 31
9 8 11 13 13 15 18 11 7 4 10 5 3 4 5 8 7 5 8 8 9 12 10 20 23 15 17 17 17 23 18 21 16 20 23 22 17 15 16 19 24 23 27 33 35
10 8 11 13 17 13 11 9 13 11 8 4 3 4 5 5 5 7 8 9 10 12 12 19 17 14 14 11 15 19 23 19 14 24 18 17 11 13 14 15 17 22 19 32 31
4 10 13 12 13 14 8 6 11 10 5 2 2 2 5 2 8 9 10 10 12 10 10 7 8 10 8 13 12 15 15 15 29 25 13 19 7 6 13 14 11 24 17 15 20
7 16 16 14 11 13 8 13 11 12 3 4 2 1 8 10 6 13 15 13 10 5 2 4 2 3 7 7 11 9 8 11 17 10 17 11 4 6 4 6 13 22 15 15 16
14 16 19 14 10 10 4 10 13 6 3 6 5 5 9 10 9 9 17 16 9 6 6 4 2 1 1 4 10 5 6 9 5 7 6 7 3 14 9 1 11 14 14 18 19
20 22 21 15 17 8 3 11 6 4 7 7 7 7 5 6 7 10 7 10 8 4 5 6 4 2 4 4 9 8 7 2 1 3 4 10 9 11 14 8 11 20 22 20 18
23 22 15 16 9 3 12 12 4 4 7 9 11 9 2 4 6 9 8 9 8 6 4 4 3 3 4 4 3 6 6 5 3 2 5 13 11 10 15 13 15 22 24 21 18
23 22 17 11 6 6 18 4 2 8 10 12 7 2 4 6 4 5 6 8 8 2 5 2 4 9 2 2 8 6 4 2 3 14 8 5 10 17 14 23 20 23 23 18 17
27 21 14 6 4 10 16 4 4 9 15 10 1 5 2 4 5 4 6 9 7 9 4 7 3 6 8 5 10 7 6 1 2 2 6 6 8 9 15 18 21 20 17 13 10
26 19 12 8 7 18 9 5 9 14 11 4 3 3 5 4 6 6 5 6 7 5 8 6 3 3 5 8 10 10 10 7 5 4 3 5 8 7 9 15 17 21 21 19 17
23 17 12 10 10 10 7 7 12 14 5 6 7 5 6 5 6 4 6 7 6 11 7 8 6 4 6 6 8 11 10 6 5 3 6 13 7 6 10 14 13 16 15 13 11
19 18 13 8 6 6 13 6 15 12 5 5 5 6 7 6 3 4 5 9 12 6 7 8 3 2 4 5 10 6 13 12 7 8 6 1 10 10 8 10 9 12 10 8 7
12 7 8 8 6 10 12 8 15 10 6 6 6 6 8 7 7 5 4 7 10 9 7 6 3 3 6 3 5 8 13 15 11 14 15 18 19 9 8 7 6 4 2 2 3
13 9 6 5 6 13 13 12 13 8 4 4 4 4 5 4 6 6 6 6 6 7 8 8 9 10 10 7 8 8 10 13 16 10 15 16 13 8 6 5 5 7 8 9 9
12 6 8 6 8 14 12 11 11 9 6 2 2 2 4 4 3 3 4 3 3 6 6 8 7 8 7 6 6 7 7 9 10 13 12 9 5 3 1 3 4 2 2 5 7
4 3 3 2 8 14 11 12 11 9 6 5 4 1 3 4 4 4 4 5 5 5 4 5 3 3 2 3 3 2 4 5 4 4 6 2 2 2 4 6 7 8 9 10 10

GFSSW_700_spd_108.txt.gz
Wind_Speed
33 33 32 32 29 27 22 18 19 23 18 19 22 19 28 25 21 19 17 17 17 13 13 13 13 15 17 20 22 13 27 29 30 29 29 22 27 24 22 29 31 28 24 27 18
32 32 33 32 32 30 29 28 28 22 22 22 21 26 30 23 20 19 16 16 15 13 14 14 11 13 16 16 19 26 27 30 26 21 25 26 26 28 26 26 35 36 34 30 30
30 30 30 31 32 33 33 33 26 28 26 25 21 22 26 20 17 17 11 9 8 9 11 11 12 13 15 14 15 20 29 25 22 22 25 27 31 25 31 32 26 33 42 31 41
27 28 28 27 28 31 32 31 24 23 19 25 24 23 18 16 7 4 8 9 9 9 10 11 13 14 13 10 12 21 24 24 26 26 29 30 27 32 28 28 20 30 28 34 34
23 25 25 25 23 24 28 29 24 24 20 17 22 14 14 14 12 7 10 8 9 9 10 10 10 9 10 10 9 18 20 23 24 28 31 34 28 29 30 27 15 30 27 34 35
17 20 22 23 20 21 24 22 24 19 26 24 17 12 11 13 11 9 9 6 10 7 9 8 7 9 14 14 15 17 18 21 23 29 30 30 32 28 39 33 19 23 33 28 29
11 14 17 18 18 16 16 22 15 19 22 20 11 12 9 12 11 9 8 9 10 9 11 12 13 12 8 11 13 18 23 24 29 31 28 29 33 35 35 39 21 27 34 35 31
10 11 12 12 11 6 9 14 17 16 13 8 11 7 9 8 8 8 9 10 12 14 15 16 11 12 13 17 18 16 22 25 25 19 28 24 38 32 32 35 28 29 25 30 33
11 11 9 10 13 18 17 14 15 16 8 11 7 4 5 5 5 7 9 10 16 16 13 11 12 11 12 14 16 12 20 17 28 19 23 28 34 31 29 25 27 30 34 24 25
8 11 6 10 12 16 22 20 10 7 9 7 6 3 2 3 4 7 9 12 14 16 12 11 14 13 14 14 14 10 17 21 26 19 21 30 33 32 21 20 28 34 28 26 29
5 8 5 8 14 15 21 17 10 4 7 4 2 3 3 3 4 6 6 8 11 13 14 13 19 22 18 18 21 22 26 25 20 20 22 26 31 28 20 25 27 27 25 30 25
6 8 12 16 12 23 20 11 9 5 9 5 1 2 4 5 7 7 8 9 8 10 9 17 24 22 19 19 20 24 24 25 23 16 14 26 29 19 21 15 20 23 20 22 29
7 12 19 12 16 13 19 14 9 12 9 8 2 5 5 5 4 6 6 8 9 14 16 19 20 18 17 18 17 17 19 20 23 18 17 16 24 26 19 18 18 19 20 20 24
5 12 19 17 15 13 7 7 12 14 7 4 5 5 4 6 9 11 11 8 7 8 6 7 6 12 15 17 10 17 13 18 24 17 17 24 8 23 20 19 16 16 18 18 14
14 15 18 12 13 12 7 4 14 13 4 4 6 5 10 9 6 10 12 9 5 3 3 5 6 6 3 4 5 14 15 17 11 16 15 25 3 4 10 10 12 12 17 12 19
20 17 13 12 9 10 3 14 14 3 3 5 6 7 8 8 12 8 10 14 7 7 9 9 9 5 5 4 7 14 15 8 21 16 6 12 9 9 4 8 13 16 16 14 18
19 21 17 12 7 7 16 18 7 4 9 7 7 9 10 6 7 12 10 11 8 7 9 10 8 8 5 7 7 10 14 4 0 3 2 14 11 11 11 9 12 13 10 19 21
19 20 14 17 9 13 16 6 7 7 7 10 10 10 3 0 6 4 9 11 11 7 8 6 4 8 7 14 8 11 10 5 3 2 3 10 7 11 15 12 15 20 22 24 17
17 14 13 11 15 24 9 10 5 8 11 12 9 3 2 6 3 2 6 8 8 5 5 7 6 5 6 13 11 12 9 9 5 12 4 7 9 21 22 15 22 30 27 18 22
21 21 15 14 17 16 16 9 8 12 15 8 4 5 5 5 4 1 5 8 5 6 4 5 6 5 8 11 10 12 15 2 2 3 4 4 11 12 23 25 29 26 25 24 21
22 20 18 15 16 11 12 11 13 15 5 7 6 4 6 5 6 5 5 7 6 2 7 6 3 4 8 11 16 19 19 9 9 3 1 3 6 17 19 25 26 26 21 15 11
19 19 19 20 17 13 8 10 14 9 7 9 8 6 7 6 7 5 5 5 3 5 5 5 3 3 5 11 16 19 17 13 5 9 18 12 9 13 16 17 16 19 18 14 12
13 14 15 14 16 10 9 12 12 6 6 8 5 9 12 8 4 6 6 9 8 5 3 3 4 6 4 3 12 12 20 6 8 4 17 6 6 10 9 14 14 15 13 11 9
11 9 13 12 13 13 9 11 9 6 9 10 9 11 8 9 11 7 6 7 6 7 5 2 3 4 4 3 8 11 18 14 14 18 26 22 16 6 9 10 8 6 6 5 3
18 13 10 8 10 11 9 14 8 4 6 7 8 9 9 5 6 7 7 7 6 6 5 5 6 9 9 8 10 12 16 20 23 17 19 19 15 8 5 3 3 2 3 5 6
15 10 11 7 9 10 9 13 9 5 2 6 5 6 8 8 5 4 4 3 4 6 4 6 3 6 7 6 7 10 10 13 20 17 15 11 12 7 2 2 6 7 8 8 10
11 8 7 4 8 10 9 12 10 6 3 2 1 3 6 6 6 7 6 5 3 4 3 3 3 4 3 6 3 3 7 6 9 12 11 5 3 5 5 4 4 5 4 6 9

GFSSW_700_spd_111.txt.gz
Wind_Speed
34 35 34 34 33 30 25 26 20 15 12 15 12 16 18 21 21 18 16 16 13 13 12 11 12 15 18 19 21 25 27 25 28 30 31 24 25 27 24 24 22 27 33 29 27
32 33 33 32 32 30 32 28 23 26 21 18 21 19 17 20 23 16 16 16 12 11 13 13 15 16 17 18 22 24 31 32 34 32 32 27 27 29 29 26 23 23 30 33 25
28 28 30 29 28 31 30 31 26 26 21 24 15 16 21 23 19 15 12 8 7 7 8 8 10 10 11 13 18 23 31 29 30 28 29 29 30 32 31 31 24 23 32 35 32
22 24 26 25 24 25 30 30 27 23 21 17 14 12 15 16 8 7 8 10 9 7 8 7 9 10 10 11 12 23 23 21 23 23 26 30 30 37 36 32 28 25 23 29 40
20 18 21 21 21 21 23 27 23 21 17 19 15 15 12 13 11 11 10 10 8 7 7 7 9 11 11 11 15 18 21 24 26 28 31 32 36 35 43 35 31 21 34 35 32
14 12 14 17 17 17 17 17 23 16 18 15 18 19 13 14 9 6 7 10 7 5 4 4 7 9 9 11 14 17 22 25 29 31 34 38 40 40 46 42 35 27 25 36 34
9 5 7 9 13 12 10 13 22 24 13 14 15 12 10 10 6 4 8 9 7 5 7 9 8 7 10 10 14 17 23 26 27 26 31 31 41 45 45 46 42 35 25 24 28
4 8 4 8 7 12 11 20 22 16 13 11 7 7 6 5 4 6 8 7 6 6 9 12 10 9 14 16 18 20 22 27 21 15 20 19 42 29 33 40 48 48 33 27 31
8 7 5 12 18 18 15 19 16 8 7 8 5 2 4 1 2 4 6 6 7 9 12 13 15 16 18 16 16 12 17 20 22 13 16 22 33 25 25 34 36 48 46 37 28
4 3 6 15 22 22 21 17 16 12 10 6 4 4 3 3 1 1 3 5 10 12 12 10 13 10 11 10 10 9 14 22 27 22 14 21 36 35 26 26 34 29 34 34 39
5 3 9 14 18 20 17 18 7 12 8 6 8 4 2 2 1 3 5 6 8 10 10 10 11 7 11 14 18 20 24 29 29 15 21 28 29 28 26 29 28 31 30 32 32
9 6 11 9 18 19 23 20 16 12 11 9 9 5 5 3 0 4 5 5 5 3 6 10 15 14 16 17 18 23 25 30 30 14 18 25 28 26 19 25 24 21 29 29 26
6 13 12 16 16 18 18 9 11 11 13 10 7 6 6 8 10 9 6 5 6 5 7 13 16 20 20 17 19 19 23 24 24 21 21 20 25 28 20 19 18 18 24 24 23
10 16 14 19 15 15 18 13 12 15 9 6 5 6 9 10 11 14 8 5 6 6 6 7 9 9 9 14 14 19 9 18 21 18 10 9 7 6 12 17 17 17 23 23 20
14 15 13 12 10 12 16 13 21 10 4 5 8 11 12 6 5 9 11 11 6 8 4 6 5 6 4 3 3 11 11 20 24 21 17 19 10 7 11 15 21 23 23 21 18
17 18 15 19 12 14 13 22 17 2 2 5 8 10 9 10 12 12 11 11 7 7 8 8 3 3 7 6 8 15 19 16 10 6 6 21 18 4 6 14 21 16 16 15 14
19 20 13 15 12 18 23 20 7 7 7 6 9 9 9 8 9 11 12 13 8 8 11 10 7 12 7 11 10 16 14 4 5 4 3 8 10 2 7 13 14 16 16 13 17
18 15 16 14 25 25 14 9 10 7 6 12 11 7 7 4 7 9 12 10 9 6 10 10 6 13 15 15 9 12 5 3 4 3 3 7 7 15 4 12 15 18 13 16 28
20 18 12 24 20 14 11 12 8 11 13 10 7 7 6 8 6 4 7 8 9 9 5 7 5 11 17 21 16 11 12 13 2 6 4 8 5 20 10 8 13 8 16 25 26
18 17 26 26 15 16 20 17 14 18 11 9 7 8 3 4 4 3 5 7 8 6 4 7 6 8 12 17 17 13 16 7 6 3 4 4 10 18 23 27 21 28 28 29 21
15 15 22 20 16 22 26 25 20 12 7 7 9 6 6 4 4 3 5 3 7 3 5 8 7 10 12 16 22 24 22 7 6 2 1 1 6 22 29 25 28 22 25 20 17
10 18 22 19 17 24 22 19 13 9 11 10 8 6 5 2 4 3 7 7 6 6 4 6 5 5 7 11 16 22 20 14 7 11 22 6 9 19 22 28 29 28 22 21 18
14 17 19 15 17 20 19 16 11 10 8 12 10 12 11 3 3 6 8 8 8 6 5 5 6 6 5 7 14 22 16 9 6 5 12 6 4 7 8 14 16 18 16 14 12
15 14 15 11 14 19 18 14 12 12 12 10 10 8 6 7 8 6 7 8 9 8 6 4 7 7 6 4 10 14 16 13 6 11 16 18 20 8 9 11 11 10 9 7 5
16 12 10 13 10 12 11 13 9 9 8 6 7 7 3 0 4 7 5 4 5 7 5 6 6 8 8 7 7 11 12 13 17 14 13 20 15 11 8 6 5 5 4 4 5
13 11 9 12 12 11 11 10 8 6 4 7 4 7 7 4 5 5 5 4 4 3 4 3 2 2 4 2 3 8 10 10 14 16 18 15 14 10 7 4 2 1 2 4 7
12 10 10 9 10 9 12 12 8 6 3 3 2 4 4 5 5 6 6 5 4 4 3 0 1 2 1 1 2 2 3 6 6 7 8 6 4 3 1 2 5 5 4 5 9

GFSSW_700_spd_114.txt.gz
Wind_Speed
30 32 33 34 36 33 29 27 19 25 12 10 10 13 13 12 11 13 13 13 13 14 15 15 16 17 18 21 24 27 30 36 36 33 37 30 24 30 31 29 22 21 12 17 23
27 29 31 31 31 32 36 31 22 21 18 15 17 16 17 14 14 16 13 13 13 14 14 13 13 14 17 21 24 26 33 35 35 32 31 30 32 32 36 33 26 23 20 14 18
16 26 27 29 28 29 33 30 32 22 21 22 17 15 13 14 13 14 10 8 9 9 10 11 12 14 16 20 22 28 34 31 31 29 28 32 35 33 39 43 33 29 25 21 20
18 18 24 24 23 24 25 31 26 28 22 17 15 12 9 9 7 7 7 8 10 10 9 9 10 12 15 18 22 27 29 30 33 33 35 35 35 39 41 46 42 32 24 25 22
15 15 19 25 17 20 20 24 28 23 19 16 17 16 16 11 10 11 11 7 6 7 7 7 10 11 13 15 18 23 25 29 32 33 34 35 37 38 44 45 46 39 28 24 25
10 11 10 16 20 16 17 16 24 23 19 14 12 13 18 14 9 8 7 6 6 7 6 5 5 5 8 11 14 17 21 21 25 27 31 34 35 35 43 43 49 47 39 29 25
10 7 8 13 17 16 16 17 20 21 20 16 13 12 11 9 6 6 6 4 5 9 6 5 5 7 8 10 15 16 21 20 21 23 28 26 38 39 35 36 46 53 45 39 34
7 8 5 14 17 17 17 21 24 18 12 10 10 7 5 4 5 5 4 4 6 8 10 8 8 10 12 14 17 20 22 22 17 19 18 19 41 31 22 26 39 48 53 44 40
8 7 7 15 23 26 24 20 22 11 8 11 5 4 4 4 3 2 3 4 6 6 7 9 10 12 15 16 17 13 16 22 25 17 15 17 32 27 21 23 24 36 47 52 45
8 7 9 23 23 23 25 25 22 16 11 6 7 6 6 5 3 1 1 3 5 6 6 9 10 10 8 8 9 14 18 22 25 22 27 31 38 33 29 28 30 26 36 46 50
7 7 10 22 22 28 25 23 22 19 11 8 11 10 7 4 2 2 3 4 6 7 8 8 11 6 8 12 14 15 19 25 23 17 26 27 35 35 32 35 26 26 28 38 34
9 13 10 19 19 19 22 15 18 20 16 14 11 9 7 4 3 2 1 3 4 5 8 10 9 7 8 12 15 17 20 27 29 12 25 31 34 34 24 24 21 22 24 26 25
12 17 14 18 19 18 19 18 20 19 18 14 10 8 9 10 7 4 3 5 5 6 6 8 8 10 11 12 16 18 23 25 24 23 28 16 21 21 10 15 13 18 19 20 25
17 11 17 17 18 19 19 23 24 20 12 9 6 6 12 12 10 11 9 5 6 5 5 4 5 6 6 8 9 17 10 15 19 17 9 17 9 17 9 7 9 13 15 18 21
21 20 15 12 19 21 22 23 21 9 5 6 9 10 7 7 6 7 10 4 2 3 3 5 6 6 6 7 10 15 16 19 22 26 13 12 6 7 8 8 11 12 13 14 15
19 14 13 16 14 15 18 23 11 5 3 6 8 10 11 10 8 6 8 7 2 3 5 7 9 13 12 13 14 19 21 20 12 8 4 6 5 4 15 14 14 15 14 15 13
20 18 18 18 10 26 26 17 6 8 9 8 8 8 8 7 6 8 9 10 8 7 11 13 12 17 17 22 18 20 21 4 2 1 4 1 5 6 17 4 10 14 13 12 15
20 17 15 17 24 24 16 8 8 7 8 12 8 7 4 2 5 4 8 8 9 9 8 9 8 17 17 17 15 14 6 3 4 3 4 8 5 12 6 2 4 9 9 10 20
16 16 20 22 20 13 10 8 10 14 16 10 7 6 4 3 1 3 8 9 8 10 7 9 2 14 14 16 15 13 13 5 2 4 4 7 12 17 7 3 11 11 7 15 23
15 21 17 14 12 16 21 20 15 15 11 8 6 5 3 6 2 1 6 6 8 8 7 6 4 8 9 11 16 9 13 3 5 4 3 6 8 15 23 24 21 25 28 17 19
21 18 12 14 17 20 28 25 17 13 9 6 6 6 3 2 3 3 7 5 9 6 5 5 4 4 5 9 15 15 9 1 4 4 3 3 5 15 20 27 29 30 25 26 22
18 15 14 19 25 22 20 14 11 10 8 7 6 6 4 3 5 3 7 8 8 5 5 7 6 9 10 7 15 19 15 7 3 3 7 6 4 15 20 23 28 30 27 23 22
16 16 16 18 18 20 17 13 11 8 6 6 6 8 8 3 2 3 5 7 8 7 4 5 6 9 4 4 13 19 19 6 1 7 3 3 2 9 15 13 15 16 17 16 14
17 11 11 13 16 16 16 13 12 11 8 7 5 4 5 5 3 2 3 4 6 4 3 3 6 6 3 4 10 14 17 18 0 2 7 11 16 9 10 10 11 10 9 7 6
14 13 10 12 14 14 9 11 10 7 5 4 5 4 3 2 2 2 1 1 3 5 3 3 3 4 4 5 7 8 12 11 11 10 3 15 12 10 7 6 6 5 4 3 4
10 10 10 12 13 12 10 7 4 4 4 4 3 5 4 3 2 3 0 1 2 1 2 1 1 3 4 4 4 4 4 9 11 11 12 11 8 8 5 2 1 1 3 4 5
3 4 10 11 10 9 9 8 5 2 2 2 2 4 3 2 2 2 2 1 1 1 3 3 4 4 3 5 8 8 4 3 1 6 6 6 4 5 4 2 2 5 5 7 10

GFSSW_700_spd_117.txt.gz
Wind_Speed
22 30 28 31 38 40 28 25 18 20 24 13 14 13 12 10 10 8 7 10 11 13 13 13 15 15 17 20 22 23 26 32 33 31 30 28 29 27 31 33 29 27 21 18 19
13 22 27 27 29 36 39 26 29 17 17 16 14 11 10 13 14 11 11 10 12 12 13 13 14 14 16 19 23 23 30 31 32 31 33 34 31 32 31 35 35 31 26 20 20
12 12 12 25 21 28 37 41 34 30 15 18 20 14 12 10 9 10 9 9 8 8 9 10 11 13 16 18 22 26 33 32 33 32 34 37 36 33 36 40 38 37 31 25 25
16 14 13 14 14 20 27 40 36 29 21 18 15 14 10 4 4 3 3 5 9 9 8 8 8 11 13 17 21 26 29 32 34 34 36 36 37 38 37 40 41 41 36 31 30
17 15 13 12 19 9 19 29 32 27 27 22 14 15 13 10 7 7 8 9 8 6 6 6 6 7 11 13 18 24 26 28 31 32 33 35 37 39 43 38 39 45 42 33 31
15 14 11 9 13 13 15 21 29 26 18 23 17 12 12 13 10 7 6 6 7 5 5 5 4 4 6 8 12 15 16 18 23 25 29 32 34 35 45 37 36 42 46 43 35
7 6 6 6 7 16 16 18 30 31 20 16 14 10 7 10 8 6 3 6 6 5 6 6 7 8 9 10 13 16 21 21 21 24 29 28 40 40 33 29 35 43 47 48 42
7 6 3 10 13 20 20 23 24 24 20 13 13 10 6 6 6 5 4 5 5 5 6 8 10 10 11 13 17 20 24 26 22 21 25 27 48 37 30 29 32 36 43 50 51
9 7 8 15 19 22 24 23 23 25 23 15 9 7 6 6 5 3 2 2 3 5 7 8 10 10 12 14 16 14 18 23 27 19 21 23 40 38 31 31 32 31 35 44 53
11 9 14 22 20 30 25 28 24 15 15 14 9 7 7 7 5 3 1 0 3 5 7 8 8 9 11 9 6 12 21 25 25 18 24 32 40 37 33 32 35 33 36 35 45
10 11 18 23 22 25 24 20 20 17 14 8 10 8 10 7 4 1 1 3 4 6 7 7 7 6 8 13 14 17 21 25 24 18 23 26 34 30 25 28 32 33 33 36 34
15 15 14 18 19 22 19 18 18 19 20 16 11 10 9 6 4 1 1 3 6 9 8 9 8 8 10 13 17 18 21 22 17 13 24 28 32 16 21 18 21 21 25 28 33
17 15 14 12 25 20 21 19 17 20 20 17 13 12 11 9 7 6 3 3 5 7 6 7 6 7 8 10 13 14 16 13 19 26 23 23 30 11 21 13 5 5 9 19 22
13 13 14 11 21 23 26 24 25 17 13 10 10 11 12 10 11 13 9 9 10 8 9 5 7 7 6 7 9 13 10 16 21 17 13 22 10 25 18 11 8 4 5 6 12
23 18 14 13 17 20 24 26 16 7 5 6 9 8 5 9 7 12 11 6 6 6 7 6 8 10 14 14 12 13 15 20 17 21 18 13 7 8 17 9 5 5 7 7 7
19 23 24 20 19 25 25 16 6 4 3 6 9 11 12 11 9 11 11 9 5 7 8 8 11 10 13 17 16 18 21 18 10 8 4 4 8 7 19 26 21 8 7 7 7
17 16 15 16 19 23 20 6 4 8 8 9 10 9 9 8 9 10 8 9 8 9 11 8 12 10 14 19 12 16 17 4 3 2 5 12 5 6 16 11 11 5 7 6 5
18 16 11 16 19 20 8 5 9 7 9 12 8 7 5 4 5 6 7 8 5 5 8 6 5 9 13 16 16 11 10 4 3 2 4 7 11 11 10 8 6 5 6 5 5
20 20 20 17 17 6 3 4 8 12 14 11 7 6 3 3 1 0 3 6 5 5 4 5 4 10 12 14 15 13 13 8 5 6 3 7 17 10 9 5 5 7 10 7 8
19 17 13 10 4 5 13 16 12 14 10 5 3 3 2 2 0 2 4 4 3 3 5 6 8 7 10 11 14 11 11 5 6 4 3 7 6 17 21 22 22 18 24 22 16
15 11 6 8 14 14 20 20 15 11 7 5 5 2 0 1 1 1 4 2 4 2 4 7 6 7 6 8 13 15 8 4 5 3 2 3 6 13 17 22 27 28 28 30 30
11 12 12 12 19 16 14 12 11 8 7 5 2 1 1 2 3 1 3 3 4 4 6 8 8 13 9 4 10 11 20 3 3 3 5 4 5 13 17 19 22 24 24 20 22
11 12 13 14 9 12 12 12 10 7 5 4 3 1 1 1 1 1 1 4 5 5 6 9 7 10 6 3 5 7 19 3 4 4 0 3 4 4 8 12 13 11 13 14 14
11 9 13 10 10 11 9 7 9 8 4 4 3 1 1 2 2 2 3 3 6 6 6 5 6 5 2 6 12 14 16 10 6 4 3 5 11 6 6 6 7 8 9 8 6
7 9 12 15 13 11 7 9 6 2 3 1 2 1 2 2 4 4 4 4 3 4 6 6 5 8 8 8 10 12 14 10 4 5 3 12 9 7 6 4 3 3 3 5 7
7 8 8 13 14 13 11 8 5 4 3 2 1 2 2 1 2 3 3 3 2 3 5 7 6 13 13 11 13 15 8 6 6 7 8 9 6 6 4 2 1 2 5 7 7
3 4 8 12 14 12 12 10 6 4 5 4 4 4 3 3 4 5 5 5 5 5 4 5 7 11 5 11 16 14 8 5 4 5 5 4 2 3 2 2 3 4 6 8 11